GFSSE_925_thetae_000.txt.gz
Theta_e
341 341 340 339 337 334 333 334 333 333 333 332 330 329 330 331 331 329 324 321 316 314 313 312 315 318 320 323 324 324 326 328 331 332 330 327 325 327 329 326 325 326 330
341 341 340 339 336 335 334 334 333 333 333 332 330 331 332 331 326 322 317 312 309 312 315 313 317 319 320 322 324 324 325 326 328 329 329 328 327 326 328 329 326 324 326
342 342 340 338 337 336 335 334 333 334 333 331 331 332 329 324 321 317 312 309 311 320 323 322 318 314 314 315 316 318 321 324 325 328 328 327 327 327 328 329 325 324 324
342 341 340 338 337 336 335 334 334 335 333 332 332 328 323 320 318 316 311 310 310 310 311 311 310 309 309 310 310 311 314 319 321 324 326 327 327 327 327 330 327 325 325
341 340 340 338 337 336 335 336 336 335 333 332 328 323 319 318 317 316 310 308 308 308 308 308 308 308 308 308 307 307 308 310 314 320 325 326 327 328 329 332 327 324 325
340 339 339 337 337 337 337 336 336 333 332 329 323 319 318 317 317 315 308 307 307 307 309 311 311 310 309 308 313 314 315 315 314 315 319 325 328 329 327 326 328 324 325
339 338 338 337 337 337 337 335 333 333 328 322 319 318 317 314 313 308 310 309 310 315 316 316 316 315 315 315 314 312 313 314 315 319 323 326 328 327 326 326 327 324 325
339 338 337 337 337 336 334 334 333 330 324 320 318 316 314 313 312 316 317 317 316 316 316 316 316 316 315 315 315 314 309 311 315 319 321 321 323 326 325 326 325 325 326
339 339 338 337 336 335 335 333 330 326 321 318 317 317 318 315 318 320 319 318 318 317 317 316 316 316 316 316 316 316 314 311 309 311 315 317 319 320 329 329 322 320 319
340 342 342 338 338 337 333 330 325 322 319 318 316 321 321 322 323 322 321 320 319 318 317 317 317 316 316 316 316 316 316 316 315 313 310 310 313 316 322 328 325 318 314
338 341 339 336 335 331 328 325 322 319 317 317 319 323 323 324 324 324 324 322 320 319 318 319 319 318 317 317 317 317 317 316 316 315 314 313 311 312 315 319 322 316 311
338 340 335 332 329 327 323 319 316 316 318 321 324 325 324 325 325 324 323 321 319 318 319 319 319 319 319 319 318 318 318 317 317 316 315 314 313 313 312 313 316 316 313
326 329 326 324 321 320 317 316 317 320 322 326 327 326 326 326 325 321 319 318 318 318 319 319 319 318 319 319 318 318 318 318 318 318 317 315 313 313 312 316 317 318 318
327 326 324 322 318 317 316 319 321 325 325 326 327 325 325 325 322 320 319 318 319 319 318 317 317 318 319 319 317 316 315 315 316 316 317 317 316 313 312 313 317 319 319
327 327 326 324 321 321 319 323 325 326 327 328 328 327 326 326 323 320 319 319 317 315 314 313 313 314 316 316 314 313 311 308 307 308 311 313 315 315 314 313 313 317 318
327 327 328 326 324 323 325 324 325 327 328 329 329 329 329 325 323 320 319 313 311 311 311 311 311 312 311 310 309 308 306 304 303 302 305 307 310 311 314 314 314 313 313
328 329 328 328 327 324 325 324 325 327 327 328 329 330 326 321 319 313 312 311 310 309 309 309 308 307 306 305 304 304 303 302 301 300 302 308 310 311 312 314 315 315 314
325 327 327 327 326 325 325 324 324 320 325 322 319 316 315 314 312 311 310 309 308 308 307 306 304 304 303 302 301 301 301 301 299 301 307 307 308 309 307 305 307 311 312
325 327 327 326 324 322 321 324 322 314 313 313 314 312 312 311 310 310 309 308 307 306 304 303 302 301 301 300 299 300 299 299 301 305 305 306 304 303 303 302 302 302 302
328 329 327 326 324 322 321 318 310 312 312 312 311 310 310 310 309 307 306 306 305 305 303 302 300 299 299 299 297 298 296 300 301 305 303 303 302 302 302 301 300 299 299
327 327 326 325 322 314 312 314 313 313 311 310 309 308 307 306 306 305 304 303 302 301 300 299 298 298 298 300 300 298 297 302 300 301 301 300 300 299 298 298 297 296 297
325 325 318 316 314 314 315 315 314 312 310 308 306 305 304 303 302 302 300 299 299 298 298 298 297 296 299 300 301 301 300 300 301 298 299 297 298 296 297 296 295 295 295
314 314 313 312 312 311 310 310 310 310 310 308 306 304 303 302 301 300 300 301 300 298 298 298 297 296 298 298 299 299 298 298 297 298 296 297 295 296 296 294 293 294 295
310 310 311 311 311 310 310 310 310 309 308 305 304 301 302 302 302 303 303 302 300 299 298 297 297 297 297 296 296 296 294 294 295 296 296 294 294 295 293 294 294 295 294
310 311 310 310 310 309 309 308 308 307 304 303 302 304 304 303 302 302 302 301 300 299 298 297 296 296 294 292 292 292 293 292 294 293 293 292 292 292 293 291 291 294 294
310 310 310 310 309 308 307 306 305 305 304 303 303 303 303 302 302 301 301 300 299 297 296 295 293 291 290 289 288 289 290 291 291 292 290 290 290 291 288 290 291 290 293

GFSSE_925_thetae_003.txt.gz
Theta_e
341 342 338 335 330 330 331 332 333 333 332 329 328 328 330 331 329 325 322 316 311 313 322 324 322 321 320 322 323 325 326 327 329 330 329 328 328 328 330 328 327 331 327
341 341 338 335 332 332 332 332 333 334 332 331 331 333 332 328 324 319 314 312 320 328 326 321 315 313 313 315 316 319 321 323 324 327 329 328 327 327 328 329 325 328 325
342 341 338 335 333 333 333 333 333 334 333 333 333 331 326 322 318 314 312 317 323 324 321 315 310 309 308 308 308 309 311 315 318 322 325 329 329 326 326 327 328 326 325
341 341 338 335 335 334 333 333 334 334 333 333 331 326 322 319 316 312 312 312 311 310 309 308 308 308 308 308 308 308 310 310 312 315 323 326 330 327 327 327 326 327 325
341 340 337 336 336 335 334 334 335 335 333 331 326 322 320 318 317 311 309 309 308 307 308 310 310 309 309 312 314 314 315 314 313 316 320 324 329 329 326 325 328 327 326
339 339 338 337 336 335 335 336 336 334 332 328 323 320 319 317 316 309 307 306 310 315 316 316 315 315 315 314 312 311 313 314 315 320 322 324 327 327 325 325 326 325 326
338 339 338 337 336 336 337 337 335 333 331 325 320 319 316 315 310 309 310 313 315 316 316 316 316 316 315 316 316 313 310 310 314 320 321 321 321 324 324 326 325 326 326
339 338 337 336 336 337 337 335 334 332 326 320 320 317 314 312 314 317 317 317 317 318 317 317 316 316 316 316 316 316 316 315 312 312 311 316 318 319 323 329 324 323 321
338 338 338 338 337 337 335 335 334 329 323 320 319 317 315 317 319 319 319 319 318 318 317 316 316 316 315 316 315 315 315 315 315 315 314 314 311 315 324 328 325 321 318
338 338 339 337 336 336 336 335 332 326 321 320 317 319 319 321 321 321 320 319 318 317 317 317 317 317 317 317 317 317 317 315 316 316 316 315 313 313 320 319 321 321 318
337 337 336 338 337 337 336 333 330 325 320 318 317 321 323 323 323 323 322 320 318 317 317 318 318 319 319 318 319 318 318 319 317 319 318 316 314 313 315 315 315 313 313
336 336 335 336 338 338 334 331 327 322 319 317 320 322 323 324 325 325 324 321 319 318 318 319 319 319 319 320 320 318 317 317 318 318 318 317 317 314 317 319 317 316 315
335 334 335 337 335 333 329 326 321 319 319 322 324 325 325 326 326 324 320 318 318 318 319 318 317 319 319 319 318 315 314 314 314 314 315 316 316 317 315 315 319 321 320
334 332 332 330 326 323 321 319 320 321 322 324 327 326 326 327 325 320 318 318 318 318 315 313 312 313 315 316 314 312 310 308 306 307 308 307 310 313 315 315 315 320 320
331 329 327 325 322 321 320 321 323 324 325 326 327 328 327 327 324 319 318 316 313 311 311 310 310 310 312 311 309 308 305 303 303 305 307 303 305 307 309 312 313 314 318
327 328 325 324 322 323 325 325 325 324 324 327 326 326 325 324 321 317 311 311 311 311 309 309 308 308 307 306 304 303 302 302 302 302 306 305 303 305 308 311 312 314 316
326 326 325 324 322 324 323 321 320 320 320 322 326 326 324 318 311 310 312 313 310 308 307 307 306 304 304 303 303 302 302 301 300 301 304 304 305 306 307 308 308 306 308
326 326 325 323 323 322 321 321 321 322 321 321 321 318 315 312 312 311 309 309 307 306 305 305 303 303 303 302 301 303 302 302 303 306 305 305 305 305 306 306 306 304 303
326 327 325 322 321 319 322 322 319 320 316 314 312 309 308 309 309 308 307 306 305 304 304 302 301 300 302 301 300 301 300 301 305 306 305 304 304 304 303 303 303 303 302
327 325 324 323 321 323 321 321 315 309 309 308 307 307 307 307 307 306 305 304 303 302 301 300 299 300 301 301 299 301 300 301 306 305 304 303 302 302 301 301 301 300 298
326 325 324 323 323 322 319 311 311 311 309 307 307 308 307 305 304 303 301 300 299 299 300 299 298 299 300 300 300 299 299 303 303 302 301 301 300 299 299 299 299 298 298
327 327 325 324 321 315 312 313 313 311 309 307 306 305 304 302 301 300 302 303 303 302 300 299 298 299 300 299 298 298 300 299 299 301 298 298 298 298 298 297 297 296 296
324 324 323 319 312 312 311 309 309 308 308 306 304 303 302 302 303 303 302 302 302 302 301 299 299 299 299 299 298 297 298 298 297 296 296 296 296 294 295 294 294 294 295
313 313 312 310 309 308 308 307 307 307 306 304 302 303 304 303 302 302 301 301 302 300 300 299 298 297 296 295 295 295 294 295 295 294 293 293 293 291 291 293 291 292 294
308 308 308 308 307 306 306 306 305 303 303 303 303 303 303 303 301 301 301 301 301 299 298 297 296 294 293 292 291 291 291 290 291 291 291 290 290 289 290 289 290 290 291
308 307 308 308 305 304 303 301 301 301 301 301 301 301 302 301 301 301 300 300 300 299 297 294 291 291 290 290 289 289 289 289 289 290 290 289 289 288 288 288 288 288 288

GFSSE_925_thetae_006.txt.gz
Theta_e
343 342 336 331 329 331 331 331 330 329 327 327 327 328 330 330 326 323 318 316 316 321 324 320 317 318 317 317 317 318 321 322 324 326 327 328 328 328 329 328 329 331 325
343 342 336 331 330 332 332 332 332 331 330 329 331 332 330 325 321 316 313 315 321 326 322 312 310 309 308 308 308 308 310 313 316 321 325 328 329 327 329 328 327 328 325
343 342 338 331 331 332 332 333 333 333 331 332 332 329 324 320 315 312 313 315 319 324 321 312 308 308 308 309 311 312 312 311 310 315 325 328 329 328 328 328 326 327 325
343 342 339 332 332 332 332 334 334 333 332 333 329 324 320 317 314 312 314 314 314 311 309 309 308 309 312 313 313 314 313 313 315 318 320 327 330 329 326 326 327 326 325
343 341 340 334 333 333 334 334 335 334 333 330 325 321 318 317 313 310 310 309 310 313 314 315 315 315 313 311 310 310 311 313 319 321 321 324 327 329 325 324 328 329 325
342 342 337 335 335 334 334 335 335 333 332 328 322 320 318 317 311 308 307 312 316 316 316 315 315 314 316 315 314 313 311 311 318 319 321 323 326 330 331 325 326 325 325
339 341 336 336 335 335 335 336 335 333 332 326 321 319 317 314 308 309 312 316 316 316 315 315 315 316 317 316 316 315 315 316 315 315 315 319 322 326 332 326 324 326 325
340 340 338 336 336 336 336 336 334 333 330 323 321 318 316 311 315 315 316 317 318 317 316 316 316 316 316 316 316 315 314 315 317 316 315 316 312 323 329 330 324 322 318
340 340 338 337 337 336 336 335 334 331 326 322 320 316 313 317 319 318 318 318 318 317 317 317 317 317 317 317 317 317 317 316 319 318 316 316 313 319 324 328 326 322 317
340 340 339 338 338 337 337 332 333 329 324 322 319 318 318 321 320 320 320 319 318 317 317 317 317 317 318 318 318 318 317 319 319 318 318 317 315 315 323 321 318 319 314
339 338 337 337 336 336 336 333 330 326 322 319 321 322 324 326 326 325 321 318 317 317 318 318 319 318 318 323 322 318 317 317 318 317 317 317 316 316 315 321 318 317 318
338 338 337 336 335 335 333 332 330 327 326 326 327 329 327 330 328 327 323 318 317 318 319 319 318 320 322 320 319 317 316 317 316 316 316 315 315 316 317 317 319 320 319
335 336 336 333 332 333 330 328 325 324 326 327 330 330 330 330 329 327 325 325 325 321 322 319 319 318 319 318 316 316 315 313 312 312 313 307 309 311 313 315 318 321 322
333 334 333 331 331 330 326 325 326 326 328 329 330 331 330 328 325 326 323 323 323 321 318 317 317 317 316 315 315 314 312 311 310 311 312 309 304 306 308 310 312 318 319
330 331 330 328 328 326 327 327 328 329 330 331 331 331 326 324 321 325 323 320 318 317 316 316 315 314 312 311 311 311 310 309 309 310 311 310 305 303 304 306 309 312 317
329 329 328 326 326 329 329 330 326 324 323 323 329 327 324 320 318 319 319 316 316 315 314 313 311 310 309 309 308 309 308 308 307 309 309 310 307 305 304 304 306 307 310
329 328 327 327 329 327 325 325 322 322 321 321 323 324 325 322 321 316 315 316 314 312 311 310 309 309 309 308 308 307 307 307 306 309 309 308 307 307 305 306 306 306 306
329 328 326 327 326 321 321 320 320 320 320 320 318 319 318 316 311 312 313 311 308 308 309 309 308 308 307 307 306 306 306 305 305 309 308 308 307 307 307 306 304 304 304
329 328 328 326 322 320 320 321 321 317 315 314 312 310 309 308 307 309 310 309 309 308 308 307 306 305 305 305 305 304 304 305 305 306 307 307 307 306 306 305 303 302 301
330 329 327 325 322 324 324 321 317 314 312 311 309 309 309 309 309 310 310 309 307 306 306 305 305 305 305 305 304 304 305 303 303 305 306 305 304 303 303 303 302 302 300
330 329 327 326 325 325 322 321 318 317 314 310 309 308 308 307 307 307 307 307 307 307 307 306 305 304 304 304 302 302 301 300 302 303 303 301 301 302 300 300 299 299 298
328 327 327 326 325 321 320 318 318 317 313 309 308 307 307 306 306 306 307 307 306 306 306 306 304 302 302 302 302 300 301 300 299 301 300 299 299 299 297 297 296 296 295
329 328 327 324 319 317 316 315 313 312 311 311 309 308 307 306 306 305 306 305 305 305 304 304 303 302 301 300 299 299 300 300 297 297 298 296 297 295 295 294 294 293 293
329 326 321 317 315 312 311 312 312 311 311 308 307 307 307 306 306 305 305 304 304 303 302 303 301 300 298 298 297 296 296 296 298 297 295 295 293 293 292 292 293 291 291
317 316 314 312 310 310 310 310 310 309 307 307 306 305 305 304 304 303 303 302 302 301 302 302 300 298 297 296 296 295 295 294 293 293 294 293 292 292 291 291 290 291 291
313 312 311 310 309 308 308 307 307 306 304 302 299 299 297 296 296 297 298 301 302 302 302 300 297 297 295 294 293 292 292 292 292 291 293 292 291 291 291 290 290 290 290

GFSSE_925_thetae_009.txt.gz
Theta_e
343 339 331 330 328 327 327 326 327 326 325 326 328 330 330 327 323 318 318 320 326 329 328 323 316 311 309 308 308 310 311 313 317 323 325 326 328 327 328 327 328 330 325
343 339 331 330 330 330 329 329 328 327 328 330 332 330 326 322 317 317 317 318 319 325 322 318 310 308 310 312 313 313 311 310 311 323 326 330 328 327 328 328 326 328 325
343 340 335 330 331 332 331 331 330 330 331 332 330 326 321 316 314 315 314 313 313 320 321 318 311 312 313 312 313 312 312 313 315 320 324 329 333 327 328 327 326 326 326
343 340 336 331 332 332 332 332 332 332 333 331 326 321 318 315 313 312 312 311 312 319 321 317 313 312 311 310 310 310 311 318 320 322 323 323 332 327 326 325 326 327 326
342 340 337 332 332 332 333 334 334 333 332 327 323 320 317 314 311 311 311 313 318 319 318 316 314 314 314 314 314 313 311 317 319 322 323 323 327 330 328 323 329 329 324
342 340 335 332 333 333 334 334 334 333 330 325 322 319 318 314 310 309 313 317 317 317 316 315 316 317 317 316 315 314 313 316 318 316 318 324 326 331 332 325 326 326 325
339 339 334 333 333 334 335 335 333 333 329 323 322 318 317 309 308 311 315 316 315 315 316 317 317 317 316 316 316 315 314 316 320 318 317 321 322 328 332 326 323 321 319
337 337 335 336 335 335 335 334 333 333 327 322 320 316 312 314 315 315 316 316 316 316 316 316 317 316 316 317 317 317 316 319 321 319 318 319 313 324 327 328 323 322 319
331 338 336 337 336 335 334 334 333 329 323 321 316 313 315 318 318 317 317 317 317 317 317 317 318 318 317 317 318 316 317 319 321 319 319 319 314 321 324 325 326 319 314
337 338 339 338 338 337 335 334 331 325 320 319 318 316 320 319 318 317 323 318 317 317 318 318 318 318 318 319 321 317 317 317 317 318 320 318 315 315 321 323 322 318 316
339 339 338 337 336 335 334 328 325 321 318 317 322 321 327 328 327 326 322 318 317 317 318 318 318 318 319 323 322 317 317 316 316 316 318 316 315 315 318 319 320 321 321
338 337 337 337 336 335 332 330 328 325 325 326 329 328 327 328 325 322 323 317 317 318 319 318 317 319 321 319 318 317 316 315 314 313 315 313 311 312 317 316 319 319 322
336 336 335 335 334 332 329 326 323 323 326 328 330 329 330 328 329 327 326 325 326 324 323 321 320 320 320 318 317 316 315 314 312 312 314 312 311 311 319 320 316 316 318
335 335 332 331 330 329 325 324 324 327 328 328 330 330 330 328 328 326 326 325 323 323 321 320 320 319 317 314 314 313 312 311 311 311 313 312 311 307 314 316 316 316 313
331 330 329 329 328 328 326 328 329 331 331 332 332 330 330 328 323 321 321 318 321 321 320 319 318 315 313 312 311 311 311 310 310 309 310 311 310 308 305 309 313 313 311
330 330 328 326 327 330 331 331 328 327 327 327 329 331 328 326 323 322 322 321 319 319 318 316 313 312 311 310 309 309 309 309 309 309 309 311 310 308 307 306 305 308 310
329 328 328 330 331 330 328 326 324 324 322 325 327 329 330 328 326 321 319 315 317 314 312 311 311 310 310 309 309 309 308 308 308 308 309 310 309 308 307 306 306 305 305
329 328 329 330 329 327 325 322 320 322 322 322 320 321 320 318 315 312 316 315 312 310 310 310 309 309 309 309 308 308 307 306 307 307 307 308 309 308 308 306 305 304 303
330 329 328 329 328 327 321 325 323 320 318 316 314 314 313 313 313 314 313 313 312 311 310 310 309 309 309 308 308 307 306 305 306 306 304 306 308 307 307 304 304 303 302
330 329 329 328 326 325 327 323 320 318 316 315 313 313 313 312 312 313 312 311 310 310 310 310 310 309 308 308 306 306 304 303 302 302 304 305 305 304 304 303 302 301 300
331 330 330 328 327 328 325 322 320 319 317 314 313 312 311 311 310 310 310 310 310 310 309 309 309 308 307 304 303 303 302 302 302 301 302 303 303 301 301 301 299 299 298
331 331 330 329 328 324 322 320 320 319 316 313 312 311 310 310 310 309 309 309 309 308 307 307 307 306 303 302 302 302 302 300 299 299 298 298 299 299 299 298 297 296 296
331 330 329 327 324 321 320 318 316 315 314 314 313 311 310 310 309 308 307 307 307 306 304 303 303 304 302 301 300 300 300 300 298 297 297 297 297 297 297 295 295 294 294
330 329 326 323 320 318 315 315 316 315 314 312 311 310 309 307 306 304 303 303 303 304 303 302 303 302 301 300 299 299 298 297 298 298 295 295 295 295 295 294 293 293 292
328 326 322 319 315 314 314 314 313 312 311 309 306 303 301 300 299 298 298 298 299 302 303 303 303 302 300 299 298 297 296 295 294 295 295 294 294 293 293 293 292 292 292
323 320 317 314 313 313 313 312 311 307 304 303 301 299 298 298 298 298 298 298 299 300 302 302 302 300 299 298 296 295 294 294 293 293 294 293 294 293 292 292 292 291 291

GFSSE_925_thetae_012.txt.gz
Theta_e
339 333 332 332 335 336 333 327 326 325 325 328 330 330 326 321 318 318 319 320 319 324 323 321 319 316 312 312 312 311 309 309 318 323 326 330 329 327 325 325 329 325 324
339 332 330 328 328 327 327 326 325 326 329 332 331 326 321 318 317 318 318 318 321 323 321 320 321 319 312 312 311 311 312 313 321 322 326 331 330 328 326 326 325 325 325
338 331 329 328 328 328 328 327 328 331 333 331 326 321 317 316 316 316 315 316 319 323 321 321 317 311 310 310 310 311 319 320 320 322 323 332 331 331 325 326 326 326 330
338 335 331 330 330 330 330 330 331 334 332 326 322 318 315 314 314 313 313 317 322 325 324 321 315 314 314 313 312 313 315 316 318 323 323 330 332 329 324 330 329 325 330
338 336 335 332 332 332 332 333 333 332 327 323 319 317 314 311 311 309 316 319 323 324 320 316 315 315 314 314 313 313 316 319 319 321 323 323 322 332 325 324 327 325 324
340 337 332 332 333 334 334 333 333 329 324 321 317 316 312 308 307 314 315 316 316 315 315 315 315 315 315 315 314 317 317 320 321 320 321 319 312 331 331 324 324 323 321
338 333 332 333 333 334 334 333 332 327 322 319 316 315 309 307 311 315 315 315 315 315 316 316 316 316 317 316 314 316 318 320 321 320 319 314 312 319 329 326 323 321 318
335 335 333 333 334 335 333 332 331 325 320 318 314 312 310 313 315 315 316 315 316 316 316 317 317 317 317 317 317 315 318 317 317 319 319 314 314 317 324 326 321 320 316
329 334 329 332 335 335 334 332 330 322 318 316 313 312 316 317 316 316 316 316 316 317 317 317 317 317 316 319 320 316 317 316 316 320 321 316 315 315 323 324 320 318 315
333 335 333 333 334 334 334 331 325 319 318 316 313 317 317 317 316 323 326 316 315 316 317 317 317 316 317 319 322 317 317 316 315 317 317 314 314 315 320 320 321 320 319
327 330 334 331 333 333 330 327 322 317 315 318 318 326 327 328 327 328 322 315 315 315 316 317 317 319 320 321 321 318 317 315 314 313 315 313 312 312 321 319 318 318 319
332 333 334 333 333 331 329 327 320 320 326 326 328 328 329 329 324 322 325 322 323 325 321 323 320 320 320 319 317 316 315 314 312 312 313 312 312 311 319 322 320 316 317
334 335 334 332 333 332 329 326 325 326 327 330 329 330 328 329 328 327 326 328 326 324 323 321 321 320 318 316 315 313 313 312 311 311 311 313 311 310 314 318 318 318 310
335 335 335 333 329 327 325 324 324 327 328 329 330 329 329 329 328 326 326 324 322 321 320 321 320 316 313 313 311 311 311 310 310 310 310 311 311 310 307 309 314 314 314
332 330 330 330 326 325 325 329 329 331 331 331 332 330 330 328 324 321 320 320 321 319 319 317 314 313 311 311 310 310 309 309 309 309 309 310 311 309 307 311 312 312 312
329 330 329 328 328 328 331 330 327 328 327 324 329 330 329 327 325 323 323 320 318 318 314 312 311 311 310 310 310 309 309 308 307 309 308 308 310 309 308 307 307 307 308
330 329 326 328 332 332 329 326 326 321 324 327 328 330 330 327 326 322 316 316 316 316 311 310 310 310 310 309 309 309 309 308 307 307 307 307 308 310 308 307 305 304 304
328 328 329 331 330 329 327 323 321 324 324 321 321 320 320 317 315 316 315 314 313 312 311 311 310 310 309 310 309 308 308 307 305 305 307 304 304 308 308 307 304 303 302
328 329 331 330 328 324 323 323 325 322 318 315 315 314 314 314 314 314 314 314 312 311 310 311 310 310 310 309 309 306 306 305 304 302 302 302 304 306 304 305 303 302 302
329 329 331 330 329 323 326 323 322 318 317 315 314 314 313 312 312 312 312 311 311 311 310 309 309 310 309 308 304 303 304 303 301 301 301 300 300 302 301 301 301 300 298
330 329 330 329 327 325 326 321 319 317 316 314 313 312 311 311 310 310 310 310 310 309 308 307 307 307 307 305 303 302 302 301 300 300 298 298 298 299 299 299 297 296 296
331 331 330 328 328 328 324 322 321 318 315 313 313 311 311 311 310 309 309 308 307 307 307 306 304 304 305 304 301 301 299 300 300 298 298 297 297 296 297 296 296 295 294
332 332 330 329 328 323 321 320 317 315 314 314 313 312 311 310 308 307 304 303 303 304 305 304 303 304 303 302 301 300 299 298 298 297 296 296 295 295 295 295 294 294 293
332 331 330 328 322 320 318 317 315 315 313 312 311 308 306 302 301 299 298 298 298 299 301 303 303 303 303 301 300 299 298 297 295 295 295 294 294 293 294 294 293 292 292
330 330 327 322 318 316 316 316 314 312 311 308 303 302 300 299 298 298 298 299 299 299 299 301 303 303 301 300 298 297 296 295 294 294 292 293 293 293 293 293 292 291 292
330 326 321 318 315 315 315 313 311 307 304 303 301 300 299 299 298 298 298 299 300 300 301 303 302 300 299 299 297 296 295 294 294 293 292 292 292 292 292 292 291 291 291

GFSSE_925_thetae_015.txt.gz
Theta_e
337 337 339 339 338 337 331 327 326 326 328 330 328 321 318 316 316 317 317 317 317 319 322 321 314 310 309 310 310 312 314 319 322 324 329 330 328 327 326 325 325 325 325
335 335 338 338 337 333 327 326 326 329 330 328 322 318 317 316 315 316 314 313 314 320 322 318 312 311 311 311 316 319 319 318 318 322 330 330 330 331 327 326 326 329 328
331 332 334 334 331 327 327 328 330 332 329 323 318 316 314 313 313 312 312 314 317 323 323 321 314 312 312 312 314 315 317 320 322 330 331 332 329 327 330 327 325 327 330
331 333 330 327 327 327 328 330 333 330 324 319 315 314 312 311 311 313 317 319 322 325 325 321 314 313 313 315 314 317 320 321 322 326 328 324 328 324 326 327 325 327 326
336 331 329 328 329 329 331 334 331 326 321 317 315 312 310 309 312 317 318 319 322 322 318 314 314 314 313 316 318 319 320 320 323 322 320 312 314 328 326 323 323 322 321
335 330 331 331 331 332 333 332 327 322 318 315 314 310 308 309 314 315 315 315 317 316 315 315 315 314 315 315 317 317 317 317 320 316 313 312 313 327 328 323 322 320 316
335 333 333 333 334 333 332 330 324 319 317 314 313 308 307 314 314 313 313 314 314 314 315 316 316 316 319 317 316 317 316 315 319 317 315 314 315 318 323 323 320 318 314
333 333 333 334 334 333 332 327 321 318 316 312 311 308 312 314 314 314 314 314 314 315 316 316 316 316 317 320 316 316 316 314 319 319 316 315 316 319 317 317 317 317 316
332 332 331 334 326 327 331 327 319 317 314 310 310 314 315 314 313 314 314 314 315 315 316 316 315 316 318 321 317 317 315 314 317 316 314 313 314 314 315 318 320 319 319
330 327 328 329 332 331 331 324 318 316 312 311 315 315 315 315 318 320 316 314 314 315 315 315 317 319 320 318 321 318 315 314 313 314 312 312 313 313 312 313 317 320 320
329 323 322 323 330 330 327 321 315 314 314 317 320 324 324 320 327 323 317 314 315 318 318 320 320 320 320 318 316 316 315 313 312 312 312 311 313 320 312 311 313 315 318
328 322 323 324 332 329 323 317 315 318 318 322 327 328 329 327 327 323 324 318 322 324 323 321 321 320 318 315 315 313 313 312 311 310 310 312 311 316 318 310 309 310 308
330 330 328 330 328 327 322 318 325 327 329 328 329 329 329 328 328 327 327 325 322 322 321 320 318 314 312 312 311 310 310 310 309 309 309 309 310 312 315 315 315 315 312
332 331 330 332 329 326 324 326 325 327 328 328 330 328 327 329 326 325 324 322 320 319 319 317 314 312 311 310 310 310 309 309 308 309 309 309 310 310 312 314 314 314 313
334 332 332 332 330 328 327 326 329 330 330 331 331 330 329 327 323 321 321 320 318 317 316 314 312 311 310 310 310 309 309 308 307 307 308 308 307 308 309 313 313 312 310
334 332 329 325 325 329 329 329 329 328 327 323 327 327 327 325 324 322 320 317 316 315 312 310 310 310 310 309 309 309 308 308 307 306 305 307 306 308 308 310 309 308 307
329 329 328 328 330 330 329 327 326 324 322 326 329 328 328 327 322 318 316 315 314 311 311 311 310 310 309 309 309 309 308 307 306 305 304 301 303 304 308 306 304 305 305
328 327 326 331 330 329 327 325 320 323 325 324 322 321 318 316 316 314 313 312 311 311 311 311 310 310 309 308 308 306 304 304 304 303 302 302 303 306 307 305 303 302 303
327 326 330 331 329 327 323 323 324 321 316 314 313 313 312 312 313 314 313 311 311 311 310 309 309 308 308 309 306 304 303 303 302 301 299 299 298 298 302 303 300 301 299
327 329 331 329 327 324 324 323 319 315 315 314 313 314 312 311 311 311 311 311 310 309 309 308 306 307 306 305 304 302 301 300 301 299 298 297 297 297 297 297 296 296 296
329 331 330 328 323 325 323 320 318 316 314 313 313 312 311 310 310 310 309 309 308 308 307 306 305 303 302 304 303 300 300 300 299 298 297 297 296 295 295 295 296 295 294
329 330 330 329 327 326 322 319 317 315 314 313 312 311 310 310 309 308 306 305 304 304 304 305 304 303 303 303 301 299 297 298 297 297 296 296 294 294 294 294 294 294 293
329 329 329 328 326 325 326 320 318 314 313 312 311 311 309 306 305 302 299 298 298 298 300 301 303 303 303 302 300 299 296 295 295 296 295 294 293 293 292 293 293 292 292
329 329 329 328 328 324 320 318 315 313 313 312 309 304 303 302 301 299 298 298 298 298 298 298 301 303 302 300 299 297 296 295 292 291 293 293 293 292 292 292 292 291 291
331 331 330 327 320 319 317 315 315 313 309 304 304 302 301 299 298 298 298 298 297 299 301 302 302 302 300 299 298 297 297 295 293 292 290 291 292 292 292 292 291 291 291
331 330 325 320 316 316 315 313 313 310 306 305 301 300 299 299 298 298 298 297 299 300 302 301 300 299 299 298 297 296 295 293 293 292 290 291 291 291 291 290 291 291 290

GFSSE_925_thetae_018.txt.gz
Theta_e
342 339 339 338 337 331 327 327 327 329 328 322 317 314 311 310 311 313 317 320 323 323 321 313 313 315 316 317 316 317 319 319 321 330 329 328 332 333 326 327 327 327 328
341 339 339 337 336 328 327 327 329 329 324 319 315 313 311 311 312 313 316 319 318 322 319 313 312 313 314 315 319 321 320 324 327 331 329 323 331 333 329 326 327 330 327
341 340 339 337 333 327 327 329 330 327 320 317 315 313 311 311 311 313 315 316 319 319 313 313 315 316 316 318 318 321 322 326 328 328 324 320 322 329 329 325 329 328 331
339 340 339 336 328 327 329 331 329 323 318 315 314 312 310 310 314 315 314 315 315 315 313 312 313 316 317 317 317 320 323 327 329 325 317 314 316 319 321 323 323 321 321
338 338 336 329 327 329 332 331 325 319 316 315 312 310 309 313 316 315 313 315 314 314 314 314 317 315 317 317 316 315 319 321 318 313 315 315 318 321 318 321 320 318 314
335 335 330 328 328 331 332 327 320 316 315 313 311 309 312 315 315 315 314 314 314 314 314 315 319 317 316 317 317 314 316 319 314 315 315 316 321 326 315 313 315 313 312
335 330 329 329 331 332 330 323 319 316 315 311 309 309 313 312 312 312 313 313 314 315 315 315 317 320 316 317 316 314 314 318 318 316 315 316 320 323 321 315 316 315 314
333 332 332 333 333 332 326 321 318 315 313 309 307 312 312 312 312 313 313 314 315 316 315 315 316 319 319 318 317 314 313 317 318 315 315 317 319 322 323 319 318 320 321
333 333 327 325 324 323 325 319 316 313 311 308 310 313 313 313 313 314 314 315 315 315 314 315 319 320 319 320 316 315 314 312 316 312 312 318 320 323 322 317 319 322 321
332 328 322 321 321 323 327 320 316 312 309 312 314 314 314 314 314 314 313 314 315 315 319 319 319 320 319 317 316 315 314 312 311 311 311 314 320 322 320 314 313 316 320
328 328 322 323 326 328 325 318 315 311 313 316 316 315 323 324 321 316 315 315 317 317 321 320 320 319 316 314 314 313 312 311 310 310 311 311 312 319 319 313 308 307 309
324 327 327 325 323 330 322 317 315 313 316 319 323 323 325 326 324 322 318 319 324 323 322 321 321 317 314 312 311 310 310 310 309 309 309 309 310 315 317 315 310 306 305
321 323 324 326 328 328 320 316 316 317 324 327 327 328 325 325 326 325 326 320 322 320 319 315 313 312 311 310 310 309 309 308 308 308 309 309 309 311 314 315 316 314 309
323 323 324 330 330 325 317 320 325 325 327 329 329 328 327 326 325 323 322 320 318 317 316 314 313 311 310 310 309 309 308 308 306 307 308 308 308 308 313 315 315 314 311
330 325 328 330 328 323 319 324 327 329 329 329 329 328 328 326 322 320 319 317 315 314 314 312 310 309 309 309 308 308 308 308 307 305 304 304 304 307 312 315 313 311 310
331 330 329 330 329 326 326 326 327 329 330 330 329 329 327 324 321 320 319 317 315 312 311 310 310 310 309 309 309 308 307 306 305 305 303 303 302 306 309 312 309 308 308
332 331 332 331 330 327 327 329 330 331 328 326 327 327 326 326 324 320 316 312 311 311 311 310 310 309 309 308 307 307 305 304 303 303 302 302 304 308 309 307 305 306 306
332 330 327 328 328 329 328 325 324 325 325 327 328 327 324 319 317 315 312 311 310 310 310 310 309 309 308 308 307 306 305 303 300 299 299 297 298 304 306 305 305 304 303
331 329 329 329 328 328 325 321 321 324 322 320 318 316 315 314 313 313 312 311 310 310 309 308 307 306 306 307 305 304 303 301 299 298 297 297 296 297 300 302 298 297 297
329 328 329 329 327 325 322 323 321 316 313 313 312 312 312 312 312 312 311 310 310 309 308 307 306 305 303 303 303 302 301 300 298 297 297 296 295 295 294 295 295 295 295
326 327 330 329 325 323 324 318 314 314 313 313 313 312 310 310 310 310 310 309 308 306 305 304 304 303 302 303 302 301 300 299 298 297 296 294 294 293 293 293 293 294 293
325 328 330 328 324 324 322 317 315 314 313 313 312 311 310 310 309 309 307 306 304 303 303 303 303 303 303 302 300 298 296 298 297 296 295 294 293 293 293 292 292 291 291
328 330 329 326 323 324 322 317 315 313 312 311 311 310 310 310 308 307 303 300 298 298 297 298 301 303 303 299 299 299 295 294 293 295 293 293 293 293 292 292 292 291 291
329 330 330 328 324 325 322 318 316 313 312 311 311 310 307 305 303 300 299 298 298 297 299 300 300 301 302 300 298 297 296 295 291 290 293 293 292 292 291 291 291 291 291
329 329 329 329 328 324 324 319 316 313 312 311 307 302 301 299 298 298 298 297 297 298 301 301 301 300 299 298 297 297 296 294 292 290 289 291 291 291 290 290 290 290 290
328 329 328 328 327 326 324 321 317 314 312 306 301 301 299 298 298 298 297 296 298 299 301 300 300 298 297 297 297 296 294 293 293 291 288 289 289 290 290 290 290 289 289

GFSSE_925_thetae_021.txt.gz
Theta_e
340 338 337 335 330 325 325 326 328 324 318 315 312 309 309 309 309 313 314 315 320 325 326 326 325 323 320 320 320 320 321 327 328 324 324 333 333 332 328 328 329 330 331
341 338 337 335 329 324 325 327 327 322 317 313 310 309 309 308 312 314 314 316 321 325 325 325 324 318 319 320 320 324 326 330 328 317 317 330 331 330 329 328 327 330 331
341 339 337 333 327 326 327 329 325 319 315 313 311 311 310 310 313 313 314 314 316 323 324 323 322 316 318 322 325 325 327 328 323 318 318 319 326 329 327 322 320 322 327
340 339 337 331 327 327 329 328 323 318 315 312 311 310 310 314 314 314 313 313 312 316 322 321 321 316 315 319 323 323 324 317 315 316 316 317 323 326 325 324 321 315 312
341 339 336 331 329 329 330 327 320 315 314 311 311 312 315 315 314 314 313 313 314 318 317 316 317 317 315 314 317 318 317 313 315 315 316 319 319 324 321 313 312 312 312
339 339 334 330 329 330 329 322 317 315 315 312 315 316 318 314 316 315 314 315 314 317 319 316 316 317 316 314 314 318 315 316 316 316 319 323 325 325 321 314 314 314 315
338 337 332 328 329 331 324 318 316 316 313 311 312 316 317 318 318 316 314 314 315 315 317 319 317 317 316 315 314 315 318 317 315 314 315 320 324 325 325 325 317 318 322
334 332 330 331 332 328 321 317 316 314 311 310 312 314 314 316 315 314 314 315 315 315 316 320 319 318 317 316 315 314 315 315 313 312 313 316 320 324 325 325 324 321 320
329 330 328 329 327 323 322 319 315 314 309 310 314 314 313 313 313 313 315 315 314 314 318 320 319 319 320 316 315 314 312 311 311 311 313 320 322 322 322 319 313 316 321
326 325 323 322 324 323 321 318 313 311 308 313 314 314 313 313 314 314 315 315 316 317 318 319 319 317 316 315 314 313 312 311 310 309 310 314 319 320 320 310 309 309 311
323 323 323 323 322 319 320 317 313 310 311 314 314 314 314 315 314 315 315 316 317 319 320 320 319 316 314 313 312 311 311 310 309 309 310 309 313 318 318 314 311 309 309
322 320 319 319 320 323 324 318 313 312 316 315 316 319 323 322 317 316 318 322 322 321 321 321 318 314 313 311 310 309 309 308 308 308 309 309 312 314 317 317 314 314 313
324 321 319 321 326 328 323 319 313 315 317 317 320 325 326 324 323 322 322 322 321 319 317 315 312 311 310 310 309 308 308 307 307 308 309 309 310 312 314 316 316 312 312
328 326 323 323 327 329 324 318 315 318 319 323 327 325 325 326 325 324 320 319 318 315 313 312 311 310 309 309 308 308 308 307 305 305 306 308 307 309 313 315 316 313 311
324 325 323 324 328 329 320 317 317 322 327 328 327 327 326 325 323 321 319 317 315 313 313 311 310 309 309 308 308 308 307 306 305 304 303 303 303 304 311 315 314 311 310
325 324 328 329 329 327 319 319 324 328 329 328 328 327 325 323 321 318 316 315 313 311 310 310 309 309 309 308 307 306 304 303 302 302 302 303 303 309 313 312 309 308 308
324 325 326 329 328 324 319 324 327 329 329 329 328 327 323 321 320 318 315 313 311 311 310 310 309 309 308 307 306 305 303 301 300 299 299 301 306 309 307 306 306 306 306
329 328 328 329 329 328 326 326 327 330 330 329 327 325 324 324 320 316 312 310 310 310 310 309 308 308 307 306 306 304 302 300 298 298 297 297 297 304 305 302 304 302 301
329 329 330 330 330 329 328 330 330 329 327 326 326 326 324 319 314 312 311 310 310 310 309 308 307 305 304 304 303 302 300 299 298 297 296 296 296 296 297 297 296 295 297
330 330 329 330 329 327 325 325 325 325 324 323 321 318 315 314 313 312 311 310 310 308 307 305 304 303 303 302 302 301 299 298 297 297 296 295 294 294 294 294 294 294 295
330 330 328 327 327 324 322 322 322 319 315 314 313 313 312 312 312 311 310 309 307 305 303 303 303 303 302 302 302 301 298 297 296 296 295 294 293 293 292 292 292 292 292
330 327 329 328 326 323 322 322 319 314 313 312 312 310 310 310 310 309 308 306 304 302 300 301 301 302 302 301 301 299 295 297 296 295 294 294 293 293 293 292 291 291 291
326 327 328 328 326 323 322 320 315 313 313 311 310 310 310 309 309 306 303 301 299 298 297 297 298 302 301 299 299 299 294 294 293 295 293 293 293 293 292 291 291 291 290
325 326 327 329 326 324 322 318 315 313 311 310 310 309 308 305 303 301 299 298 297 296 296 298 299 300 301 299 297 297 297 295 291 291 293 292 292 292 291 291 290 289 289
325 326 327 328 326 324 322 319 315 313 312 311 310 307 303 301 299 298 298 297 296 296 298 301 301 300 300 299 297 297 296 295 293 290 289 291 291 291 290 290 290 289 289
325 327 327 327 325 324 323 320 316 315 312 311 309 305 300 299 298 297 297 296 296 298 299 300 299 297 296 296 296 296 295 294 292 291 288 289 289 290 290 290 290 289 288

GFSSE_925_thetae_024.txt.gz
Theta_e
340 338 333 328 326 326 326 325 322 319 316 313 311 313 317 322 313 315 320 325 327 327 327 325 320 319 320 321 322 329 326 317 316 329 329 330 330 331 330 327 328 329 331
339 337 333 327 325 326 326 323 319 316 313 312 312 310 313 313 313 320 324 326 327 327 327 325 321 319 322 322 324 327 322 314 314 317 321 328 329 327 323 320 320 327 329
339 338 333 327 326 327 326 322 317 314 311 311 309 310 313 314 320 322 323 325 325 326 325 322 321 323 324 323 324 323 315 315 315 316 319 325 327 327 326 321 320 321 323
339 338 332 329 328 328 326 322 317 313 312 309 310 313 314 316 318 320 322 325 325 325 325 318 318 321 321 322 322 315 315 316 317 317 319 322 325 324 323 321 320 319 318
338 338 333 334 329 328 326 320 317 312 312 312 312 318 315 318 319 316 319 324 326 326 322 316 315 315 317 318 317 314 316 315 315 315 317 320 323 324 323 320 318 320 322
339 337 334 332 328 329 324 319 315 317 310 313 314 318 323 323 319 315 319 320 322 325 320 316 315 314 314 317 316 317 316 315 314 317 320 323 324 324 325 323 321 323 323
338 336 334 328 328 328 323 318 318 311 311 313 320 321 324 321 315 314 315 318 318 317 318 317 316 315 315 314 317 316 314 313 312 313 315 320 324 324 325 325 321 321 322
336 335 333 330 330 327 320 318 313 316 312 321 323 323 321 316 314 314 315 314 317 319 319 319 317 316 315 315 314 313 311 311 311 311 314 320 322 323 323 323 320 323 323
331 330 332 330 325 320 318 316 316 311 318 318 320 317 314 314 314 315 315 315 317 319 319 319 319 318 316 314 313 312 311 310 310 311 315 319 320 321 320 319 320 320 321
329 328 330 328 320 322 322 321 315 313 316 318 314 313 313 313 315 315 315 316 317 318 319 318 318 316 314 313 312 311 311 310 309 310 310 318 319 319 318 317 316 316 315
322 323 321 319 318 320 320 316 314 317 316 313 313 314 314 314 315 315 316 317 318 319 319 319 316 314 312 311 310 310 310 309 309 309 309 313 315 318 318 316 313 315 315
323 321 321 320 318 317 315 318 313 311 313 314 314 314 315 315 315 316 317 318 320 321 321 317 314 312 311 309 309 308 308 308 308 308 309 310 312 315 318 317 316 316 315
322 323 321 319 320 320 320 318 310 312 315 315 316 320 320 316 316 318 322 322 320 318 315 313 311 311 310 309 308 308 307 306 306 308 308 309 308 313 315 317 316 314 313
321 322 322 321 320 321 326 320 313 316 316 318 323 325 324 323 322 321 322 318 316 313 312 312 311 310 309 308 308 307 306 306 305 304 304 304 305 309 313 317 315 313 311
322 320 320 322 325 328 324 318 313 317 318 321 323 325 325 325 324 318 317 315 314 313 313 311 309 308 308 308 307 306 306 304 304 303 303 303 303 306 312 315 313 311 310
325 322 321 324 327 329 324 318 315 319 323 325 327 326 325 323 322 319 316 315 314 312 310 309 309 309 308 307 306 304 304 303 302 302 301 302 305 309 312 310 309 309 309
326 326 323 322 328 329 323 318 318 323 327 328 327 326 324 322 319 317 316 314 312 311 310 309 309 308 308 306 305 303 302 301 301 300 300 301 307 308 308 307 307 307 306
324 324 324 327 328 328 324 319 324 328 329 328 327 326 323 319 317 317 315 312 310 310 309 309 308 307 306 305 304 302 300 299 298 298 298 298 303 305 304 303 302 299 299
323 324 325 326 328 326 323 321 325 329 329 328 327 326 322 320 318 316 312 310 310 309 308 308 307 305 303 303 302 300 298 297 297 296 296 296 296 295 295 295 295 295 296
327 326 326 328 328 327 326 327 326 328 328 328 326 324 324 320 315 313 311 310 309 309 308 305 303 303 302 302 300 299 297 296 296 295 295 295 294 294 294 293 293 292 293
330 329 328 329 328 329 327 327 327 328 326 325 324 322 319 315 313 311 310 309 308 306 303 303 302 302 301 301 300 298 296 295 295 294 294 294 294 293 292 292 291 291 291
330 330 328 329 330 329 327 327 326 324 322 320 317 314 313 312 311 310 309 307 303 301 299 299 299 301 301 301 300 298 295 296 295 293 293 294 293 293 292 291 291 291 291
330 330 329 328 328 326 325 324 322 319 315 313 312 311 311 310 309 308 305 301 298 297 296 296 297 299 300 298 299 299 295 295 293 294 293 293 293 292 291 291 290 290 289
328 329 328 327 326 325 324 322 320 316 312 312 311 310 309 308 306 303 301 298 297 296 296 297 299 300 301 299 298 298 297 295 293 292 293 293 292 292 291 290 290 290 289
328 328 328 327 326 325 323 321 319 314 313 312 311 309 307 304 301 300 298 297 296 295 296 298 300 300 299 298 298 297 296 295 294 290 289 291 292 292 291 290 290 290 289
326 327 327 326 326 325 323 321 319 316 313 311 309 307 303 301 299 298 297 296 295 297 298 299 299 298 297 296 295 295 295 294 293 291 288 288 289 291 291 290 290 289 289

GFSSE_925_thetae_027.txt.gz
Theta_e
340 337 327 326 326 328 330 329 327 324 320 314 310 310 315 321 321 322 324 326 327 329 328 323 322 322 327 328 320 313 316 321 324 328 329 329 328 327 323 323 328 330 331
340 337 331 326 325 325 324 323 322 318 313 312 312 320 320 322 325 324 325 326 327 328 326 321 322 320 323 321 315 314 313 315 318 320 326 327 327 325 323 317 320 323 326
339 338 335 329 327 325 323 320 317 315 313 310 311 322 322 323 326 326 327 325 325 326 326 323 321 321 322 319 315 315 315 315 316 316 323 322 323 324 323 320 321 323 323
339 337 336 334 333 329 325 327 325 324 312 311 317 317 322 325 327 326 325 322 320 321 322 323 321 322 322 316 316 316 316 315 315 321 321 320 320 323 323 323 323 323 323
338 337 336 333 332 326 324 322 321 315 317 313 318 317 322 324 325 325 323 320 319 318 320 319 318 319 318 315 316 315 314 314 314 321 322 322 322 324 325 325 324 324 323
337 337 334 332 328 326 324 322 318 313 314 318 315 317 321 321 324 324 323 321 319 317 314 314 316 318 316 317 316 313 313 313 319 321 322 323 323 325 325 325 325 325 324
337 334 332 329 328 326 327 321 314 313 314 318 316 319 318 319 321 321 320 320 318 316 315 314 314 316 316 316 314 312 312 311 318 319 320 322 323 323 323 323 324 324 323
337 334 334 330 328 326 327 319 314 316 316 318 317 317 314 317 318 318 318 318 318 317 316 315 315 315 315 314 312 311 310 310 316 318 319 319 321 321 320 321 321 322 322
336 334 331 330 326 321 319 318 318 322 320 317 317 315 314 315 315 315 316 319 319 319 318 316 315 315 313 312 311 310 310 309 316 316 317 317 320 319 318 318 318 318 319
330 330 329 324 318 316 319 323 323 321 319 316 317 316 314 315 316 315 315 318 319 318 319 318 316 314 313 312 311 310 309 309 312 313 315 317 319 318 317 316 317 316 317
326 326 321 317 315 322 323 321 321 320 319 321 317 314 314 317 317 316 316 317 318 319 317 316 314 312 311 311 310 309 308 308 309 312 313 313 316 318 317 316 316 316 316
322 320 318 317 316 315 316 317 317 319 313 314 314 314 315 316 316 316 318 319 320 320 316 314 312 310 310 309 308 308 307 307 308 310 312 310 314 316 318 317 316 315 315
320 319 319 319 317 314 314 315 316 311 315 315 314 315 315 316 316 317 320 321 320 317 314 312 310 310 309 308 308 307 306 306 306 307 308 308 307 313 317 317 315 313 313
321 320 317 317 316 317 317 317 315 317 317 315 316 317 316 316 318 322 321 318 316 314 312 311 311 309 309 308 307 307 306 305 305 305 306 304 305 310 314 317 314 312 311
322 321 319 319 319 319 319 322 316 317 314 316 322 323 323 321 321 321 316 314 314 313 312 311 310 309 308 308 307 307 305 304 304 303 306 303 303 306 315 315 313 311 310
322 322 321 323 323 322 325 321 314 316 316 320 323 324 324 324 322 318 316 315 314 312 311 310 309 309 308 307 306 305 303 303 303 302 303 305 306 311 312 311 310 310 310
322 322 323 323 324 327 326 319 314 317 319 322 324 326 325 323 321 319 316 315 312 311 310 309 309 308 307 306 304 303 303 302 301 300 300 303 306 308 308 308 307 305 305
323 323 323 323 325 328 327 318 316 320 323 326 326 326 324 322 321 317 315 313 311 310 309 309 308 307 306 304 303 301 300 299 299 298 299 303 305 303 304 304 303 300 300
326 325 324 323 323 329 326 319 318 322 327 328 326 325 324 320 317 316 315 312 310 309 309 308 308 305 305 303 301 299 298 297 297 297 297 296 296 296 296 295 294 294 294
326 326 325 325 326 328 326 320 321 325 328 327 327 326 323 319 317 314 312 310 309 308 308 307 303 302 303 302 300 298 297 296 295 296 296 295 295 295 294 293 294 293 292
325 326 326 326 326 328 326 322 323 325 328 327 326 324 322 319 315 312 310 309 309 308 305 303 302 302 301 300 300 299 297 296 295 294 294 294 294 293 293 293 292 292 292
327 327 327 327 327 328 326 325 325 325 326 324 324 322 321 317 313 311 310 309 307 305 301 300 301 302 301 300 302 301 303 299 297 295 294 293 293 293 293 292 291 291 291
328 328 328 327 327 327 327 326 326 325 323 318 317 317 315 313 311 310 309 307 303 299 297 296 298 300 301 299 300 301 302 302 299 296 294 294 293 293 293 292 291 290 290
327 328 328 327 327 328 328 327 325 323 319 315 315 313 312 311 310 309 306 301 299 297 296 297 298 299 300 300 298 298 299 299 300 299 296 295 294 294 293 293 292 291 290
327 327 328 327 326 327 327 325 323 322 319 316 313 311 311 309 308 306 302 299 297 295 297 299 299 299 298 298 299 299 298 296 295 296 296 295 294 293 293 292 292 291 290
327 327 328 327 325 324 325 325 323 321 319 314 311 309 308 306 303 301 299 298 296 296 301 303 300 297 297 297 298 297 296 296 296 295 295 295 294 293 293 292 292 291 290

GFSSE_925_thetae_030.txt.gz
Theta_e
339 336 340 341 342 341 338 333 333 329 326 320 315 317 321 321 322 324 324 326 329 331 333 332 334 335 329 326 321 318 318 323 325 323 326 327 327 326 325 326 327 329 332
339 335 338 341 341 339 336 336 332 327 321 317 320 321 319 321 322 323 325 325 328 331 332 332 334 332 326 315 314 315 316 317 323 326 324 320 325 325 324 322 323 325 328
338 334 335 338 340 338 336 332 326 321 315 315 318 319 320 322 322 325 325 327 331 333 333 332 333 328 316 315 315 314 314 315 320 320 320 319 321 324 324 324 324 324 325
339 336 333 332 332 331 329 325 322 319 320 325 321 321 322 322 322 323 323 327 332 333 333 333 330 317 316 316 314 313 313 317 320 320 320 321 321 325 325 325 325 325 324
339 336 335 330 327 326 323 320 321 324 327 326 326 324 324 322 321 321 323 325 328 329 333 330 319 316 317 314 313 313 314 319 320 321 321 322 322 324 325 325 324 325 324
338 337 334 330 327 324 321 325 326 325 326 326 325 325 323 321 322 321 322 321 322 325 322 319 316 317 316 313 313 312 314 318 319 320 322 322 322 323 324 325 325 324 324
338 337 333 331 329 327 328 326 327 325 320 326 327 325 321 322 323 323 321 317 315 315 316 317 316 316 314 312 311 310 310 315 317 318 320 321 321 322 321 322 323 323 323
338 336 334 331 330 330 330 327 324 323 322 324 322 323 322 324 322 319 318 316 315 315 315 316 316 315 313 311 311 310 310 316 316 317 318 319 320 320 319 319 320 320 320
335 334 332 330 328 327 324 321 322 325 323 322 320 322 322 320 320 318 317 317 316 315 315 315 315 313 312 311 310 310 309 313 315 316 317 318 319 318 317 317 317 318 318
331 330 329 327 323 316 321 321 323 322 325 320 319 319 317 317 317 319 319 319 318 316 316 315 314 313 312 311 310 309 310 313 313 313 315 317 319 318 316 316 317 317 317
324 325 324 321 322 318 318 318 324 326 322 321 317 316 318 321 320 321 322 318 319 319 317 314 314 313 311 310 309 309 311 312 313 312 313 315 319 319 317 317 317 316 316
321 319 319 318 316 317 316 318 328 327 326 323 318 321 324 323 322 322 322 319 318 317 314 313 312 311 313 313 311 310 311 311 311 311 312 311 315 319 318 317 316 315 315
320 318 320 321 320 321 321 323 325 323 319 318 317 320 324 322 322 324 323 321 318 315 313 312 313 314 313 313 311 310 310 309 308 308 309 307 307 314 319 317 315 314 313
320 318 317 316 312 311 311 313 316 316 318 321 316 322 324 322 323 323 322 320 318 317 316 314 315 314 312 311 311 310 309 308 307 308 311 304 305 311 318 316 314 313 311
319 317 314 312 310 311 313 314 318 321 320 319 321 322 322 321 323 322 320 318 317 316 316 316 314 313 312 310 310 309 307 306 306 306 308 303 305 312 316 315 314 312 310
319 318 317 316 315 316 318 320 319 320 319 321 324 325 325 322 322 320 319 318 316 316 316 314 313 312 311 310 309 307 305 305 305 305 306 308 309 311 312 312 311 312 310
322 319 319 321 322 320 323 324 319 321 321 323 327 328 327 323 321 320 319 318 317 316 314 313 312 311 310 308 307 305 304 304 303 305 305 305 306 307 308 309 307 304 304
324 323 323 324 324 324 325 324 320 321 323 326 328 328 326 323 321 320 319 318 316 314 313 313 313 311 309 307 305 304 303 303 303 303 303 303 303 303 303 304 304 302 301
323 323 323 324 325 327 329 325 322 323 326 329 329 328 325 322 321 320 319 317 315 314 314 313 312 309 307 306 305 303 303 302 302 301 301 301 300 300 299 298 295 294 294
325 325 325 326 328 330 329 324 321 325 328 330 329 327 324 322 319 319 318 316 314 313 313 312 309 306 306 305 303 303 303 302 301 301 300 299 299 299 298 298 297 297 294
328 326 326 326 327 329 328 324 322 326 328 329 329 327 324 321 318 318 317 315 313 313 312 310 307 306 305 304 305 305 304 302 301 300 300 299 298 298 298 296 296 295 295
327 328 328 328 328 329 326 323 323 325 327 329 327 326 323 321 319 318 316 314 312 312 310 307 305 304 304 304 307 307 311 306 302 300 299 299 299 298 296 296 295 294 294
326 327 328 328 329 328 326 324 326 327 325 326 324 323 323 320 318 316 315 313 312 310 308 306 305 304 306 305 304 306 309 308 305 302 300 299 298 297 297 296 295 294 293
328 327 328 328 328 329 328 326 325 326 326 325 323 323 321 318 317 314 313 312 310 306 304 303 303 305 305 306 303 303 303 301 302 303 301 299 298 297 297 296 295 295 294
330 329 329 329 329 329 329 327 326 327 327 327 323 321 318 315 313 312 310 308 306 304 303 303 304 304 305 305 304 304 302 300 299 300 302 300 298 297 296 296 295 294 294
331 330 330 330 330 329 329 328 328 327 328 325 321 316 314 309 309 308 307 306 305 303 303 304 302 304 304 303 303 301 299 300 301 299 299 298 298 297 296 295 294 294 294

GFSSE_925_thetae_036.txt.gz
Theta_e
342 344 343 343 339 337 334 333 329 327 324 319 315 313 313 315 319 329 332 333 335 334 332 332 331 329 327 323 322 322 319 319 317 317 325 326 326 325 323 325 327 330 331
343 343 343 342 339 339 335 333 329 326 321 314 310 311 315 319 324 329 331 333 336 332 331 330 328 327 319 318 320 322 323 322 322 322 323 326 326 326 327 325 325 326 328
342 343 342 342 338 339 335 332 328 323 316 311 312 314 319 324 328 330 331 333 335 330 330 328 327 320 313 316 319 320 320 322 324 324 323 324 327 326 326 327 326 325 325
342 344 344 342 339 339 335 331 327 320 315 314 316 319 325 327 328 329 332 332 332 330 329 327 324 312 312 318 320 321 321 322 324 324 323 322 324 327 327 325 326 326 325
341 343 344 342 340 338 333 330 326 321 317 318 322 325 327 329 331 332 331 332 331 330 329 325 313 311 313 319 319 319 319 322 322 322 322 322 323 324 324 325 325 325 324
338 341 342 341 340 336 333 328 324 321 321 321 325 327 328 332 333 331 332 332 331 329 327 313 311 310 311 315 317 317 317 321 322 321 321 321 321 322 322 322 322 323 323
330 340 341 340 338 335 330 325 321 321 321 326 329 327 328 332 333 333 333 331 325 320 315 312 311 311 312 314 315 317 317 320 321 320 319 320 320 320 320 320 319 319 319
330 339 339 338 336 332 327 324 323 325 328 329 327 327 326 328 328 328 328 324 318 315 314 312 312 312 313 313 313 316 317 318 321 319 318 319 319 319 319 319 318 318 318
326 335 335 335 332 330 328 327 325 327 328 329 328 326 323 321 322 321 320 318 316 315 314 312 312 312 312 312 313 314 314 316 318 319 318 317 318 318 318 318 317 317 316
328 331 331 330 330 331 329 328 330 330 329 328 326 325 322 317 315 316 317 316 316 315 314 313 312 312 312 312 313 314 314 314 317 317 317 318 318 318 318 317 317 316 315
329 331 330 329 328 327 326 329 329 330 329 326 325 323 319 317 316 318 316 316 316 315 315 314 313 313 313 312 312 313 313 312 315 315 314 319 319 318 318 317 316 316 315
326 329 329 329 327 324 322 323 318 327 327 324 320 320 322 322 324 320 316 316 316 316 314 314 314 314 314 314 313 312 311 310 313 312 315 318 320 319 318 317 316 315 314
322 324 326 325 326 320 319 323 325 324 321 319 322 322 322 325 322 319 318 317 316 315 314 314 315 316 315 314 312 312 310 310 312 311 308 310 318 319 318 317 315 314 312
320 317 317 318 319 322 321 317 313 316 318 322 325 324 323 323 321 319 319 319 316 315 315 316 318 317 313 313 312 311 309 309 312 312 309 305 308 318 318 317 315 313 311
319 318 318 317 317 314 312 312 313 313 318 321 324 324 323 322 325 322 323 322 319 319 318 319 317 315 314 312 311 309 309 308 308 313 310 303 306 318 318 316 315 313 310
317 316 317 315 315 314 313 314 315 319 320 321 318 319 319 324 324 324 326 323 322 321 320 319 317 315 314 313 310 308 308 307 307 310 310 307 303 315 315 315 314 312 310
316 317 315 313 314 318 319 319 319 317 313 314 318 319 324 322 323 325 324 322 322 320 320 318 316 315 313 311 309 308 308 307 307 307 310 309 304 309 312 312 310 307 306
315 315 316 316 317 315 314 314 315 315 316 317 318 321 321 323 324 324 324 323 321 321 319 317 315 314 313 311 309 308 307 307 306 306 306 308 309 304 303 303 305 306 304
317 315 315 316 313 315 314 314 314 316 319 321 321 326 326 327 326 325 325 323 322 320 319 316 316 314 313 310 309 308 307 307 307 306 305 304 305 305 304 301 299 299 298
317 314 314 315 315 316 314 314 317 320 320 321 321 326 325 326 327 325 325 323 321 320 318 316 315 314 312 310 310 308 308 308 307 306 305 304 303 302 302 301 300 299 298
319 318 318 318 320 319 319 320 325 320 321 321 323 327 328 327 327 325 326 323 321 320 318 317 315 311 310 309 308 309 309 308 307 306 305 304 303 302 301 301 300 299 298
322 322 324 324 324 323 324 326 325 322 321 322 326 327 326 325 326 325 325 323 322 320 318 316 315 311 310 308 310 312 312 309 308 307 305 304 303 302 301 300 299 299 297
325 325 326 326 326 325 326 325 326 322 321 322 328 326 327 328 327 325 324 324 322 320 318 316 314 311 310 309 309 310 310 311 309 307 306 304 303 302 302 301 299 299 298
327 326 325 324 325 325 326 326 326 322 321 324 329 329 327 327 328 326 324 323 321 320 319 316 313 310 309 310 309 310 309 308 307 305 306 304 303 302 302 301 300 299 298
329 328 327 327 327 327 327 328 327 323 322 323 327 328 329 329 328 326 325 323 321 319 317 315 312 310 308 309 309 309 311 310 307 305 303 305 303 303 302 301 300 299 298
328 329 329 328 328 327 328 327 327 325 324 326 328 328 329 327 326 327 324 322 320 318 316 312 310 308 308 309 307 308 308 308 306 305 303 304 304 303 302 300 299 298 297

GFSSE_925_thetae_039.txt.gz
Theta_e
342 344 340 331 334 329 328 326 325 323 320 319 319 319 318 320 328 333 335 331 332 332 331 329 326 328 329 327 327 324 320 317 315 321 326 327 326 325 326 327 328 330 331
338 343 340 339 336 332 330 327 325 321 317 315 315 317 324 330 329 335 333 328 330 330 328 326 325 327 327 325 322 323 324 324 323 321 326 326 327 327 326 325 325 327 328
332 334 340 339 339 334 330 327 323 317 314 315 317 322 329 329 329 335 330 326 328 328 326 324 323 323 320 321 322 324 326 326 325 323 324 327 326 326 327 325 325 325 325
328 331 340 338 339 333 329 326 321 314 314 317 319 324 327 327 332 334 326 327 328 327 325 321 314 318 320 320 320 318 323 324 324 322 322 324 326 326 325 326 326 325 324
334 340 340 339 339 334 330 325 318 314 315 317 321 325 326 326 332 331 325 327 327 326 323 317 318 319 320 319 318 318 322 322 322 321 322 322 323 324 324 324 324 324 324
339 338 340 339 337 333 330 325 317 318 319 322 324 326 330 330 330 329 327 327 326 324 317 311 314 317 317 316 316 323 322 322 317 312 319 321 321 321 321 321 321 321 321
337 336 338 339 337 332 329 327 321 320 321 324 327 331 332 330 331 330 327 324 319 313 312 312 314 313 314 316 316 321 320 320 318 312 318 320 320 320 319 319 319 318 318
329 330 328 339 335 331 326 322 327 328 326 328 330 332 332 331 332 329 323 319 314 312 313 313 314 314 313 316 316 317 320 320 319 311 317 319 319 319 318 318 318 317 317
334 335 335 336 333 331 328 320 324 328 327 327 331 331 331 331 331 326 319 315 314 312 313 313 314 313 313 314 314 314 318 318 318 314 317 318 319 318 318 317 317 316 315
333 332 333 333 333 330 327 327 330 329 326 325 325 328 329 328 326 321 317 315 315 313 313 313 314 312 313 313 314 313 317 318 317 314 315 318 318 318 318 317 316 315 314
330 332 329 330 331 328 324 328 331 328 326 324 322 320 320 322 320 317 316 316 315 314 314 314 313 312 312 312 312 312 315 315 314 312 317 318 319 318 317 317 316 315 314
330 330 329 325 323 321 321 324 331 329 326 323 319 315 316 316 317 316 316 316 315 315 315 313 313 312 314 313 312 310 313 312 312 308 313 318 319 318 318 316 315 314 313
326 328 327 325 323 322 323 321 324 325 322 320 319 317 320 320 316 316 316 316 316 315 314 313 314 315 314 313 311 310 311 312 311 310 313 318 319 319 318 316 315 314 313
321 323 327 322 319 316 317 320 323 320 321 323 321 322 323 322 318 316 316 317 316 315 315 315 317 314 312 310 309 309 309 310 312 308 306 311 319 319 318 317 315 313 312
317 318 321 322 322 323 321 322 320 320 323 323 323 322 323 321 319 319 319 318 317 316 316 317 318 313 313 311 310 308 307 308 311 310 308 304 307 319 318 317 315 313 311
318 318 317 317 318 321 320 317 317 318 320 319 321 318 322 322 320 321 322 322 319 319 318 319 316 315 313 311 309 308 307 307 308 310 309 307 305 317 317 317 315 313 310
317 317 317 315 317 318 317 317 314 313 315 317 319 318 321 322 324 325 325 323 322 321 320 319 316 315 313 312 309 307 307 307 307 307 309 306 305 309 314 315 313 311 309
317 317 316 315 315 316 316 314 314 312 314 317 317 319 321 323 324 324 324 323 322 321 321 319 315 314 312 311 309 308 307 307 307 306 307 308 306 308 311 309 309 308 307
316 315 315 315 314 314 315 316 317 317 315 316 314 318 320 322 322 323 323 323 322 321 319 318 315 314 313 311 308 307 307 307 307 306 305 306 308 304 304 303 301 300 298
315 315 314 315 317 317 318 318 316 317 314 314 318 319 320 322 325 324 323 324 322 321 320 318 316 315 313 311 309 309 308 308 307 306 305 304 303 304 302 301 300 300 299
316 316 316 316 315 315 314 314 314 315 317 318 320 322 324 325 324 326 324 325 323 322 320 318 316 315 311 311 309 308 308 308 307 307 306 305 304 302 302 301 300 299 299
314 314 315 315 314 317 314 314 314 315 320 318 319 320 323 326 325 325 325 325 323 322 320 318 317 313 312 309 308 310 308 309 308 307 306 305 304 303 302 301 300 300 298
316 315 314 314 318 316 316 314 315 321 324 319 321 320 323 325 326 324 326 325 323 322 320 319 316 315 312 310 308 310 308 308 307 308 307 306 304 302 301 301 301 299 299
319 318 318 318 322 320 318 321 322 324 323 320 320 322 325 326 324 323 326 325 324 322 320 320 316 314 311 309 309 309 310 309 305 305 306 306 304 303 302 302 301 299 299
320 320 322 323 322 322 322 323 324 323 324 322 320 321 324 325 325 327 325 324 324 321 321 319 315 312 310 309 310 310 309 310 309 306 304 304 305 303 302 302 302 301 299
324 322 323 325 325 323 323 324 326 325 324 321 321 326 326 327 327 327 326 324 323 322 320 317 316 314 313 312 309 309 309 309 308 306 303 302 302 303 304 303 302 301 299

GFSSE_925_thetae_042.txt.gz
Theta_e
344 340 336 332 328 330 326 324 321 319 320 323 324 325 334 335 330 329 330 329 330 329 328 330 330 330 329 328 327 325 323 323 326 326 326 326 326 328 329 329 329 331 331
343 340 337 337 337 330 325 324 320 317 318 319 319 327 335 333 329 325 326 328 328 328 330 331 331 330 329 328 326 324 323 323 324 325 327 327 325 325 325 326 326 327 328
339 340 334 334 338 330 325 322 318 319 319 319 320 329 334 331 324 324 324 324 324 325 329 330 330 330 329 329 328 328 325 323 326 326 324 324 325 325 326 324 324 324 324
337 335 329 335 338 329 326 322 319 318 320 323 325 329 334 327 323 322 321 319 320 323 327 328 328 324 319 318 321 324 322 321 320 323 325 324 324 326 325 325 325 324 322
329 331 333 329 334 334 331 320 324 328 330 329 328 334 334 326 322 320 318 318 319 322 326 326 320 316 316 319 323 324 322 320 318 320 322 322 322 323 323 324 323 322 321
328 329 333 326 334 332 327 327 329 331 328 329 331 333 333 322 322 321 318 317 317 322 321 319 317 315 319 320 322 320 317 313 313 318 320 320 320 320 320 320 320 318 318
338 338 338 336 333 329 327 325 328 329 329 331 332 333 330 324 323 322 318 315 313 312 314 315 315 315 321 321 321 320 317 311 309 317 319 319 320 319 319 318 318 317 317
337 337 337 334 334 331 326 326 323 329 330 331 331 333 328 324 325 321 315 313 313 314 314 313 313 314 317 321 320 319 316 311 310 314 318 319 319 318 318 317 317 317 316
332 332 332 331 326 332 323 329 324 328 329 331 330 331 330 325 323 317 313 312 314 314 315 312 311 314 313 313 319 319 318 315 312 314 318 319 319 318 318 317 316 315 315
333 334 331 333 331 322 318 330 324 326 331 333 330 330 329 324 320 315 313 313 314 314 314 312 313 313 313 312 316 319 317 314 313 314 317 318 319 318 317 316 315 314 313
333 331 332 330 328 324 324 322 325 327 330 331 330 330 329 324 318 315 315 313 313 315 313 311 312 312 312 311 315 317 316 313 313 313 316 318 318 317 316 316 315 313 313
330 329 325 323 327 326 324 328 327 327 330 331 330 329 326 320 316 316 316 316 316 314 313 312 312 312 312 311 311 315 313 312 310 315 317 318 319 318 317 316 314 313 312
328 327 326 324 322 320 325 327 326 325 324 324 324 322 320 317 316 316 315 315 315 314 313 313 314 314 312 311 310 312 311 311 311 310 311 317 319 319 318 316 314 313 312
325 325 324 322 322 321 323 326 326 323 319 316 317 316 316 316 316 317 316 316 315 314 314 316 316 314 312 310 309 310 311 311 310 308 311 315 318 319 318 316 314 313 312
323 324 324 323 322 321 322 327 323 321 319 316 319 318 317 316 316 316 317 316 315 314 316 317 316 313 311 309 308 308 308 310 310 308 307 314 318 319 319 317 315 312 312
319 322 323 322 322 324 323 324 322 323 322 320 322 322 321 319 317 317 318 317 316 315 316 318 316 313 311 309 308 307 307 307 308 309 306 305 310 318 318 318 316 313 311
318 318 319 318 318 317 320 321 322 323 324 323 323 323 321 319 318 318 319 318 317 317 318 318 315 314 313 310 308 307 307 307 307 308 308 307 306 309 315 316 315 313 311
318 317 318 317 319 320 320 321 321 320 320 319 321 322 322 323 322 322 324 322 320 321 319 319 316 315 314 311 309 307 307 307 307 306 307 306 306 308 312 313 312 311 309
318 317 317 317 317 319 320 319 318 316 316 315 315 316 320 322 324 323 324 323 323 321 320 320 318 314 312 311 309 308 307 307 306 307 306 306 306 307 309 310 305 305 303
317 317 316 317 318 318 318 317 315 314 315 315 315 316 319 321 323 322 323 323 322 321 320 318 315 314 313 312 310 308 307 307 307 306 306 305 305 306 304 304 302 300 299
317 316 316 316 316 316 316 316 316 315 313 314 315 314 315 319 321 323 323 323 324 322 320 319 317 315 314 312 308 308 307 307 307 307 306 304 304 303 303 303 301 301 300
316 315 315 315 315 315 316 316 316 315 314 314 315 315 318 320 321 325 325 325 324 322 321 320 319 315 313 311 309 308 306 308 307 307 306 304 304 304 303 302 301 301 300
315 314 315 315 315 314 316 316 315 315 316 315 315 316 319 320 324 325 325 325 324 324 321 321 319 316 313 309 309 309 306 307 306 307 306 306 305 304 303 302 301 300 300
315 315 315 315 315 316 315 314 313 315 315 317 319 319 318 320 322 324 325 325 325 324 321 321 319 317 316 311 308 309 310 310 306 305 307 307 307 305 303 302 301 301 300
314 314 315 315 314 314 316 314 314 314 316 318 321 320 318 319 319 324 326 324 325 324 323 321 320 318 315 312 314 309 309 308 307 306 306 306 306 306 304 303 302 301 301
316 314 314 313 313 317 316 316 316 316 319 322 323 321 320 318 321 324 325 323 324 325 323 322 320 317 314 314 313 309 309 309 309 308 305 304 304 306 305 304 303 302 301

GFSSE_925_thetae_045.txt.gz
Theta_e
341 332 331 333 330 329 329 325 322 326 333 332 327 327 327 327 327 327 329 330 329 331 331 331 330 329 328 328 329 329 328 325 325 326 327 328 330 329 330 329 329 330 331
341 335 336 331 330 331 329 324 321 321 324 324 329 328 329 328 328 329 328 328 331 331 331 331 330 330 329 328 328 327 325 326 327 326 325 325 326 327 327 326 327 329 329
340 332 328 326 327 329 331 327 320 320 332 333 334 333 332 329 330 328 328 331 331 331 331 331 330 330 330 326 324 326 326 322 323 324 325 324 324 323 324 324 323 323 323
340 337 333 330 329 327 326 332 332 316 330 334 334 333 329 328 326 325 327 331 331 331 330 330 329 329 328 327 323 322 324 324 324 324 324 324 324 326 324 323 323 321 321
340 336 334 332 329 327 327 328 330 329 331 334 334 333 328 325 322 321 326 329 330 330 328 325 321 317 321 324 322 319 318 320 321 321 321 321 321 322 322 322 321 319 318
339 337 334 330 328 328 328 327 327 328 332 335 333 329 326 321 318 319 323 327 329 328 324 320 317 322 324 324 321 316 316 317 318 318 319 320 320 320 319 318 318 318 318
330 332 333 334 330 327 328 325 332 316 332 334 331 329 322 317 317 318 323 327 326 322 318 318 321 322 322 319 313 312 311 314 317 319 319 319 319 319 318 318 317 316 316
333 329 329 331 330 330 326 322 332 327 331 334 331 328 322 317 316 317 318 319 316 313 314 319 322 321 320 318 316 311 311 311 315 318 318 318 319 318 317 317 316 316 315
336 336 333 330 332 329 325 320 323 329 331 333 329 327 324 319 316 313 312 313 313 312 313 314 320 320 320 319 317 315 312 312 314 318 318 319 319 318 317 316 315 315 314
333 335 334 333 329 326 326 324 323 326 330 332 328 328 322 316 313 313 314 315 313 312 312 312 313 313 317 319 318 316 313 313 314 317 318 318 318 318 316 315 314 314 313
332 331 331 330 329 327 323 318 324 327 330 331 328 326 323 316 313 314 314 314 313 311 312 311 312 312 315 318 317 315 313 313 314 316 318 318 318 318 316 314 314 313 312
328 326 328 326 324 321 318 320 324 328 327 327 328 325 319 315 313 314 314 315 312 311 312 312 312 311 314 316 316 313 312 312 313 316 317 318 318 318 317 315 313 312 311
327 324 325 324 324 321 320 319 321 321 322 326 329 322 318 315 315 314 314 314 313 312 312 312 313 311 310 312 314 312 312 313 312 314 317 318 319 317 317 315 313 312 311
327 324 326 325 323 321 319 318 319 322 323 327 328 321 316 316 315 315 315 314 313 313 313 315 314 312 310 310 311 311 311 311 310 310 313 316 318 319 317 316 314 313 311
325 324 323 325 324 323 320 321 321 324 326 326 327 319 316 316 316 315 316 315 314 315 316 316 314 312 309 309 310 310 310 310 309 308 309 315 318 319 319 317 315 314 312
322 323 323 322 322 323 324 326 325 325 326 326 322 318 316 316 316 316 316 315 314 315 317 317 315 311 308 308 308 308 308 308 308 308 306 313 316 317 319 318 316 313 312
318 322 323 322 321 322 325 325 322 319 319 319 317 316 316 316 316 317 316 315 315 315 317 317 313 312 310 308 307 307 307 307 307 307 308 307 313 317 317 317 316 314 312
320 320 322 321 320 319 324 322 322 320 316 319 319 317 316 316 316 317 317 317 316 316 317 318 314 313 312 309 307 307 307 307 307 307 307 307 309 311 313 315 315 314 312
318 318 319 321 321 321 322 323 323 323 320 323 323 320 319 318 318 319 321 319 318 318 318 319 316 314 313 311 308 307 306 307 307 307 307 306 307 307 308 310 311 310 309
318 318 318 319 321 320 320 321 320 322 321 322 322 322 322 322 323 323 323 323 321 320 320 319 317 315 314 312 309 307 307 306 306 306 306 306 306 306 308 308 310 306 304
317 317 317 317 317 318 319 320 319 321 317 316 317 318 321 321 323 324 324 324 323 322 321 320 319 316 313 311 308 307 306 306 306 306 306 306 306 305 305 306 304 303 301
316 316 316 317 318 318 317 317 318 317 316 316 315 315 317 318 319 321 322 322 323 322 321 320 318 315 313 311 309 306 304 306 306 306 306 306 306 305 304 304 303 303 301
316 316 316 316 317 317 317 317 317 317 315 314 315 315 315 315 315 318 321 322 323 323 323 320 318 316 315 312 310 310 305 307 307 308 307 305 304 305 304 303 304 302 302
315 316 316 316 316 316 316 316 316 316 315 314 313 313 313 314 315 319 322 323 324 324 323 322 319 318 317 313 309 309 310 310 307 308 307 307 305 304 304 304 304 302 301
315 316 315 316 316 316 315 315 315 314 314 314 314 314 315 314 315 318 320 325 325 325 324 324 320 318 317 314 311 308 309 309 308 307 307 306 306 307 306 305 304 303 302
315 315 315 314 315 315 314 314 314 314 314 314 315 316 316 316 316 318 319 320 322 324 325 324 323 320 319 315 315 313 312 310 308 307 304 304 305 306 307 308 307 305 302

GFSSE_925_thetae_048.txt.gz
Theta_e
333 327 327 327 330 328 331 335 337 336 336 335 334 333 331 330 334 335 335 333 332 331 332 331 330 330 330 329 328 327 327 326 327 328 328 329 331 331 330 330 330 331 331
337 330 329 331 331 326 326 332 334 334 335 335 333 334 333 332 332 332 330 331 331 331 330 329 328 328 328 328 328 328 326 324 325 325 326 328 328 328 328 328 328 329 329
339 332 335 332 331 327 323 331 330 336 335 336 335 333 333 330 330 330 332 332 331 331 331 330 330 329 328 327 326 326 324 324 324 323 323 323 323 324 324 323 323 324 325
339 336 335 332 331 329 328 332 328 333 336 333 332 332 330 330 331 333 332 331 331 331 331 331 332 330 327 326 325 325 323 324 324 323 323 323 323 324 323 322 321 321 321
338 334 330 330 330 327 332 332 330 329 327 330 331 331 331 331 332 332 331 330 330 331 331 331 331 329 322 320 323 323 323 323 323 322 322 321 321 322 320 318 319 319 319
339 334 331 330 328 326 326 329 332 333 333 331 332 330 330 331 332 331 330 330 329 327 326 326 327 324 321 316 317 319 319 320 320 320 320 320 319 319 319 318 317 317 317
338 336 335 330 328 326 324 326 327 332 333 331 331 330 330 330 331 331 330 328 324 322 324 327 324 323 317 314 313 315 315 317 317 319 319 319 319 319 318 318 317 316 316
334 335 333 330 328 327 326 324 320 328 334 323 329 330 330 329 330 330 327 321 316 318 319 323 323 319 314 310 312 312 314 317 318 318 318 318 318 318 317 316 316 315 314
331 332 334 331 329 328 327 325 318 326 331 329 329 329 328 328 328 327 321 315 317 322 321 322 320 316 314 312 312 312 314 315 317 318 318 318 318 317 316 315 315 314 314
333 333 329 331 331 328 325 322 318 324 324 326 328 328 327 323 324 318 313 314 319 321 321 321 319 318 315 314 312 312 313 315 317 317 318 318 318 317 316 315 314 313 313
332 332 331 332 330 327 322 317 324 326 327 326 328 327 321 318 314 312 312 313 313 315 317 319 319 319 316 315 313 311 312 315 317 318 318 318 317 317 316 315 314 313 312
330 331 331 330 327 325 321 319 320 318 322 327 327 323 317 313 314 312 312 312 312 312 312 313 316 317 317 315 313 311 312 315 317 318 317 318 318 317 315 314 313 312 311
327 329 330 329 327 326 325 318 321 325 325 324 323 320 315 313 314 313 311 311 312 312 312 313 315 315 315 314 312 312 313 315 316 317 317 317 318 317 315 314 313 312 311
325 325 323 325 324 322 323 323 318 319 319 322 322 318 313 313 314 313 311 311 311 312 312 311 311 311 313 314 312 311 312 313 314 316 317 318 318 318 317 315 314 312 311
325 324 323 320 319 319 320 323 323 323 322 321 321 317 314 313 314 314 313 312 312 313 314 312 311 310 311 313 312 311 312 311 311 312 315 317 318 319 318 316 315 313 312
325 325 324 322 321 319 319 320 320 319 319 316 322 318 315 314 315 314 313 313 313 315 315 314 313 311 310 311 311 311 310 310 309 309 310 314 317 317 319 318 316 315 313
324 324 324 323 321 320 320 320 321 321 321 321 323 319 316 315 315 315 314 314 314 316 316 315 312 309 308 309 309 309 308 308 308 307 307 309 314 316 318 318 316 314 314
321 322 323 322 322 321 320 320 321 322 317 321 320 320 317 316 315 315 315 314 314 317 317 317 312 310 308 307 307 307 308 307 307 307 307 307 310 314 317 317 316 314 313
321 321 321 322 321 323 321 324 323 322 322 320 322 320 317 316 316 316 316 315 315 315 317 317 313 311 309 308 307 307 307 307 307 307 307 307 307 311 312 315 316 314 312
320 321 321 321 321 322 321 322 322 320 321 319 320 318 317 317 316 317 317 316 316 314 315 317 315 313 312 310 308 307 306 307 307 307 307 307 307 307 307 309 312 312 310
319 319 320 320 320 319 319 320 322 321 321 317 317 320 318 317 317 318 319 320 317 316 317 318 317 315 314 312 308 306 306 306 306 306 306 306 307 307 307 308 308 309 308
318 318 318 319 319 320 319 319 320 322 321 321 321 322 321 321 322 322 322 322 323 321 321 321 319 317 314 312 309 306 304 306 306 306 306 306 306 306 307 308 308 307 305
317 317 318 318 319 320 319 320 319 319 320 319 316 316 318 321 320 319 320 322 322 323 322 322 320 318 317 312 310 310 306 307 306 307 306 306 306 306 306 306 306 305 304
315 317 317 317 318 318 318 318 318 318 319 318 316 315 314 315 316 316 316 319 321 321 322 322 321 319 317 314 310 310 310 309 307 308 307 307 306 306 305 305 305 304 304
314 315 317 317 317 317 317 317 317 317 317 317 316 315 314 314 314 314 314 316 319 322 322 323 323 320 316 314 313 311 308 309 309 308 308 306 306 307 306 305 304 304 304
314 315 315 316 316 317 317 316 316 315 315 316 316 316 314 313 313 313 313 314 317 319 323 324 324 323 320 316 315 314 313 310 308 307 306 306 306 308 307 307 306 306 307

GFSSE_925_thetae_051.txt.gz
Theta_e
336 335 334 331 331 337 331 340 338 337 333 332 331 334 334 334 333 334 336 336 336 336 336 333 332 332 330 329 331 331 330 329 329 330 331 332 332 332 331 331 331 332 331
334 334 335 332 332 333 338 341 339 337 335 335 332 332 334 336 334 335 335 335 335 333 332 331 331 329 328 328 328 326 327 327 327 327 329 330 330 330 329 329 329 329 329
331 336 330 329 330 334 339 339 338 337 337 335 334 332 334 335 335 333 332 331 331 331 330 329 328 328 328 328 325 324 323 323 324 324 324 325 326 326 325 324 325 325 325
336 338 336 330 328 334 338 339 338 339 337 335 333 334 334 334 333 332 331 330 330 329 329 328 328 327 328 327 323 323 323 323 323 324 323 322 323 324 324 323 323 323 322
338 336 337 331 326 331 336 337 337 338 337 336 334 331 332 332 331 331 331 330 330 329 331 329 329 327 326 323 324 324 322 323 323 323 323 323 321 321 321 320 320 320 320
338 336 336 335 328 326 329 336 338 336 335 333 331 330 331 331 331 330 330 330 330 333 333 330 327 324 322 322 323 323 322 322 321 320 320 319 320 320 319 319 319 318 318
337 336 335 333 330 329 333 335 337 335 332 327 331 331 330 331 329 329 330 331 330 331 330 329 322 318 318 320 320 320 320 319 319 319 319 319 319 320 319 319 318 317 315
336 335 332 330 328 330 330 331 333 331 330 332 330 330 330 331 330 329 329 327 326 327 329 323 317 314 314 315 315 316 316 318 318 319 319 319 319 318 318 317 316 315 315
333 335 332 330 327 325 324 328 328 331 329 331 329 328 330 330 329 329 326 322 324 326 323 320 314 311 312 311 313 315 316 318 318 318 318 318 318 318 317 316 316 314 314
332 333 331 329 327 325 325 325 327 326 327 327 328 328 329 330 329 326 319 320 321 323 322 316 313 313 312 312 313 315 315 317 318 318 318 318 318 317 317 316 315 314 313
332 332 331 331 330 326 325 326 325 326 325 325 328 327 329 329 327 319 322 320 320 322 320 317 314 314 312 312 313 315 317 318 318 319 318 318 318 317 316 315 315 314 313
330 332 331 331 331 329 328 326 323 325 325 325 329 327 327 326 320 320 318 320 321 321 319 317 316 314 316 317 315 315 317 318 318 319 318 318 318 317 316 315 314 313 312
329 330 331 330 331 329 326 321 324 325 324 325 328 325 323 318 314 314 316 321 321 320 323 320 316 319 318 317 316 316 318 318 318 319 318 317 317 317 316 314 313 312 311
327 328 328 328 327 326 322 322 324 324 324 323 326 321 315 314 316 313 312 313 313 317 321 319 318 316 313 312 311 312 317 317 318 319 318 318 318 317 316 314 313 312 311
326 326 328 328 326 324 322 321 320 322 322 323 322 317 314 315 313 313 312 312 312 313 314 315 316 315 313 312 311 312 315 317 318 318 318 318 318 318 317 316 314 313 311
324 323 323 324 324 322 321 320 322 320 322 324 321 315 313 313 312 311 312 312 312 311 312 313 313 313 314 312 311 313 312 314 316 318 318 319 318 318 319 317 316 314 312
324 324 321 320 321 322 320 320 319 322 319 321 322 314 314 314 312 311 311 312 313 313 312 311 311 311 311 313 313 312 312 311 310 311 315 318 318 318 318 318 317 316 314
324 324 322 320 319 321 320 319 320 319 318 320 319 319 316 314 313 312 312 312 315 314 313 312 310 309 311 311 310 310 309 308 308 308 309 315 316 316 318 318 317 315 315
322 324 323 322 319 319 320 320 321 320 319 318 317 320 318 314 314 313 313 313 315 316 314 313 310 308 308 309 308 308 308 308 307 307 307 308 310 313 316 317 317 316 314
321 322 323 322 321 320 320 320 320 321 319 317 317 321 320 316 315 314 314 313 314 316 315 314 311 310 309 308 307 307 307 307 307 307 308 308 308 310 312 315 316 315 314
320 320 322 322 321 321 320 320 319 321 319 318 318 321 321 317 316 315 315 314 314 314 316 316 313 312 310 308 308 307 307 306 307 307 307 307 307 307 308 309 313 314 313
320 320 320 321 321 320 321 320 320 320 319 319 320 321 320 317 317 316 316 316 315 314 314 316 316 314 314 311 311 310 313 310 306 307 306 306 307 307 310 307 310 309 311
319 320 319 320 321 321 320 320 320 319 318 317 319 320 318 317 316 316 317 319 319 318 317 317 318 317 316 313 312 315 314 317 312 309 307 306 306 307 308 308 307 308 308
319 319 319 319 319 320 319 320 319 319 319 317 316 318 321 321 319 320 321 321 321 321 321 322 321 320 318 317 311 311 312 313 316 314 309 308 306 306 306 306 307 307 307
319 319 318 319 320 319 319 319 319 320 319 319 317 315 316 319 319 320 318 319 319 319 321 321 321 321 320 318 315 313 311 309 309 310 316 309 307 307 307 307 307 306 306
317 316 317 318 319 319 320 319 319 318 318 318 317 316 317 315 316 315 315 315 315 315 318 321 322 321 321 319 316 315 313 312 309 308 309 311 308 310 309 309 308 306 305

GFSSE_925_thetae_054.txt.gz
Theta_e
342 340 336 339 337 339 339 337 334 338 333 334 337 332 328 330 336 334 332 335 336 336 337 335 334 334 335 335 334 333 332 331 331 331 332 333 334 333 332 332 332 333 332
341 339 337 342 345 342 333 328 335 334 338 339 336 334 328 327 334 334 336 336 336 336 335 334 332 331 333 332 331 331 330 330 330 331 330 332 332 331 331 330 330 330 329
340 340 339 338 339 340 339 340 337 339 339 339 335 335 334 333 335 337 336 335 334 334 333 331 329 329 330 330 328 327 327 327 327 326 328 328 328 328 328 327 327 326 326
337 339 337 334 335 342 342 342 339 340 339 338 335 335 335 334 335 336 334 332 330 331 331 330 330 328 328 325 325 325 325 323 322 323 323 325 326 326 326 325 325 324 323
337 337 336 332 333 338 343 342 340 340 339 337 335 336 335 334 333 333 331 329 329 329 328 328 329 329 326 323 322 321 323 324 323 323 323 322 323 324 323 322 322 322 322
340 338 337 333 333 335 342 341 340 340 338 336 335 335 334 333 332 330 328 328 329 329 328 328 328 327 324 324 323 323 322 322 322 321 320 321 321 321 320 320 319 319 319
340 339 338 333 330 331 333 340 339 338 337 335 334 332 333 332 330 329 330 330 330 330 328 328 327 323 323 323 322 322 320 320 320 320 321 320 321 321 320 319 318 318 317
338 340 337 335 329 330 332 336 339 337 335 334 332 331 332 332 329 329 330 330 331 329 326 325 323 321 321 322 322 321 319 319 320 320 320 320 320 320 319 317 317 316 316
335 337 337 334 333 328 329 333 336 335 333 331 331 332 331 330 329 330 331 331 330 328 320 316 316 317 318 319 319 316 319 319 320 320 319 319 319 319 318 317 316 315 315
335 335 334 332 331 333 330 331 334 333 329 327 329 326 330 330 330 330 329 327 327 327 316 312 313 312 312 315 315 317 318 319 319 319 319 318 319 318 317 316 315 315 314
333 332 332 330 328 328 326 326 329 328 328 327 328 328 329 330 329 327 326 324 327 321 315 312 312 312 314 315 315 316 319 319 319 319 319 318 319 318 317 316 315 314 314
331 333 332 328 327 327 327 329 329 329 330 328 326 324 330 329 327 325 328 323 324 319 315 313 313 313 316 317 317 318 319 320 320 319 318 318 318 317 317 315 315 314 313
331 331 332 330 328 327 325 324 323 328 324 323 325 323 328 327 324 327 328 327 326 320 320 318 317 319 318 317 317 318 320 320 320 319 318 318 319 318 316 315 314 313 312
330 329 331 331 329 327 325 326 326 327 322 324 320 320 327 324 323 325 325 325 325 323 322 321 319 319 319 317 318 319 320 320 320 319 318 317 318 318 316 315 314 313 312
327 328 327 328 329 327 326 325 325 326 321 324 322 323 324 322 322 322 323 324 324 324 323 321 320 319 318 317 318 319 319 320 320 319 319 317 317 317 317 316 314 313 312
326 326 327 325 326 325 323 323 325 325 323 324 323 323 322 321 320 319 319 319 320 322 322 320 319 318 316 316 317 317 318 319 320 320 319 319 317 318 318 317 316 314 312
327 325 323 323 324 324 322 323 324 322 323 322 322 320 320 319 318 317 316 316 317 318 318 317 318 316 316 316 317 317 317 318 318 319 319 319 318 318 318 318 317 316 314
325 323 323 322 322 321 321 321 322 322 322 323 322 321 319 315 315 316 316 316 316 316 316 316 317 317 316 315 316 316 316 315 316 317 318 319 319 319 319 318 317 317 315
323 324 322 321 321 321 321 320 319 319 322 321 320 319 315 315 314 316 316 316 318 316 316 315 315 315 315 315 314 314 313 313 313 313 315 317 318 318 319 318 317 316 316
323 324 323 322 321 321 320 321 321 319 320 321 319 321 320 318 318 317 316 317 319 317 317 316 314 314 313 313 312 312 312 312 312 312 313 314 315 317 317 318 318 316 316
324 323 323 321 321 321 320 321 320 319 318 317 316 320 323 319 318 318 317 318 318 319 319 318 317 315 314 313 312 312 312 312 312 312 313 313 313 315 317 317 317 317 316
324 323 322 322 321 321 321 321 320 320 318 317 317 319 322 321 319 319 318 318 318 320 321 320 319 318 317 314 315 317 319 316 313 312 312 312 312 312 313 315 315 315 315
324 323 322 321 321 320 320 320 320 320 319 318 318 320 321 323 320 319 320 319 319 319 320 321 321 320 320 318 317 320 322 322 320 316 312 312 312 312 312 313 314 314 314
324 324 323 321 321 321 320 320 320 319 319 319 318 319 321 323 322 320 320 321 321 320 320 321 322 321 322 321 318 318 320 321 322 322 317 314 311 311 311 313 313 313 313
324 323 323 322 322 321 321 320 319 319 319 318 318 319 321 322 322 321 321 322 323 324 323 324 323 323 323 323 321 321 319 319 319 320 324 320 313 312 309 311 313 312 312
324 323 322 322 322 321 320 319 319 320 319 319 318 318 319 320 321 321 322 324 323 325 324 324 325 325 324 323 323 323 322 321 320 319 320 320 317 313 315 311 311 311 310

GFSSE_925_thetae_057.txt.gz
Theta_e
343 344 335 341 346 342 339 335 333 334 334 335 335 331 335 337 335 336 334 333 336 337 339 338 337 337 337 336 334 332 332 332 333 333 333 334 335 334 333 332 333 333 332
343 344 334 343 345 343 338 335 332 333 336 339 335 331 335 336 333 333 334 336 337 337 336 336 336 336 335 334 333 331 331 331 332 331 332 334 333 333 332 330 330 330 329
342 343 338 342 346 344 342 341 337 331 333 339 334 332 334 335 334 336 336 336 336 335 334 334 335 334 334 332 331 330 330 329 330 330 330 331 331 330 329 328 327 327 327
341 343 339 340 345 344 342 342 339 340 339 337 336 332 331 333 336 336 335 335 333 333 332 331 332 332 331 329 328 327 325 325 326 327 328 328 329 329 328 326 326 326 325
342 342 341 338 339 339 341 341 340 339 339 337 334 332 334 335 337 336 334 333 331 331 330 329 330 330 327 327 326 322 323 323 325 325 326 326 326 326 326 325 324 323 322
342 339 341 338 334 336 339 342 340 339 338 336 335 335 337 337 335 333 331 330 330 330 331 331 329 328 325 325 323 322 324 324 323 323 323 323 323 324 323 322 321 320 320
341 340 339 337 331 337 339 342 340 339 338 336 336 335 335 335 334 331 328 328 329 329 330 329 327 323 322 322 323 322 322 321 321 322 322 322 322 322 321 321 319 319 318
340 342 338 338 335 330 333 336 335 338 337 336 335 334 333 332 330 328 329 330 329 328 327 326 324 324 323 323 320 320 320 321 321 322 321 321 321 320 319 319 318 318 317
339 341 340 338 337 331 332 333 327 338 336 335 334 332 330 331 328 330 330 331 327 324 324 323 322 323 322 322 319 319 320 321 321 321 320 319 320 319 318 317 317 316 316
338 336 338 338 335 334 332 332 331 336 335 334 332 332 332 329 328 331 330 330 326 320 318 320 321 322 322 322 317 319 320 321 320 320 320 319 320 318 317 317 316 316 315
336 335 335 335 335 333 334 331 331 329 332 332 331 330 330 331 331 330 331 329 323 315 314 316 318 318 317 315 317 319 320 320 321 320 319 318 319 318 317 316 316 315 315
335 335 333 332 330 332 331 330 330 329 330 329 330 328 329 329 330 329 329 328 321 313 314 314 313 312 315 316 318 319 322 321 320 320 319 319 319 318 317 316 316 315 314
334 334 332 330 329 330 328 327 330 330 329 328 328 324 322 325 328 327 327 328 323 318 319 317 315 318 317 316 320 322 321 322 321 320 318 318 318 318 317 316 315 314 313
333 332 332 329 327 327 327 328 329 328 328 326 325 320 322 324 326 328 328 327 323 321 321 319 319 319 319 318 320 322 322 321 320 320 319 318 318 318 317 315 314 313 313
332 332 331 330 329 327 326 325 326 327 325 325 320 321 323 325 326 328 327 326 323 323 322 319 321 320 319 319 320 322 322 322 321 320 318 318 318 317 317 316 315 313 313
329 327 328 329 329 327 325 325 325 326 324 323 323 320 321 325 325 326 326 326 324 323 322 321 321 320 319 319 320 321 321 321 322 321 320 318 317 317 317 316 315 314 313
330 328 325 326 326 327 327 325 326 327 324 322 319 319 323 323 324 325 326 325 323 323 322 321 321 319 317 319 319 320 320 321 321 322 321 319 318 317 317 317 316 315 314
328 327 325 324 325 326 325 324 325 325 324 321 319 323 323 323 322 322 322 321 321 322 321 320 319 318 317 318 319 319 319 320 320 321 321 321 320 319 318 318 317 316 315
327 325 325 324 323 323 323 323 324 323 323 321 322 323 322 321 320 319 318 318 318 319 319 319 319 318 317 317 318 318 318 318 318 318 319 320 320 320 320 318 318 317 316
327 325 325 323 322 322 322 322 322 322 321 322 322 322 320 319 318 317 317 318 317 317 317 318 318 318 317 317 317 316 316 315 315 315 316 317 319 319 320 320 318 318 317
327 326 326 323 322 322 321 321 321 321 322 321 321 319 319 318 318 315 317 318 319 318 318 318 317 317 316 316 315 315 315 315 315 315 315 315 316 317 318 318 320 318 317
326 326 324 323 322 322 322 321 321 321 320 320 321 322 319 320 319 315 317 318 319 319 320 320 319 318 316 315 314 315 317 316 315 316 315 315 315 316 316 318 318 318 318
327 326 324 322 322 322 321 323 321 320 320 319 318 320 322 323 320 318 318 319 319 321 322 322 322 321 320 318 317 318 320 321 319 318 316 316 316 315 315 315 317 317 317
326 326 325 323 322 323 321 321 321 320 319 319 318 317 318 322 322 317 320 321 321 320 322 324 323 323 322 321 321 319 321 323 324 322 319 317 316 316 315 315 314 315 316
327 326 325 322 323 322 322 321 321 321 320 318 318 317 319 321 320 321 320 322 322 322 322 322 323 324 323 323 322 322 321 322 322 323 325 321 318 317 315 313 313 314 316
327 327 325 324 322 322 322 322 321 320 320 319 318 318 320 321 322 321 322 322 323 324 324 323 323 324 324 324 323 324 323 322 322 322 324 323 322 319 317 314 311 314 315

GFSSE_925_thetae_063.txt.gz
Theta_e
344 342 345 340 335 335 335 334 333 332 333 333 332 333 333 334 334 331 326 325 324 329 337 339 338 338 339 337 335 334 335 335 334 334 334 335 335 335 333 333 333 333 333
345 340 342 343 337 335 336 334 334 335 334 332 330 331 333 332 330 326 324 327 332 335 337 337 336 336 337 335 332 332 333 333 334 333 333 333 333 332 331 330 330 331 332
345 340 336 343 342 339 339 338 336 336 334 331 330 329 330 331 328 329 334 336 336 337 338 336 335 336 335 331 330 331 332 332 332 331 330 330 330 330 329 329 329 329 328
343 343 336 339 344 341 342 339 339 339 337 336 334 331 331 331 330 336 336 336 337 337 337 336 336 335 331 330 330 330 330 329 329 328 329 329 330 330 328 327 326 326 325
343 343 339 336 344 345 342 340 338 338 338 336 334 333 333 332 333 335 335 336 335 336 336 336 335 330 328 328 329 328 329 328 327 327 327 327 327 328 326 325 323 323 323
340 343 341 337 339 344 343 340 338 338 338 336 333 333 333 335 335 335 334 334 334 335 335 334 331 328 327 326 327 328 328 327 325 325 326 325 325 324 322 322 321 321 321
337 340 342 340 339 340 344 341 339 338 337 335 334 333 334 335 335 334 333 332 332 333 333 331 328 326 325 326 327 327 324 325 324 324 322 322 322 322 321 321 320 321 320
340 341 342 339 339 338 339 341 340 338 335 334 334 332 332 334 334 333 331 330 331 331 330 329 327 323 323 323 323 322 323 322 322 321 320 320 321 321 320 319 319 319 318
338 338 342 339 337 336 336 337 336 336 334 335 335 333 334 332 333 331 331 330 328 328 327 326 325 322 323 323 320 322 322 322 321 319 319 320 320 320 319 318 318 318 317
338 337 338 339 338 335 334 336 335 334 333 329 329 330 329 333 332 330 330 330 329 326 324 325 324 321 323 320 320 322 321 321 319 318 319 319 320 319 318 318 318 317 317
337 333 336 335 338 337 333 334 332 330 330 328 324 324 332 332 330 329 327 328 327 323 321 320 320 320 321 320 321 320 319 319 319 317 318 318 319 319 318 318 318 317 317
334 334 334 336 337 334 332 332 331 329 327 324 324 323 332 330 330 329 328 327 325 320 321 321 321 319 319 320 320 320 320 319 319 316 317 318 319 319 318 318 317 317 316
334 335 333 335 335 332 332 331 330 328 326 323 330 329 330 330 330 329 327 325 321 322 322 320 319 314 319 320 320 321 320 319 317 317 317 318 319 318 318 318 317 316 315
334 334 333 333 333 332 332 331 330 327 328 326 326 330 328 331 330 328 325 322 320 318 318 319 317 312 319 320 322 322 319 319 318 317 318 318 318 318 318 317 316 315 314
333 332 331 332 331 330 330 329 326 327 327 328 329 328 324 328 330 328 323 319 315 315 314 312 311 314 319 321 321 321 320 319 318 317 318 317 318 318 318 317 316 315 313
332 330 330 331 331 329 329 328 328 328 328 328 326 323 324 328 328 327 321 316 315 312 309 316 316 314 318 319 321 322 321 319 318 316 317 317 317 317 317 317 317 315 314
330 327 327 328 329 328 328 328 327 328 327 326 327 327 324 325 326 326 320 316 316 312 312 319 320 317 318 321 321 322 320 320 318 316 317 317 316 317 317 317 317 316 315
329 327 327 329 329 328 327 328 328 326 327 327 327 325 323 324 321 325 322 317 319 315 315 320 321 320 319 321 322 322 321 320 319 316 316 316 316 315 316 316 316 316 316
328 327 326 326 328 327 327 327 327 327 326 327 326 323 321 322 322 322 325 318 322 320 319 319 320 319 320 321 321 321 321 320 320 319 317 316 316 316 316 316 316 315 315
327 326 325 325 325 326 327 326 326 326 325 323 322 320 320 320 321 325 325 320 323 322 322 321 320 319 320 320 320 320 321 321 321 320 320 318 317 316 316 316 317 316 316
327 327 325 323 324 324 325 324 325 325 323 323 321 320 323 320 324 325 324 323 323 324 323 321 319 318 319 320 319 319 319 320 320 320 320 320 320 319 318 318 317 317 317
326 326 325 323 322 321 321 323 323 323 323 322 321 320 323 322 321 322 322 322 321 323 321 319 319 319 319 319 318 318 313 315 318 318 318 319 320 320 320 319 319 319 318
325 326 325 323 322 321 322 322 322 322 321 321 321 320 321 320 319 320 318 321 320 320 319 319 319 319 318 318 318 316 312 313 313 315 316 316 316 318 319 320 319 319 320
325 326 325 324 321 321 322 322 321 321 321 320 320 320 320 320 320 317 318 318 318 318 318 318 318 317 317 317 317 316 315 317 316 317 315 315 315 315 314 316 319 319 319
326 326 324 323 322 322 321 321 321 320 320 320 320 320 319 320 320 319 318 316 316 317 317 319 316 315 317 317 317 315 315 316 319 318 317 316 315 316 315 315 317 317 317
326 325 324 324 323 323 322 321 321 320 319 318 320 320 320 318 318 317 315 316 315 315 319 322 318 318 318 319 320 316 315 316 319 320 317 317 317 317 316 317 316 315 315

GFSSE_925_thetae_066.txt.gz
Theta_e
343 341 340 337 335 333 333 334 334 334 334 334 336 338 340 339 338 337 336 335 335 337 340 340 339 339 340 342 338 336 335 335 335 336 336 336 335 336 334 334 334 334 334
343 342 341 338 336 334 333 334 334 333 333 333 334 336 337 337 336 336 333 332 336 338 339 338 337 337 339 338 336 335 334 334 334 333 334 334 334 334 333 333 333 333 333
343 341 341 340 338 336 334 333 334 334 333 333 334 334 334 331 327 326 329 335 336 336 337 337 335 336 338 335 334 333 333 333 333 332 330 330 330 330 330 329 330 330 331
342 340 339 342 341 341 336 334 333 335 333 331 332 333 331 327 326 329 331 332 334 334 334 335 334 336 335 333 333 332 332 330 329 329 329 329 329 330 328 327 327 327 327
343 340 337 339 341 340 339 336 334 333 332 330 330 331 329 328 330 332 335 337 336 335 336 335 335 334 331 331 330 330 329 328 327 328 328 328 327 328 327 325 325 325 325
343 342 339 337 342 341 341 338 336 335 333 330 329 331 330 331 333 334 336 336 336 335 335 335 334 330 329 329 329 328 327 326 326 326 326 326 325 325 324 323 323 322 322
342 342 341 338 339 343 341 339 338 338 337 333 331 331 330 334 335 335 335 335 335 334 334 333 331 330 329 328 327 327 326 325 325 325 324 322 322 322 321 321 321 321 320
339 341 342 340 338 340 340 340 338 338 337 335 332 332 333 333 334 334 333 333 334 333 331 331 329 328 328 329 324 326 325 324 323 322 321 321 321 321 321 321 320 319 319
339 339 341 340 340 339 337 337 338 338 336 334 334 335 337 335 334 333 331 332 332 330 330 328 327 326 324 322 322 325 323 323 322 320 320 320 321 320 320 319 319 319 318
337 336 338 338 337 338 338 338 338 334 329 334 332 330 333 332 333 332 330 329 330 328 328 326 324 323 320 322 323 322 321 320 320 319 319 319 320 320 319 318 318 318 318
337 337 334 336 338 336 335 335 335 334 333 332 330 329 329 331 331 331 329 328 328 327 327 324 322 322 320 322 322 321 320 318 319 318 319 319 320 319 318 318 318 318 318
336 335 335 335 337 337 334 334 334 332 332 332 328 326 325 328 330 332 330 328 325 325 325 324 322 320 321 321 320 320 318 317 317 317 318 319 319 319 318 318 317 317 317
333 334 333 335 335 335 334 332 331 330 330 329 327 326 324 327 329 332 330 328 322 321 323 322 320 320 320 319 319 319 318 317 316 317 318 319 319 319 318 318 317 317 316
334 334 333 334 333 334 333 332 330 329 328 327 326 324 323 331 330 330 328 325 320 320 320 320 320 319 319 320 320 319 319 318 316 317 318 318 319 319 318 318 317 316 316
333 332 332 331 332 332 331 330 329 327 325 324 326 324 326 330 329 328 327 323 319 320 320 320 318 318 319 319 321 320 319 317 316 317 317 318 318 319 318 317 316 315 315
333 332 331 331 332 331 331 330 329 326 327 327 328 327 329 329 329 326 324 320 319 317 317 318 314 317 319 320 321 320 319 317 317 317 318 317 318 318 318 318 317 316 315
331 330 330 331 330 331 330 328 326 326 327 328 329 329 328 328 328 325 322 317 314 317 315 313 311 318 321 318 321 319 319 317 317 317 317 317 317 317 317 317 317 316 315
329 328 329 329 330 329 329 328 328 328 327 328 328 328 326 328 328 326 320 316 314 311 309 311 314 319 319 318 321 320 319 318 317 317 317 316 316 316 316 316 317 317 316
328 327 327 328 330 328 328 327 328 327 328 326 326 324 325 328 328 325 318 314 311 308 315 316 315 316 318 320 321 320 319 318 317 316 316 316 315 315 315 315 314 314 315
327 326 327 328 329 328 327 327 326 326 327 326 325 325 326 327 327 325 318 315 311 311 318 319 319 318 318 321 321 320 320 319 318 316 316 316 316 315 315 315 316 315 315
326 326 326 326 328 328 327 327 326 326 325 325 325 324 325 324 324 325 320 316 315 314 316 320 320 320 320 320 321 318 319 319 319 319 318 317 316 316 316 316 316 316 316
325 325 324 325 325 326 325 325 325 326 325 324 324 323 323 323 322 323 324 319 321 318 319 318 320 318 319 320 319 318 315 316 319 319 319 319 319 318 317 317 316 316 317
325 324 324 324 325 324 324 324 323 323 322 323 322 321 322 322 321 324 324 323 322 323 321 322 320 318 318 319 319 318 313 315 313 318 318 319 319 319 320 319 319 318 318
324 325 324 323 322 322 321 322 322 321 321 321 321 321 321 321 322 323 324 323 321 323 323 322 319 318 318 318 317 319 318 316 313 313 315 317 318 319 319 319 319 319 319
324 324 323 323 322 321 322 321 321 322 321 321 321 321 321 322 320 321 320 322 320 322 321 320 319 318 318 318 317 317 315 317 318 316 315 315 314 315 316 317 317 317 316
324 324 323 322 322 321 321 322 321 321 321 320 320 319 320 320 319 318 318 320 319 319 319 319 318 318 317 316 316 317 316 315 317 318 315 315 315 316 315 315 315 314 314

GFSSE_925_thetae_069.txt.gz
Theta_e
342 340 337 338 338 339 338 337 335 336 338 341 341 339 337 337 338 338 337 336 337 339 341 340 335 336 340 339 339 338 337 337 336 336 336 336 337 337 335 335 335 335 335
340 339 338 336 335 336 337 337 335 335 338 341 341 340 338 337 338 337 337 339 338 339 340 340 337 339 340 338 337 336 335 335 335 335 336 337 336 335 334 334 333 333 334
342 341 339 338 335 335 336 336 335 334 336 340 341 341 339 338 337 336 336 337 337 338 340 340 340 339 338 336 335 334 334 334 334 334 333 333 334 333 332 332 333 333 333
341 340 339 338 336 334 334 336 336 334 333 336 339 339 338 337 336 335 334 335 336 337 338 340 338 337 336 335 334 333 333 332 331 330 330 330 331 330 329 329 329 330 331
341 339 339 339 336 335 334 335 335 335 334 334 335 336 336 335 334 331 333 335 335 336 337 338 336 335 335 334 333 332 331 329 329 328 328 328 328 328 327 327 327 327 327
341 340 338 338 338 336 335 335 335 335 334 333 333 333 330 328 328 331 333 334 334 334 335 337 334 334 333 332 331 330 328 328 328 327 327 326 326 327 325 325 324 324 324
342 340 339 338 339 339 337 335 335 336 333 332 332 331 330 331 334 334 335 335 335 334 334 333 333 332 331 330 329 328 327 327 326 325 325 324 324 325 323 322 321 321 322
340 341 339 339 340 340 340 337 335 335 335 332 333 334 336 335 335 336 336 335 334 333 333 332 331 330 329 328 327 326 326 325 325 324 323 322 322 322 322 322 320 321 320
339 340 341 340 341 342 340 340 337 335 335 335 333 328 336 335 335 336 336 334 333 332 331 331 329 328 327 327 326 325 325 324 323 321 321 321 322 323 320 319 320 320 319
338 336 338 341 339 338 337 337 337 336 332 332 333 333 331 332 332 332 333 333 333 332 331 330 328 328 325 324 325 324 324 323 322 320 320 320 321 321 320 320 319 319 318
338 337 338 339 338 338 338 336 338 336 329 325 329 331 332 326 330 331 331 332 331 329 330 328 327 324 323 324 324 323 322 321 320 320 319 319 320 320 320 319 319 318 317
336 337 336 337 336 336 336 335 337 334 325 330 331 330 328 329 330 327 329 331 329 329 327 325 321 320 323 324 322 321 320 319 319 319 319 319 320 320 319 318 318 318 318
336 335 334 334 336 336 334 334 334 333 328 331 331 328 326 326 328 327 328 330 328 328 325 322 319 322 323 322 320 319 318 318 318 318 318 319 320 320 319 319 318 317 317
334 333 333 334 335 335 334 333 333 333 332 330 327 326 327 325 324 327 328 328 327 327 323 322 319 322 322 321 320 319 317 317 317 317 318 319 319 319 319 319 318 317 317
333 333 333 333 333 332 333 332 331 331 331 331 328 326 326 327 327 329 329 327 325 326 324 321 320 320 320 320 319 318 317 316 317 317 318 319 319 319 319 318 318 317 316
333 332 332 331 330 331 332 331 329 328 327 327 326 325 325 327 329 329 328 327 323 324 323 320 318 319 320 320 319 319 318 316 317 317 317 318 318 319 319 318 317 317 316
332 331 331 330 329 330 331 330 329 328 326 325 325 325 326 328 328 328 327 326 321 320 320 320 317 318 320 320 319 319 318 317 316 317 317 318 318 318 318 318 317 317 316
331 331 331 330 330 329 330 329 328 328 327 327 327 325 324 328 327 327 326 324 320 320 319 320 316 317 319 320 319 319 318 317 316 317 317 317 317 317 317 317 317 317 316
331 330 329 330 329 328 329 329 327 327 327 327 326 328 327 328 327 326 324 321 319 319 319 318 314 317 318 320 320 319 318 317 317 317 317 317 316 316 316 317 316 316 316
329 328 328 332 328 327 329 328 327 326 326 325 327 328 328 327 327 325 321 318 317 317 317 315 312 317 317 320 319 319 318 318 317 317 316 316 316 315 315 315 315 315 315
327 327 327 327 326 327 328 327 326 326 325 325 327 327 327 327 327 325 320 316 316 315 313 312 315 317 317 320 319 317 317 317 317 316 316 316 316 315 315 315 314 314 314
325 326 327 328 325 327 327 326 326 325 325 325 326 326 324 325 327 324 322 316 313 311 314 315 316 317 318 320 319 317 315 317 317 317 316 316 316 316 315 315 315 315 315
324 324 326 327 327 326 327 326 326 325 324 324 324 324 324 324 326 324 323 318 315 312 316 317 318 318 318 319 319 318 314 318 314 318 317 317 317 316 316 317 316 316 316
324 324 325 324 325 326 326 325 325 325 324 324 323 323 323 324 325 325 324 320 318 315 317 318 319 319 319 318 318 319 319 318 315 314 315 318 318 318 318 318 318 318 318
324 322 323 324 324 324 325 325 324 323 322 322 323 322 322 322 322 322 322 323 318 319 317 318 318 319 319 319 318 317 318 316 316 314 314 313 316 318 318 319 319 319 319
323 322 322 322 323 323 323 322 322 321 320 321 321 321 321 322 322 321 321 323 322 321 321 319 320 319 318 318 319 319 317 317 317 317 314 314 313 314 317 317 317 317 317

GFSSE_925_thetae_075.txt.gz
Theta_e
342 342 338 342 339 339 340 338 337 338 341 341 341 338 338 338 339 339 341 341 341 341 342 342 341 341 342 341 338 338 338 338 338 338 338 337 338 338 338 337 337 339 336
338 340 341 338 338 339 338 337 336 339 342 341 341 338 338 338 338 339 339 338 340 342 342 341 339 340 341 339 338 338 338 337 337 337 336 337 338 338 336 336 337 336 335
338 339 341 338 343 338 337 336 337 341 344 342 341 339 338 338 338 338 337 338 340 341 342 341 342 341 342 338 337 337 337 336 336 336 336 336 338 338 335 335 335 335 335
337 337 337 336 342 338 337 336 337 345 346 343 341 340 338 337 338 337 335 338 338 339 340 341 341 343 339 338 337 336 336 336 336 335 337 337 336 335 334 333 334 334 334
337 336 337 337 343 339 336 336 336 341 345 342 341 340 338 337 338 337 337 338 338 338 339 341 340 340 338 336 335 335 335 335 334 335 336 336 336 335 334 333 333 332 334
338 337 338 339 343 343 337 336 336 336 342 345 342 340 339 338 338 337 337 338 337 338 339 339 338 337 336 335 335 335 335 333 332 333 333 333 333 332 331 330 330 330 330
337 336 338 340 343 342 339 336 336 337 336 344 343 342 340 341 340 337 337 337 336 336 339 338 338 336 335 334 334 334 332 331 331 331 331 331 329 328 328 328 328 328 327
335 336 337 340 341 340 340 338 336 335 336 338 344 342 341 339 339 336 336 335 334 336 337 337 336 335 334 333 333 331 330 329 329 329 329 329 327 326 326 325 325 325 325
338 338 338 339 343 340 340 339 336 334 333 335 336 336 337 335 336 335 333 332 333 336 336 336 335 334 333 332 330 329 328 327 327 327 327 326 324 325 324 322 321 321 322
340 338 339 340 344 341 340 340 337 335 333 333 334 334 334 333 333 331 329 330 332 334 335 334 334 333 332 330 328 327 327 326 325 325 325 326 323 323 323 323 321 320 321
339 339 339 340 342 339 340 339 336 335 334 333 333 333 331 330 327 325 328 329 331 332 334 334 333 331 330 328 327 326 325 325 325 324 324 322 324 323 323 321 320 320 320
338 338 337 337 338 339 340 338 336 335 334 333 333 332 330 328 327 325 324 328 330 331 332 332 331 330 328 327 326 325 324 323 323 323 323 321 322 323 322 319 319 319 319
337 336 335 336 341 340 338 337 336 334 334 334 333 331 329 327 326 326 329 328 329 329 331 330 329 328 327 326 324 323 322 322 322 321 321 321 323 322 320 319 319 319 318
335 335 335 335 336 337 336 337 335 334 334 333 332 329 328 329 328 328 327 328 328 329 330 330 329 327 326 324 323 322 322 321 320 320 320 320 321 321 320 319 319 319 318
334 334 334 334 333 333 335 336 333 332 333 332 331 329 328 329 328 327 326 328 328 328 329 328 326 325 324 324 322 321 321 320 320 320 320 319 319 319 320 320 319 319 318
332 333 333 334 333 331 331 335 336 333 332 331 328 328 327 327 329 327 325 327 328 328 327 325 325 324 323 322 321 321 320 320 319 320 320 319 318 319 319 320 320 319 318
331 332 332 332 331 329 330 333 333 331 331 330 328 327 327 327 328 327 326 327 327 327 325 323 323 322 322 321 320 320 319 319 319 320 320 320 319 318 319 318 319 319 318
331 330 329 332 329 329 329 332 329 331 331 328 329 328 328 328 328 327 326 326 326 326 323 321 321 321 321 321 320 319 319 319 319 319 320 319 319 319 318 318 318 317 317
330 330 329 329 329 328 327 330 329 330 329 328 326 326 327 327 327 327 326 325 326 323 321 320 321 321 321 320 320 319 319 318 319 319 319 319 320 319 318 318 317 317 317
329 330 328 328 328 327 326 326 328 327 327 327 326 327 327 327 327 327 326 325 326 321 319 319 320 320 321 320 319 319 319 318 318 318 318 319 319 319 319 319 318 317 316
329 328 328 327 327 326 327 325 327 327 327 327 327 326 325 325 327 327 326 326 325 322 320 319 319 320 320 320 319 318 318 318 318 318 318 318 318 318 318 318 318 318 317
328 328 328 328 327 327 326 326 325 325 325 326 326 326 327 326 325 326 325 325 324 322 320 318 318 320 320 319 320 320 321 319 318 318 317 318 318 318 317 317 318 318 317
327 328 328 327 327 326 325 325 325 324 324 324 325 326 325 325 324 326 325 324 322 320 320 318 317 318 319 319 320 321 322 324 319 318 318 317 317 317 317 317 316 316 315
328 328 326 325 326 325 324 325 325 324 324 324 324 326 325 325 325 326 325 324 322 319 319 318 317 317 318 319 319 318 321 320 322 321 316 318 317 317 316 316 317 315 315
328 327 325 325 325 324 324 325 324 324 325 323 324 324 325 325 326 326 325 323 321 318 317 317 316 316 318 320 320 319 318 319 320 322 322 318 317 317 319 319 318 319 317
327 325 322 324 324 324 323 325 325 324 323 323 323 323 324 324 324 325 325 324 319 316 317 317 317 317 317 319 319 320 319 319 319 318 318 318 319 317 317 313 314 318 318

GFSSE_925_thetae_078.txt.gz
Theta_e
341 343 335 335 335 339 343 339 339 342 340 337 335 335 337 339 340 341 341 341 342 343 343 344 342 343 343 341 336 336 339 338 339 339 339 339 339 339 337 338 339 340 337
343 344 333 333 335 337 340 341 338 340 341 339 338 337 338 339 339 340 340 341 342 342 342 342 341 342 342 339 338 339 338 338 338 337 338 339 339 338 337 338 338 338 337
345 347 339 336 335 338 339 339 338 338 341 341 340 338 339 339 339 340 341 341 341 341 341 341 342 342 340 339 338 338 338 338 337 336 338 339 339 337 336 336 336 336 336
343 345 345 338 334 338 338 338 337 338 341 342 342 340 339 340 340 340 340 340 341 341 340 342 343 340 339 338 338 337 337 336 336 337 338 338 337 336 336 335 335 335 335
343 344 345 340 339 340 338 337 337 338 342 344 343 341 340 341 340 340 337 340 341 340 340 342 341 340 338 337 337 337 336 336 336 338 337 336 337 336 335 335 335 334 335
343 343 344 339 342 340 338 337 337 344 347 347 345 342 342 343 341 339 337 339 340 340 340 340 340 339 338 337 336 336 336 335 336 336 337 336 336 335 334 334 335 334 333
343 344 341 337 339 339 337 337 338 339 347 347 345 344 343 343 342 338 339 338 338 339 339 339 339 338 337 335 335 335 335 334 335 335 334 335 334 333 332 332 331 331 331
344 344 344 338 339 341 339 337 337 338 340 345 345 340 343 341 341 337 337 337 337 336 336 338 338 337 336 335 335 335 333 333 333 333 333 332 331 330 330 329 328 328 327
344 344 344 342 341 341 340 338 337 337 336 334 336 335 339 338 338 336 335 335 334 334 337 337 337 336 335 334 334 333 331 331 331 331 331 330 327 327 327 327 326 326 326
344 345 342 344 343 343 342 339 338 336 335 333 334 334 334 334 334 334 334 334 332 334 337 337 336 335 334 334 333 331 330 329 330 329 328 328 325 327 325 324 324 324 324
343 344 344 344 344 341 344 343 339 337 335 334 334 335 335 333 334 328 328 331 329 331 333 335 335 334 333 331 330 328 328 328 327 327 327 324 324 325 325 323 321 321 321
342 342 342 343 341 341 341 342 341 339 336 336 336 334 336 334 333 333 330 329 327 327 331 331 333 333 331 330 328 327 327 327 326 325 326 323 324 325 324 322 321 321 320
340 340 341 342 341 340 339 341 340 339 338 337 337 334 333 333 332 330 328 328 329 328 329 331 331 331 330 329 328 327 326 326 325 324 323 322 323 325 323 321 321 320 320
339 339 339 338 338 338 338 340 339 339 338 337 337 335 332 332 330 329 325 328 329 329 329 331 331 330 329 328 327 326 326 324 323 322 323 321 323 324 322 321 320 320 319
338 338 338 337 336 338 336 336 337 338 337 337 337 336 333 331 331 330 330 329 327 329 328 331 330 329 329 328 327 326 325 323 322 321 321 321 322 321 321 320 319 320 319
337 338 338 336 337 336 335 333 333 336 335 334 334 334 335 332 331 329 329 328 329 328 328 329 329 328 327 327 326 325 324 321 321 320 320 321 320 320 320 322 322 321 320
336 337 337 335 334 335 334 331 332 333 333 332 333 332 331 329 329 329 328 328 328 328 327 328 327 327 326 326 325 324 322 321 320 320 319 320 320 319 319 321 321 320 320
335 336 336 333 334 334 332 329 330 331 334 331 330 330 329 329 329 328 327 327 328 328 327 326 327 326 325 325 324 323 322 321 319 319 320 320 320 320 319 319 319 319 318
335 336 335 333 333 333 331 329 330 332 330 330 330 329 328 328 329 328 327 327 327 327 327 326 326 326 325 324 324 323 322 322 320 319 320 320 320 319 319 319 318 317 317
334 336 334 332 332 332 331 328 328 329 329 329 329 328 328 328 328 328 328 326 325 326 324 325 326 325 325 324 323 323 323 322 321 320 319 319 319 319 319 320 318 318 317
334 336 334 332 332 330 329 327 327 328 328 327 327 327 327 327 328 328 327 326 324 325 324 324 326 325 324 324 322 322 322 322 322 321 320 319 319 319 319 319 318 317 317
334 335 333 332 331 330 329 327 327 327 327 327 327 326 327 326 326 327 326 324 324 322 322 323 325 325 324 323 323 322 323 322 321 322 321 320 319 319 318 318 318 318 318
333 334 333 332 331 330 330 329 329 327 326 326 326 326 325 328 326 326 326 324 324 323 321 323 324 324 324 323 323 322 324 324 322 322 321 320 319 319 318 318 318 318 318
332 334 333 332 331 330 329 328 328 327 326 326 326 325 325 325 326 325 325 325 324 324 322 322 324 324 323 323 323 322 321 320 324 325 322 321 320 319 319 318 318 318 318
331 333 333 332 330 330 328 327 327 327 326 326 326 325 325 324 323 322 324 324 324 323 324 323 323 323 323 322 323 323 323 323 322 322 323 322 322 320 320 320 320 320 320
331 333 332 331 329 329 328 327 327 326 325 327 325 326 324 324 323 323 324 324 323 322 322 322 321 321 322 322 322 322 322 322 322 322 322 322 322 321 320 320 320 321 321

GFSSE_925_thetae_081.txt.gz
Theta_e
339 344 339 342 343 343 341 343 343 342 340 337 336 336 338 339 339 339 340 341 342 342 344 345 343 341 340 338 338 336 336 337 337 338 339 340 340 338 337 338 340 341 338
342 344 335 335 336 342 342 340 342 343 341 339 336 336 337 338 339 340 341 342 342 342 344 343 343 343 343 339 336 338 338 338 339 339 339 339 339 338 338 339 339 338 338
344 343 334 333 334 335 342 342 339 342 342 340 337 336 337 339 340 341 342 342 342 342 344 343 342 343 340 338 339 339 338 338 337 337 338 339 340 338 338 338 337 337 337
343 346 344 333 334 335 337 341 341 339 341 341 340 338 338 340 340 339 342 342 343 343 343 343 343 342 339 338 338 338 338 337 336 337 339 338 339 337 336 335 336 337 337
339 343 345 336 334 337 338 339 339 339 340 342 341 341 339 340 341 339 340 342 342 342 340 341 342 341 338 338 338 337 337 336 336 337 338 338 337 337 336 336 335 334 336
339 340 345 341 335 337 338 338 338 338 342 344 343 342 341 343 341 338 339 342 342 341 340 340 341 339 338 338 337 336 336 336 336 336 336 336 337 336 335 335 335 335 334
340 342 345 339 335 336 338 337 337 339 343 345 345 345 344 342 342 338 338 341 341 339 340 340 339 338 337 337 336 336 335 336 336 336 336 336 336 336 335 335 334 333 333
342 344 346 339 337 338 339 337 337 339 345 345 345 343 344 341 340 338 337 337 337 337 337 338 339 338 337 336 336 335 335 335 334 335 335 335 334 335 334 332 332 331 331
344 345 347 343 341 339 339 338 337 338 340 342 342 338 339 338 337 339 336 336 336 335 336 337 338 338 336 335 335 335 334 334 334 333 333 333 331 331 330 329 329 328 326
345 345 347 345 345 344 343 339 338 337 338 337 337 335 336 337 337 337 335 334 334 333 334 335 335 337 335 335 335 334 333 332 332 331 331 331 328 329 328 327 327 327 326
344 345 345 345 345 344 343 342 339 338 336 336 336 336 335 337 336 334 329 332 333 332 332 333 331 335 334 334 334 333 332 328 329 329 329 326 326 327 327 326 326 325 324
342 344 347 345 344 344 341 343 343 342 339 338 336 337 337 337 336 331 331 326 330 331 330 331 330 331 333 332 331 331 330 329 327 327 328 324 324 326 325 321 322 322 322
341 342 343 345 343 343 340 341 343 341 340 338 338 338 337 337 334 330 329 327 331 329 329 330 329 330 332 331 331 329 329 327 326 327 326 324 324 326 324 322 321 320 320
339 341 342 344 342 341 339 343 341 339 338 339 339 338 335 336 335 332 333 332 330 328 327 328 328 332 331 330 330 328 327 325 325 326 325 323 324 325 324 322 322 321 320
336 339 341 342 340 340 339 339 341 339 339 339 338 337 335 335 334 332 332 332 330 329 326 329 329 332 331 329 328 327 325 325 324 325 324 321 324 324 323 322 322 321 320
334 338 340 341 339 338 338 337 339 339 339 339 338 337 335 334 333 332 330 331 331 330 327 328 329 330 330 328 327 325 324 324 323 322 323 323 322 322 321 321 322 321 320
329 337 340 341 339 338 337 337 337 336 336 335 336 336 335 334 333 332 332 331 329 328 327 327 329 329 329 328 326 325 324 322 321 321 322 322 321 321 320 321 322 322 321
329 336 340 340 338 338 336 335 334 334 335 334 334 334 334 333 333 331 330 330 329 327 328 328 328 328 327 326 325 324 323 321 320 321 320 320 320 320 320 321 320 319 319
331 336 340 339 337 337 336 333 331 331 332 333 333 331 332 332 331 330 329 329 327 328 328 327 327 327 326 325 324 323 322 321 320 320 320 321 320 320 320 320 320 319 318
332 336 339 338 338 336 334 332 332 330 329 330 330 332 331 330 329 330 328 328 327 327 327 326 326 326 326 325 324 323 322 322 320 319 320 321 321 320 320 320 319 318 317
333 337 339 338 337 335 333 332 331 331 331 330 329 329 329 329 329 330 329 327 326 326 326 326 326 325 325 324 323 322 322 322 322 320 320 319 320 320 320 322 320 319 318
334 337 339 337 336 334 332 331 330 331 331 330 330 328 328 327 328 328 328 327 326 325 326 326 325 325 325 323 323 323 324 323 323 321 321 320 320 320 320 320 320 319 319
333 337 338 337 335 333 332 331 330 328 330 329 330 330 328 329 329 328 327 326 325 325 324 324 325 325 324 324 323 323 324 324 322 323 322 321 320 320 320 320 320 319 319
332 335 337 336 335 333 332 330 330 330 328 329 329 329 328 329 329 328 325 325 325 324 322 322 325 325 324 325 324 323 321 320 324 325 323 322 322 321 320 320 319 319 319
332 335 336 336 335 333 332 331 330 328 329 329 328 328 327 326 325 324 326 324 324 323 323 322 324 324 324 324 324 324 323 323 323 324 325 324 323 321 320 320 319 319 319
331 335 336 335 334 333 333 331 329 328 328 329 328 328 326 325 324 324 325 324 324 323 323 322 324 324 324 324 324 324 323 323 323 322 324 324 324 323 322 321 320 320 320

GFSSE_925_thetae_084.txt.gz
Theta_e
348 339 341 342 342 343 343 343 343 343 341 339 337 336 337 337 338 340 340 341 342 340 341 343 341 342 341 341 340 339 338 338 338 338 336 335 337 337 337 340 340 339 338
346 337 339 341 342 342 342 343 343 342 341 339 337 336 336 337 339 339 339 341 341 341 345 344 342 341 340 338 338 337 336 337 337 337 337 337 337 337 338 340 338 338 337
345 333 335 336 339 342 342 342 343 342 342 340 337 336 336 338 338 338 339 341 341 343 345 344 342 341 337 335 334 336 337 337 337 337 337 339 338 338 339 337 338 337 337
344 331 332 332 333 336 341 341 341 342 342 341 339 336 337 337 338 339 341 342 342 343 344 344 343 342 339 337 337 337 337 337 336 338 339 338 339 337 336 337 337 337 337
344 341 337 331 332 332 334 341 341 340 342 342 341 339 337 337 337 339 340 341 342 342 343 343 343 340 338 338 338 337 336 335 337 337 338 338 338 338 337 337 336 336 336
342 343 341 331 332 333 335 337 339 340 340 342 342 341 340 339 338 338 339 340 342 342 340 342 341 339 337 337 337 337 335 336 337 336 336 336 337 336 336 335 335 335 335
341 343 345 341 333 334 336 338 339 339 340 344 344 343 342 341 338 338 338 339 341 340 339 340 341 338 337 337 337 336 336 337 335 336 336 335 336 337 336 335 335 334 334
343 347 345 343 336 336 338 338 338 339 341 343 343 344 344 343 340 338 337 337 338 337 337 337 338 338 337 337 336 335 336 336 335 335 334 334 334 335 335 334 334 333 332
343 347 347 340 338 338 338 338 338 339 340 343 343 344 343 341 339 338 337 336 337 337 336 335 337 337 336 336 335 335 335 335 334 335 333 333 333 335 334 332 332 331 329
345 346 348 343 339 339 338 338 338 337 339 340 342 342 340 338 339 338 336 327 331 334 334 334 336 337 336 335 335 334 334 333 333 333 333 331 331 331 330 330 328 327 326
346 346 348 346 346 345 344 341 337 337 338 338 338 338 338 337 337 337 332 329 331 329 334 333 333 332 334 333 332 333 333 332 333 332 332 330 330 331 328 328 327 326 326
346 346 347 344 346 345 344 342 341 339 337 337 337 337 337 336 336 337 334 331 329 331 331 332 332 330 332 332 332 331 331 331 330 331 329 327 328 330 327 326 325 325 324
343 346 348 344 346 345 342 343 341 342 341 339 338 337 337 337 336 334 331 329 327 328 331 330 327 329 331 331 331 330 330 329 329 329 326 325 326 327 326 325 324 324 322
340 344 348 345 344 344 341 341 341 343 341 339 338 337 337 337 335 332 331 326 327 331 332 331 331 329 329 332 331 331 330 327 328 326 324 324 324 325 324 323 322 321 320
337 341 344 346 344 344 342 341 342 341 339 338 338 337 337 337 335 333 331 329 329 331 330 331 330 328 329 331 330 330 328 326 327 325 324 323 323 324 324 323 323 321 320
330 340 343 345 344 342 341 340 340 340 340 339 337 337 336 335 335 334 334 332 332 330 330 329 327 328 329 329 329 328 325 325 325 324 321 324 324 323 322 323 322 321 320
328 334 342 343 342 341 339 339 338 337 340 339 338 336 336 335 334 332 332 333 331 331 329 327 327 327 329 329 328 326 325 324 323 324 321 322 323 321 320 320 320 320 320
326 331 343 343 341 340 338 337 336 336 338 337 335 335 335 334 333 332 331 331 331 331 329 327 327 327 328 328 327 325 324 322 321 323 322 321 321 320 320 319 319 319 319
323 328 343 342 340 340 338 336 335 334 336 334 333 334 334 333 332 332 331 331 330 329 329 328 327 327 328 327 325 324 322 321 321 322 322 321 320 319 319 321 320 318 318
322 334 343 342 340 339 338 335 331 331 332 333 333 333 332 332 332 332 331 330 330 328 327 327 328 328 327 326 324 324 322 321 320 320 322 320 319 319 320 320 320 318 318
326 339 343 341 339 339 335 332 332 330 330 330 330 330 331 331 331 331 330 329 328 328 327 328 328 327 326 325 324 323 323 321 319 320 322 321 320 320 321 320 318 318 318
334 338 343 340 339 338 335 332 333 331 331 329 329 328 329 330 330 330 329 328 327 326 327 327 326 326 326 325 323 323 322 322 321 321 320 320 321 321 321 320 320 318 318
334 339 342 340 339 337 334 333 331 331 330 329 329 329 329 328 328 329 329 328 327 326 326 326 325 325 326 325 323 322 323 323 322 321 321 320 321 320 319 322 321 319 319
333 339 340 340 338 337 334 332 331 330 330 329 329 329 329 330 329 329 327 327 327 326 326 326 325 325 325 324 323 322 321 322 321 322 322 320 321 320 320 320 320 320 320
333 339 340 339 337 336 334 332 331 330 329 329 330 329 329 328 329 329 328 326 326 326 325 325 325 325 324 324 323 323 321 323 321 322 322 323 322 322 321 321 321 320 319
332 338 339 338 336 335 334 332 331 330 329 328 329 328 327 326 325 326 326 326 324 325 325 325 323 323 324 324 324 323 324 324 324 323 323 322 322 322 321 320 320 320 319

GFSSE_925_thetae_087.txt.gz
Theta_e
343 341 341 341 342 342 342 343 343 342 341 339 336 335 335 337 338 342 343 342 341 340 340 340 339 342 342 340 340 339 339 339 338 337 336 337 337 337 338 338 338 337 337
341 341 341 341 341 342 342 342 343 343 341 339 337 336 335 335 336 339 342 342 341 341 341 340 340 341 341 340 339 338 338 338 337 336 336 336 337 339 340 338 337 337 337
339 341 341 340 340 340 341 342 342 342 341 339 337 336 335 336 336 338 340 342 341 344 343 341 341 340 339 339 338 337 337 337 337 336 336 336 338 339 339 337 337 337 337
337 339 340 337 337 338 341 342 342 342 341 340 338 336 336 336 337 337 339 341 341 343 344 342 343 341 336 335 335 335 336 337 337 336 336 338 338 338 336 337 337 337 337
334 335 335 333 333 336 340 340 341 342 342 341 340 337 336 336 337 338 339 340 341 343 344 344 343 339 335 335 336 336 336 336 338 337 337 337 337 337 338 337 337 337 336
332 332 330 330 331 333 337 340 340 340 341 341 341 339 337 337 337 338 338 339 341 341 342 343 342 339 336 336 336 336 335 336 337 337 336 337 337 337 337 336 336 335 335
341 338 330 330 330 332 333 337 339 340 340 341 341 341 340 338 338 338 338 338 340 341 339 342 341 338 336 336 336 335 336 337 337 336 335 336 336 337 336 336 335 335 335
343 344 340 335 331 332 335 337 338 338 339 341 342 342 342 341 339 338 337 337 337 337 337 337 338 338 336 336 336 336 336 336 336 335 335 335 335 336 336 335 334 334 334
343 344 343 338 332 333 336 337 336 337 339 342 342 342 342 342 342 339 338 337 337 336 336 335 336 337 336 336 335 336 336 335 335 335 334 334 334 334 333 334 333 332 331
342 345 343 336 333 334 337 337 337 337 338 340 341 342 343 342 341 339 339 338 336 328 330 334 335 336 336 335 335 335 335 334 334 333 333 333 332 334 334 332 332 330 328
345 345 346 338 335 335 335 336 337 336 337 338 342 343 340 338 338 339 338 336 332 325 325 329 334 333 331 333 334 334 332 333 332 333 332 332 331 332 330 330 328 328 326
346 347 346 345 342 340 341 340 336 336 336 337 337 337 338 338 337 338 336 332 327 327 328 329 334 331 331 332 333 332 332 332 332 332 331 331 333 334 329 328 327 326 326
345 348 347 345 346 345 344 341 340 338 336 336 335 335 336 337 335 336 335 329 331 328 330 326 331 330 331 331 332 331 330 330 332 331 330 330 331 332 329 326 325 325 323
345 345 345 345 342 343 345 342 340 341 340 337 335 337 337 337 335 335 335 332 331 330 329 331 327 330 331 331 330 330 330 329 331 330 328 328 327 328 329 326 325 323 322
338 346 345 346 341 341 344 343 339 343 341 339 337 338 337 336 335 334 333 331 328 328 328 331 329 328 331 331 328 329 329 329 330 328 326 325 325 325 326 326 324 323 321
323 344 346 346 343 339 340 342 338 342 342 340 338 337 336 336 336 334 330 327 327 330 330 329 328 329 331 330 330 329 328 328 327 325 324 324 324 323 323 323 322 322 322
319 328 346 345 343 340 339 341 339 341 340 339 338 337 337 336 336 334 331 330 328 330 331 331 329 329 329 329 330 328 326 326 325 324 324 324 324 322 320 321 321 320 321
318 323 345 344 343 343 342 340 338 339 340 338 337 337 336 335 335 334 334 333 331 330 330 330 329 328 328 328 328 327 325 325 324 322 322 324 323 321 321 320 320 320 320
317 322 344 344 343 342 341 338 334 337 338 338 337 335 335 335 334 333 333 333 332 331 330 329 327 327 327 328 327 327 323 323 323 322 321 322 321 320 319 320 319 318 319
318 323 342 342 341 340 337 337 336 334 334 336 335 333 333 334 333 333 332 331 331 330 330 329 327 327 327 328 327 325 322 321 323 322 321 320 320 319 319 319 319 319 319
318 335 341 340 339 338 338 336 334 332 332 335 333 332 332 332 333 332 331 331 330 329 329 329 327 327 326 327 324 323 321 320 320 322 321 320 319 319 318 319 320 318 318
319 338 341 340 339 338 336 335 332 330 330 331 332 330 331 331 331 331 331 330 329 328 328 328 326 327 327 326 323 322 322 321 320 321 321 320 320 319 319 319 319 319 317
330 340 339 339 338 337 336 335 332 329 329 329 329 328 327 328 330 330 330 329 328 327 327 327 327 326 326 325 323 322 322 321 321 321 321 321 320 319 319 320 319 318 317
340 340 339 338 337 337 336 334 332 330 329 329 327 327 327 328 329 330 330 328 328 327 327 326 327 326 326 324 324 322 321 321 320 321 321 320 321 321 321 321 320 320 319
338 340 338 338 337 336 334 332 331 330 330 329 328 328 329 329 328 328 328 328 328 327 327 326 326 325 325 324 323 321 321 321 321 320 320 320 319 320 320 320 321 321 320
337 340 338 338 337 336 334 332 330 330 329 328 328 329 329 328 329 329 328 328 326 327 326 326 326 325 325 324 323 322 321 322 321 321 319 319 319 319 321 320 320 321 320

GFSSE_925_thetae_090.txt.gz
Theta_e
345 344 343 342 342 342 341 341 341 340 338 336 335 335 335 340 342 343 343 341 340 338 339 339 339 341 342 341 341 340 340 340 340 338 336 338 340 339 338 338 338 338 337
340 344 344 343 342 342 342 342 341 340 339 337 335 335 336 338 341 342 342 341 340 339 339 339 339 341 340 339 339 338 338 338 337 336 337 339 340 341 337 337 337 337 337
338 341 342 342 342 342 342 342 342 341 340 338 336 335 335 337 339 341 342 341 341 340 342 342 340 341 340 339 338 338 337 336 335 336 337 339 340 339 337 336 336 337 337
337 340 341 342 341 341 341 342 342 341 340 338 337 336 336 337 338 339 340 341 344 343 345 344 342 340 339 339 338 337 337 336 336 336 337 337 340 339 336 336 336 337 337
338 339 340 340 340 340 340 341 341 341 340 339 337 336 336 337 337 338 339 339 343 343 344 345 344 339 337 336 336 337 337 336 336 336 336 337 339 338 337 337 337 336 336
337 338 337 337 338 340 340 340 341 341 341 340 339 337 336 337 337 337 338 340 341 343 343 343 343 338 335 335 336 337 338 337 336 336 337 337 337 337 337 337 336 336 335
333 333 334 337 339 338 338 338 339 340 340 340 340 339 337 337 338 338 338 338 339 339 339 339 339 337 335 336 336 336 337 337 336 336 336 336 337 340 337 336 335 335 335
329 331 332 332 333 333 336 337 338 338 339 340 340 340 339 338 338 338 338 338 338 338 338 338 336 335 335 336 335 336 336 336 336 336 336 336 336 337 336 335 335 335 335
331 331 331 332 331 332 334 336 336 337 338 339 339 340 340 340 339 339 337 338 338 337 336 336 334 335 333 335 335 336 336 336 335 335 335 335 335 335 335 335 334 334 334
342 340 337 333 332 335 336 336 336 337 337 339 341 341 341 342 342 340 338 338 337 336 336 335 331 334 333 333 336 336 336 335 334 334 334 334 334 338 337 334 333 333 331
343 342 341 338 332 335 336 336 336 336 338 338 341 341 342 343 342 341 339 338 336 335 335 333 329 329 333 332 334 335 335 334 333 334 333 333 334 335 334 332 331 330 329
345 344 342 336 331 334 336 337 336 336 338 337 340 342 342 341 339 339 338 338 336 333 329 329 329 328 331 330 332 334 333 333 333 333 332 332 334 334 332 331 329 328 328
343 344 344 341 332 332 335 336 336 336 336 336 339 340 339 339 337 338 338 337 335 327 326 330 331 332 330 330 331 332 332 332 332 332 332 331 333 333 333 328 327 325 326
345 343 344 343 339 334 336 340 336 335 335 336 336 337 336 337 337 336 336 333 329 327 328 328 328 329 329 330 330 331 331 331 331 331 331 330 332 332 332 328 326 325 325
344 346 345 345 342 339 340 342 339 338 336 335 335 335 335 335 335 334 335 332 329 329 330 328 329 328 327 328 329 330 330 330 331 331 330 329 330 330 329 330 325 325 323
342 345 345 345 344 342 340 343 341 338 339 337 336 336 336 335 335 334 334 333 331 330 330 329 328 326 327 329 329 330 329 328 331 331 329 329 327 326 328 329 327 324 322
322 339 345 345 344 342 341 343 342 339 342 340 338 337 337 336 335 334 333 332 331 330 330 331 327 326 327 329 329 329 328 328 330 329 327 326 324 324 324 325 323 323 322
320 329 338 343 344 342 340 342 340 340 341 342 339 338 337 336 335 335 333 331 329 328 330 331 330 329 328 328 329 328 327 328 328 326 324 323 324 323 322 322 321 320 320
315 318 336 343 344 343 340 341 340 340 340 341 339 338 337 336 335 335 333 332 329 328 333 333 329 328 329 329 328 328 326 326 326 324 323 323 323 322 321 321 320 319 320
315 314 331 340 343 341 339 340 339 340 339 338 338 337 336 335 335 334 333 332 331 329 329 331 329 329 328 328 328 327 323 324 324 323 323 323 323 321 320 320 320 319 318
315 316 334 341 341 340 338 337 336 337 338 337 336 336 335 334 334 334 332 333 332 331 329 330 329 328 328 327 328 326 320 322 323 322 323 322 322 320 319 319 319 318 318
314 319 339 340 340 339 338 336 333 334 332 331 335 334 334 334 332 333 333 332 331 330 327 329 328 327 327 327 326 323 321 319 320 321 321 321 320 319 319 319 319 319 318
314 334 339 339 338 337 336 334 333 331 331 331 332 333 333 332 333 332 332 331 329 326 328 327 327 327 327 326 325 322 321 322 320 320 321 320 319 319 319 319 319 319 318
316 330 338 338 337 336 335 333 332 330 328 329 329 331 331 331 331 331 331 329 329 328 327 326 326 327 326 325 323 322 321 320 320 320 319 320 320 320 319 319 318 318 318
329 336 338 338 336 333 334 334 331 328 327 327 328 330 327 326 328 329 330 330 329 328 326 325 326 326 326 324 323 322 321 320 320 319 320 318 320 319 319 319 319 319 319
323 338 338 337 334 333 333 332 331 328 328 328 328 327 327 327 328 328 330 329 327 327 327 326 326 326 326 325 323 321 321 320 320 319 318 317 319 320 320 320 320 320 320

GFSSE_925_thetae_093.txt.gz
Theta_e
342 341 341 342 341 340 339 338 337 335 334 334 336 339 342 343 343 341 341 339 337 340 338 339 340 343 341 341 340 339 339 340 341 339 339 341 340 339 337 338 339 338 338
339 342 341 342 342 340 339 339 338 336 335 334 334 337 341 342 343 343 343 339 337 338 338 338 341 342 341 341 340 340 340 340 339 337 339 339 341 341 338 337 337 337 337
340 342 341 342 342 341 340 340 339 337 336 334 334 335 339 342 343 344 342 340 339 340 343 341 341 341 340 340 339 338 338 338 337 336 338 339 340 342 337 337 337 337 337
337 342 342 342 342 341 341 340 339 339 337 336 334 335 337 339 341 342 341 340 340 341 344 343 343 340 339 339 338 337 337 336 336 337 338 339 340 341 339 337 337 338 337
342 342 343 341 342 342 341 341 340 339 338 337 335 335 336 338 339 340 341 340 342 342 344 344 345 339 339 338 337 337 336 335 336 336 338 339 341 339 338 337 337 337 336
341 341 341 341 341 341 341 341 341 340 339 338 336 335 336 337 337 338 339 340 343 343 342 344 343 338 337 337 337 337 336 336 336 337 337 338 339 339 338 337 336 336 335
340 341 341 340 339 340 340 341 341 340 339 338 337 336 336 336 337 337 338 339 342 342 340 339 338 337 335 335 336 337 336 336 336 336 337 337 337 339 338 336 335 335 334
337 339 338 337 336 338 339 340 340 340 340 340 339 337 336 336 337 337 338 338 338 338 338 338 338 336 335 336 337 337 336 336 336 336 336 335 338 337 338 336 335 335 334
337 335 335 335 336 337 339 339 338 338 339 339 340 339 338 337 337 337 338 338 338 337 337 338 337 334 335 335 335 334 336 336 335 335 335 336 336 337 338 335 335 335 334
337 337 336 333 332 333 336 338 337 337 338 339 340 340 340 339 338 338 338 338 338 336 337 337 335 333 333 333 334 331 333 336 335 335 335 335 336 337 335 335 335 334 333
337 335 334 334 334 333 334 336 337 337 338 338 339 340 341 341 340 339 338 337 337 336 336 336 335 332 331 331 330 328 332 335 334 334 335 334 335 336 336 335 334 333 334
339 335 333 333 334 334 333 334 336 336 337 338 339 341 341 342 342 341 339 338 337 336 335 335 333 333 330 329 330 330 331 334 334 333 333 334 334 337 337 334 332 332 330
341 340 339 337 333 333 334 335 335 337 337 337 338 341 341 342 342 341 340 338 337 336 335 334 331 330 328 329 330 329 330 332 333 332 333 333 336 335 336 332 330 328 329
343 342 341 339 334 330 331 332 334 335 336 336 338 340 342 342 339 338 338 338 335 334 331 328 327 329 329 329 330 329 330 331 332 332 332 331 332 333 332 331 328 326 327
340 343 342 339 335 331 332 332 332 332 333 334 336 340 340 339 338 337 338 337 335 334 328 329 330 331 330 330 329 329 330 330 331 331 331 330 329 331 331 331 328 326 324
331 341 343 342 339 334 332 331 332 332 331 333 335 337 336 335 336 336 336 336 333 331 327 329 327 330 329 328 329 329 329 330 330 331 330 329 329 329 329 330 330 326 324
315 324 342 343 342 339 335 336 336 335 335 334 335 335 335 334 334 334 333 335 334 332 331 328 328 329 328 327 327 328 329 329 330 330 330 330 330 328 328 328 328 326 324
313 317 334 343 343 343 340 339 339 339 337 336 335 335 335 334 334 334 333 332 332 331 331 328 329 328 329 328 328 329 328 328 329 329 330 329 327 324 325 327 327 325 324
312 313 324 341 343 344 343 341 340 341 338 338 338 336 336 336 336 335 333 332 334 330 329 328 328 326 328 328 329 328 328 328 328 329 329 327 324 323 322 324 325 323 321
312 312 317 333 341 342 342 340 341 341 340 341 341 339 337 337 336 335 334 332 331 331 327 327 329 328 328 327 328 327 327 327 327 327 328 324 323 322 322 321 321 319 319
312 311 313 336 340 341 339 338 337 338 339 340 341 341 338 337 335 335 334 332 331 329 327 328 329 329 328 328 327 325 325 324 325 326 325 323 323 322 321 321 320 319 318
311 312 314 333 337 340 339 338 337 338 337 338 339 339 337 336 335 335 334 332 333 329 328 327 328 326 327 328 327 322 321 320 322 324 324 323 323 322 320 320 320 319 318
316 312 320 331 336 338 338 336 335 336 335 334 336 336 334 335 334 334 333 330 331 328 329 329 327 326 327 327 327 324 322 323 321 321 322 323 323 322 320 319 319 319 318
313 317 323 332 336 338 337 335 333 333 333 333 334 334 333 334 334 333 332 332 330 330 328 328 326 326 326 326 325 325 321 320 322 321 319 321 321 321 320 319 319 319 318
312 315 326 335 336 337 335 334 332 332 331 330 331 330 333 333 332 332 332 331 331 329 328 327 326 326 326 325 325 323 321 320 320 320 321 318 318 319 319 319 318 319 319
310 314 330 336 336 335 333 332 332 330 328 328 328 328 330 331 331 331 330 329 329 328 328 326 326 326 325 326 324 323 321 320 320 319 318 318 319 319 319 319 318 318 318

GFSSE_925_thetae_096.txt.gz
Theta_e
336 338 337 340 341 340 337 335 334 337 342 343 344 344 344 343 341 338 336 333 334 340 346 346 340 340 340 341 339 339 336 339 340 340 339 340 340 339 338 338 338 338 338
335 339 339 339 341 339 337 336 334 335 337 339 341 343 343 343 341 339 338 335 336 341 345 345 341 341 341 340 338 338 338 340 340 339 339 340 339 339 338 338 337 337 337
337 339 341 341 341 339 338 337 335 334 335 336 337 339 342 342 341 340 340 337 337 340 344 342 341 341 340 340 340 340 340 340 338 337 338 340 338 340 339 337 337 337 337
338 341 341 341 341 339 338 337 336 335 335 335 335 337 339 342 342 342 341 338 338 340 341 342 341 341 340 340 338 339 339 338 337 337 338 339 339 339 339 336 337 337 337
339 340 341 341 341 340 339 338 337 336 335 335 335 337 339 342 343 343 341 340 340 341 340 344 341 340 339 339 338 337 337 337 336 337 338 339 338 339 340 337 337 337 336
340 341 341 341 341 340 340 339 338 337 336 335 335 336 338 341 342 342 341 340 340 341 341 343 343 339 339 338 337 337 336 336 336 337 338 338 337 338 337 337 336 336 335
338 341 341 341 341 341 341 340 340 339 337 336 336 335 336 337 339 340 341 340 341 341 341 342 342 338 338 338 337 337 336 336 336 337 338 338 337 339 340 336 336 335 335
340 341 342 341 341 341 341 341 340 340 338 337 336 336 336 336 337 338 339 339 342 342 340 340 338 337 337 337 337 336 336 336 336 337 337 337 338 337 339 336 335 334 335
341 341 341 341 341 340 340 340 340 340 339 338 337 337 336 337 337 337 338 339 341 339 338 338 337 337 336 335 334 335 336 336 336 336 336 335 336 338 338 335 334 334 334
341 342 343 343 341 340 339 338 338 338 339 339 339 338 337 337 337 337 338 339 338 337 337 338 337 336 335 335 334 335 335 334 335 334 334 334 335 336 337 336 335 334 334
341 342 343 345 343 341 340 338 338 338 337 338 339 339 339 338 338 338 338 339 339 337 337 337 337 334 333 332 331 332 329 329 331 332 333 333 335 336 336 336 336 334 334
338 340 340 342 343 341 338 339 338 338 337 337 338 339 339 340 339 338 338 338 338 337 336 337 336 333 332 331 334 331 327 327 330 332 333 333 335 336 336 335 334 333 332
339 337 337 337 335 335 336 338 338 338 337 337 337 338 339 340 341 340 339 339 339 337 336 336 335 333 331 332 331 328 327 326 329 331 332 332 334 336 334 334 332 332 331
341 339 336 335 336 334 334 335 337 337 336 336 336 338 340 341 341 342 341 340 338 337 335 335 334 333 332 330 329 328 328 326 329 330 332 332 333 334 334 335 331 330 329
333 340 341 339 337 336 335 335 335 335 334 336 337 337 338 340 340 341 340 339 338 336 335 334 333 331 331 329 329 330 328 326 328 330 331 331 331 332 333 333 331 328 328
314 325 338 341 340 338 336 335 334 335 334 335 336 337 338 339 341 343 336 336 335 334 333 331 329 329 328 328 329 330 328 326 328 330 331 330 330 329 331 332 331 329 325
312 313 319 336 341 340 336 334 333 332 333 333 335 337 338 338 338 339 335 333 334 332 332 329 329 330 331 330 330 329 326 326 328 330 330 329 329 329 329 329 330 329 325
309 310 312 320 336 341 339 334 333 332 331 332 333 335 338 337 335 336 336 332 331 329 329 328 328 330 330 330 328 328 328 328 328 328 329 330 329 329 328 328 329 327 325
308 310 311 315 331 337 341 338 334 333 333 333 333 334 335 336 334 334 334 333 329 328 327 328 326 329 328 328 328 328 325 326 328 328 329 329 329 328 326 328 328 327 326
315 308 310 312 327 336 340 339 337 336 335 335 334 334 334 336 334 334 333 332 329 328 328 329 327 328 328 328 327 327 326 326 327 328 328 328 328 327 323 324 326 326 324
315 314 308 310 322 338 339 338 337 336 336 336 336 335 335 335 334 335 334 332 328 328 328 328 327 327 327 327 327 325 324 326 327 327 328 328 328 324 322 322 323 323 320
312 313 315 308 317 335 338 338 338 337 337 337 336 336 337 336 335 336 334 332 329 328 328 327 326 328 327 327 327 324 322 321 323 325 326 327 325 323 322 322 321 320 318
310 310 312 316 321 331 338 338 337 336 335 334 333 336 335 337 337 336 334 332 330 328 327 328 328 328 328 327 327 324 321 324 321 321 324 325 325 323 322 321 321 319 319
309 309 310 314 318 334 337 337 335 336 334 334 333 332 332 333 336 336 334 334 333 329 328 329 328 327 327 326 325 325 323 321 323 321 320 322 323 323 322 321 321 320 319
307 307 310 314 321 333 337 336 335 335 334 333 332 321 321 331 334 334 334 333 332 329 327 329 328 327 326 325 326 324 321 321 321 321 322 318 321 322 322 321 320 319 319
305 305 307 313 325 335 336 335 333 333 332 332 332 329 329 331 332 333 333 332 330 330 328 329 328 327 326 325 325 325 324 322 320 320 320 321 320 319 322 321 320 319 318

GFSSE_925_thetae_099.txt.gz
Theta_e
340 343 344 343 341 339 337 338 341 343 343 343 342 340 339 338 337 336 333 334 338 345 346 347 344 340 339 340 338 337 337 340 340 340 339 339 339 338 337 338 339 342 339
338 342 341 342 341 339 337 337 341 344 344 342 343 342 341 340 338 336 333 332 334 342 344 343 338 338 340 340 339 337 336 339 340 339 339 340 340 339 339 338 340 340 338
337 340 339 339 340 339 336 336 339 342 344 344 343 343 343 342 339 336 334 332 335 344 345 341 339 340 341 339 338 337 338 339 340 339 339 341 341 339 338 337 338 337 337
337 339 339 340 340 339 337 335 337 339 341 343 344 344 343 342 340 338 336 335 339 343 344 342 341 340 339 339 338 338 339 340 338 339 341 341 340 338 338 337 337 336 336
337 339 338 339 340 339 337 336 335 336 337 338 341 343 343 342 340 339 338 337 339 341 341 343 343 339 340 339 339 339 339 338 337 339 341 340 340 339 339 337 337 336 337
340 340 340 340 340 339 338 337 336 335 335 336 337 340 342 342 341 341 340 338 339 340 340 343 342 339 339 339 338 338 338 337 337 341 340 340 339 339 338 337 338 337 337
344 341 340 341 340 339 338 338 337 336 335 335 336 338 340 342 342 342 341 340 340 341 340 342 340 339 339 338 337 337 337 336 339 340 340 339 337 338 338 337 337 336 336
343 344 341 341 341 340 339 339 338 337 336 335 335 336 338 341 343 342 341 340 340 341 340 342 341 338 338 338 337 337 336 337 337 339 340 339 337 337 337 337 336 335 335
343 343 342 341 341 340 340 340 339 338 337 337 336 335 336 338 339 340 340 340 339 340 341 342 341 338 338 338 337 336 336 336 337 337 339 339 337 337 338 336 335 335 335
342 343 343 343 342 342 341 341 340 339 338 337 337 336 336 336 337 338 339 339 339 342 341 339 339 338 337 336 335 334 334 334 336 336 336 338 336 336 337 336 335 335 334
340 342 343 344 346 343 342 341 341 340 339 338 337 337 337 337 337 338 339 339 338 339 338 337 337 337 336 335 334 335 334 335 335 334 335 334 334 335 336 336 334 334 334
340 340 342 340 340 343 345 341 341 340 340 340 339 339 339 338 339 340 339 338 339 337 337 336 336 336 335 335 335 333 334 334 331 333 334 333 333 334 335 336 334 334 333
338 338 339 341 340 339 340 343 343 341 342 340 339 340 340 339 339 338 338 340 339 338 337 336 337 336 335 335 335 334 332 328 329 329 330 333 332 334 335 334 334 334 333
341 339 334 334 338 339 339 338 343 343 341 343 342 339 339 339 340 339 338 339 339 337 338 336 336 335 334 334 334 334 331 327 326 324 328 331 331 334 335 334 333 332 332
317 331 339 335 333 333 339 338 338 341 340 341 341 340 338 340 343 339 339 339 338 337 337 336 335 334 334 334 334 333 330 327 326 325 328 330 330 334 335 335 332 331 331
310 312 327 336 336 334 331 333 338 339 337 342 342 338 339 343 342 338 338 338 339 338 337 336 334 333 332 333 332 331 330 328 327 325 327 330 330 332 333 333 334 331 329
309 309 309 327 330 339 336 334 334 333 335 336 340 340 339 342 338 337 335 336 336 337 335 334 333 333 331 331 331 329 330 329 327 325 328 329 330 330 330 331 331 330 328
315 315 315 310 328 336 338 338 336 334 332 334 337 340 338 339 336 334 334 333 333 334 333 332 331 329 329 329 329 329 328 328 325 326 328 329 330 330 329 327 328 329 326
316 316 315 314 310 328 332 338 337 335 333 332 333 336 337 338 337 334 334 332 331 332 332 330 329 329 329 329 328 330 328 325 325 325 327 329 330 330 330 328 327 328 326
315 316 316 316 309 316 332 335 337 336 334 333 332 333 335 335 336 334 334 332 331 330 330 328 328 328 328 329 328 328 328 326 325 327 327 327 328 328 328 327 328 328 326
314 314 315 315 316 313 332 335 334 334 335 334 333 332 334 333 335 334 334 331 331 330 330 328 327 326 328 328 328 326 326 326 324 323 326 327 327 328 328 328 328 328 327
311 311 312 313 314 314 325 333 334 334 335 335 334 333 333 332 333 335 334 332 331 330 329 328 328 328 328 328 326 324 325 323 325 326 326 327 327 327 327 325 326 326 326
309 309 310 311 312 314 317 332 335 335 336 334 335 334 333 333 333 334 334 331 331 330 328 328 328 327 327 327 327 325 324 327 322 323 325 326 326 327 325 323 323 323 322
307 306 306 308 311 314 318 329 334 333 333 334 335 334 334 333 332 331 332 332 331 329 328 328 328 327 328 327 327 326 324 324 326 324 321 324 325 326 325 323 322 322 321
304 303 304 305 308 313 320 326 335 334 334 334 335 334 333 332 333 327 321 329 331 330 328 328 328 327 328 327 327 324 322 322 323 324 325 320 321 323 324 323 321 322 321
301 301 302 304 306 310 321 327 334 334 334 334 333 333 334 331 325 322 323 329 331 329 328 328 328 328 327 327 327 325 325 323 324 325 326 323 322 320 322 322 322 321 321

GFSSE_925_thetae_102.txt.gz
Theta_e
344 350 343 344 342 341 341 340 340 342 343 342 338 332 333 334 334 335 337 339 340 343 347 343 339 339 335 335 335 331 335 340 340 339 340 339 339 339 339 339 340 342 339
345 351 343 343 342 340 339 339 340 343 344 343 338 334 334 336 335 336 337 338 340 345 345 346 345 342 338 336 335 336 337 340 340 340 339 340 340 339 338 338 342 341 338
346 350 345 343 342 339 338 338 340 343 343 342 340 337 336 337 337 337 336 339 342 346 347 346 341 339 340 340 338 337 336 339 340 339 339 342 342 340 338 340 342 338 338
346 349 349 343 341 339 337 337 340 343 343 342 342 341 340 339 338 337 335 337 340 345 344 341 339 339 340 340 339 336 338 340 339 339 341 340 341 339 338 339 338 338 338
347 347 347 342 340 339 337 336 339 342 344 343 343 343 342 340 339 337 334 335 337 346 345 342 339 340 340 339 338 337 338 340 339 339 341 339 340 340 339 337 337 337 337
346 346 347 341 340 339 337 336 336 339 342 344 344 344 344 343 340 337 336 336 340 344 343 345 342 339 340 339 339 339 340 339 338 341 340 340 340 340 338 336 339 337 339
347 347 348 343 341 340 337 336 335 336 338 340 341 342 343 343 341 339 338 338 340 342 341 343 343 340 340 339 339 339 339 338 340 340 338 340 340 338 338 337 337 336 336
349 348 349 344 342 340 338 337 336 336 336 337 337 338 340 342 342 340 340 339 340 340 340 342 342 339 339 339 338 337 337 337 340 338 337 339 340 338 338 337 337 336 336
349 348 348 348 344 341 338 338 337 337 336 336 336 337 338 340 342 342 342 340 340 340 340 342 342 339 339 338 338 337 337 336 339 338 339 339 339 337 338 337 336 336 336
348 348 348 349 348 347 345 339 338 338 337 336 336 336 337 340 342 343 342 341 340 339 339 340 341 340 338 338 338 337 337 336 339 339 339 338 338 336 338 337 336 335 335
346 346 348 347 345 345 348 346 340 339 338 337 337 337 337 342 343 343 343 343 340 338 341 340 340 339 338 337 337 337 337 338 339 339 339 339 337 336 338 337 336 335 335
346 345 345 345 344 344 344 345 346 346 344 343 343 343 342 343 344 342 342 343 340 339 341 340 337 337 336 339 338 335 337 336 338 337 336 333 333 334 335 335 335 335 334
340 344 344 345 345 345 344 344 343 345 345 345 345 344 343 343 343 343 343 342 342 341 340 338 338 337 337 338 337 337 336 337 336 335 335 332 333 332 333 334 334 333 333
320 331 341 343 344 344 343 342 343 343 343 342 342 344 344 345 342 342 341 342 341 342 340 340 339 339 339 338 337 337 336 336 335 334 333 331 332 332 332 335 334 334 333
316 317 326 339 342 342 342 341 341 341 342 341 343 344 342 345 343 341 340 342 341 341 341 340 340 340 339 338 337 337 336 335 334 333 331 330 330 331 331 335 335 334 333
315 315 315 323 337 341 341 340 339 339 339 340 340 340 341 342 341 341 341 340 339 340 339 341 340 339 338 337 336 335 336 334 334 333 329 329 329 330 330 336 334 333 333
319 319 320 316 322 336 339 340 339 338 338 338 338 339 340 340 342 339 340 339 340 340 340 339 338 338 337 336 336 335 334 334 333 332 329 325 326 330 330 335 333 332 334
320 320 321 321 319 320 333 336 339 339 339 338 337 337 338 339 340 339 339 338 337 337 336 334 334 334 334 335 335 335 333 333 332 332 327 325 325 329 330 334 330 330 331
319 320 321 321 322 319 320 332 335 338 340 339 338 337 337 337 339 338 337 337 335 336 334 333 333 333 332 334 334 333 332 330 330 329 326 325 326 329 331 329 328 327 327
318 318 318 320 321 321 320 323 332 334 339 339 338 337 337 337 338 337 336 334 334 334 334 333 331 331 331 332 331 330 330 332 330 327 326 326 326 327 330 328 326 325 326
317 316 316 317 318 320 320 318 329 333 337 335 337 338 337 337 337 336 335 333 333 332 333 331 330 329 330 330 330 329 329 329 328 326 324 324 325 328 331 331 329 329 328
315 315 315 315 316 316 318 319 322 331 332 333 335 338 337 336 336 335 334 333 332 332 332 331 331 328 329 329 328 327 328 325 328 327 326 325 325 326 327 330 330 329 328
313 312 312 312 313 314 316 318 320 328 332 334 335 337 337 336 335 334 333 332 331 331 331 333 330 329 329 329 329 329 328 331 325 325 325 325 325 326 326 327 327 328 328
310 308 307 308 309 310 313 316 321 323 332 333 333 335 335 335 334 332 332 332 332 330 331 331 330 330 330 329 329 329 329 327 329 326 323 326 326 325 326 326 326 325 326
307 305 303 304 305 307 308 312 318 322 332 332 333 334 335 334 333 332 331 331 331 331 331 331 331 331 330 329 329 328 328 327 328 328 327 323 326 325 325 326 324 322 323
306 304 301 301 302 304 306 309 315 324 327 333 333 334 334 334 333 332 332 332 331 330 330 330 330 331 331 329 329 328 328 328 328 327 328 326 325 323 325 325 324 322 322

GFSSE_925_thetae_108.txt.gz
Theta_e
349 342 340 344 341 341 341 341 341 340 340 340 338 333 332 333 332 332 333 335 340 340 341 341 339 339 341 342 343 340 334 334 337 337 338 337 337 338 338 338 343 339 338
352 344 340 345 342 341 341 341 341 341 341 340 338 334 333 333 332 334 335 337 337 338 337 338 337 337 338 340 339 333 330 337 339 338 339 338 337 338 338 342 343 337 338
353 349 341 344 343 342 341 341 341 341 340 340 340 336 333 334 333 335 336 339 338 338 341 339 337 338 338 336 336 334 332 339 338 339 338 341 337 337 338 341 340 337 338
349 353 343 342 342 342 341 341 341 340 340 341 341 338 333 334 335 335 336 338 338 345 345 341 341 342 341 336 335 334 336 338 338 339 339 343 339 337 339 341 339 336 337
342 353 351 343 340 342 341 341 340 339 340 341 343 340 334 334 336 335 336 336 338 344 345 346 345 344 344 340 339 338 336 336 338 338 341 340 340 337 340 340 337 336 337
347 348 353 349 342 342 341 340 339 339 340 342 343 341 334 334 337 337 337 336 338 344 345 344 342 341 341 340 339 338 336 337 337 338 340 340 336 336 338 339 337 336 339
351 350 351 349 346 342 341 340 339 340 341 343 342 341 337 336 337 338 337 336 338 343 345 343 340 340 340 340 339 339 336 336 337 340 341 338 339 336 335 338 339 337 338
351 352 349 349 347 343 341 339 339 340 342 343 343 343 342 340 339 339 338 336 336 338 343 345 341 340 339 339 339 338 337 337 338 340 340 338 333 337 335 336 338 336 338
350 353 352 350 347 345 341 339 339 340 342 343 344 343 343 343 342 341 340 337 336 336 342 341 339 340 340 339 339 339 338 338 336 340 340 337 337 336 336 336 338 336 336
349 351 353 353 350 344 341 339 339 339 340 340 342 344 344 344 344 343 341 338 336 338 341 339 339 339 339 339 339 339 338 337 336 335 340 337 334 337 336 336 338 336 336
346 349 348 351 350 347 346 341 339 339 339 339 339 340 341 343 344 344 342 340 339 340 340 339 339 339 340 339 338 338 338 337 336 335 338 337 336 337 335 336 336 335 335
328 350 348 347 349 349 349 348 340 338 338 338 338 339 340 342 347 345 344 342 343 341 340 340 339 339 340 340 338 338 338 337 336 338 338 337 336 336 333 333 333 333 334
323 345 350 347 346 346 347 350 346 343 341 340 341 342 340 342 345 346 346 345 343 344 341 341 340 340 340 340 340 340 338 337 337 338 338 337 335 333 332 332 332 330 333
320 324 347 348 347 345 345 347 349 348 346 345 344 344 345 343 344 346 343 346 343 343 343 342 340 340 340 340 338 339 339 338 338 337 338 336 335 334 330 330 333 332 333
319 320 321 328 341 346 345 346 346 346 347 346 347 345 344 346 345 344 345 343 344 342 343 341 342 342 341 339 339 338 338 338 338 337 336 335 334 333 330 330 333 332 333
320 321 321 323 323 324 342 342 343 344 345 346 346 346 347 346 344 343 343 341 344 340 341 340 340 341 341 339 337 338 337 337 337 335 335 335 333 332 330 331 331 332 333
321 322 324 324 324 325 324 329 341 342 342 343 345 345 344 345 345 344 343 343 339 343 339 339 340 341 340 340 339 338 337 337 337 336 335 334 333 332 329 331 330 331 330
321 322 323 324 325 325 326 325 325 331 341 342 342 344 345 342 341 343 343 341 342 339 341 341 339 341 340 339 338 339 338 337 337 335 335 333 333 332 330 329 330 329 331
321 321 321 321 322 323 324 325 325 324 327 339 342 341 343 343 340 342 343 343 339 340 340 342 341 341 341 339 338 336 336 336 335 335 334 333 332 331 330 328 329 330 330
321 320 320 320 320 321 321 322 324 324 322 326 337 342 341 342 341 339 343 343 341 339 339 342 341 340 340 339 338 336 336 335 334 333 333 333 331 330 329 328 329 329 328
319 319 318 317 317 317 319 320 321 322 324 324 326 336 340 341 341 341 342 342 341 341 339 341 339 339 338 337 336 335 334 334 333 333 332 331 331 329 329 327 327 329 327
317 316 315 315 314 314 316 317 318 318 319 321 324 326 334 337 339 340 341 342 340 339 338 339 337 336 336 334 334 330 329 329 330 332 332 330 329 327 326 325 326 328 328
315 314 314 313 312 312 313 314 315 316 317 321 321 321 324 336 336 338 341 341 340 335 331 337 336 335 334 335 332 329 328 329 327 329 331 330 328 326 325 325 325 327 327
313 312 312 311 310 310 310 310 310 312 313 315 317 322 324 334 336 337 338 340 338 335 336 333 335 334 333 333 332 331 330 330 328 328 329 330 328 327 325 324 325 325 324
311 311 310 308 307 306 307 306 305 305 308 311 314 318 322 325 336 336 338 338 338 336 331 335 335 334 332 331 331 330 330 331 331 327 325 326 329 327 326 324 325 324 326
309 308 306 305 304 304 304 302 301 302 303 306 309 313 317 324 328 335 335 338 337 336 335 334 327 332 332 332 331 331 330 331 331 329 327 324 325 327 326 325 324 324 323

GFSSE_925_thetae_111.txt.gz
Theta_e
345 340 342 343 342 342 343 342 342 341 340 339 337 333 332 332 332 333 336 339 341 339 338 340 343 342 340 342 343 340 333 335 337 338 338 337 337 337 338 338 338 338 335
349 341 343 343 341 341 341 341 340 340 340 339 337 333 332 332 332 331 330 334 338 337 338 338 339 340 339 341 342 337 332 334 338 338 338 336 337 337 342 343 338 338 336
350 343 343 343 341 341 341 341 340 340 340 339 338 334 333 333 332 332 332 334 335 335 334 335 336 336 338 337 337 334 331 334 338 338 338 336 337 338 342 343 337 337 337
350 348 341 343 342 341 341 341 341 341 340 339 338 336 333 333 333 334 333 334 333 333 334 334 333 334 335 334 333 333 331 336 338 339 342 338 336 338 341 340 337 337 337
352 351 346 343 342 341 341 341 341 341 340 339 339 339 334 333 334 335 334 334 335 341 344 340 339 343 342 337 336 336 336 336 338 338 340 341 335 336 339 340 337 337 336
351 353 351 347 342 342 341 341 341 340 340 340 341 340 335 334 336 335 335 334 336 342 344 344 344 342 341 339 339 338 337 335 338 338 338 338 330 335 338 339 336 336 335
352 351 352 349 342 340 342 341 340 339 339 340 342 342 338 334 336 337 336 334 335 341 344 344 341 338 339 339 339 339 337 335 337 337 337 338 330 327 332 338 336 336 336
346 351 351 349 347 342 342 341 340 339 340 342 342 342 340 335 335 337 338 336 336 339 344 344 341 338 338 336 338 338 338 336 336 338 337 336 333 331 334 335 337 337 337
344 352 350 348 347 346 342 341 339 340 341 342 342 342 341 338 337 338 338 338 336 337 339 344 343 339 338 337 336 337 338 337 337 335 337 336 334 332 335 334 337 336 337
348 347 352 352 351 348 344 341 339 339 341 342 343 342 343 342 341 340 340 339 337 336 336 342 342 339 340 338 336 337 338 338 337 336 337 336 334 336 336 334 336 336 336
349 349 351 352 349 348 345 341 339 339 340 341 343 344 344 344 343 343 342 340 338 336 336 340 340 339 339 340 337 337 338 338 337 336 335 337 336 332 335 334 337 336 335
347 348 346 349 349 347 344 342 339 338 338 339 340 341 343 343 343 343 342 341 339 338 338 340 340 339 339 339 339 337 337 337 337 336 336 337 335 334 335 334 335 336 335
336 348 347 346 348 345 348 347 344 338 338 338 338 338 338 340 340 342 341 342 341 340 340 340 340 340 339 339 339 338 337 336 336 336 337 337 336 335 334 331 333 332 334
320 342 348 346 346 346 344 348 348 343 338 338 338 338 338 338 342 345 345 343 342 342 342 340 340 339 338 338 339 338 339 338 337 336 337 337 336 335 334 330 330 330 331
320 325 332 341 340 343 344 345 348 347 345 342 339 338 340 341 339 344 346 346 345 343 342 342 341 340 338 337 338 338 339 338 338 337 338 336 336 334 334 332 330 330 332
322 324 324 324 323 323 334 342 343 344 346 347 346 344 343 343 343 342 344 345 345 345 343 341 341 340 340 339 339 338 339 338 337 338 337 335 334 334 333 331 330 330 333
323 323 323 324 324 325 325 326 331 340 342 342 343 344 345 344 346 344 343 344 343 343 343 341 340 340 342 341 340 339 338 338 337 337 336 334 334 333 332 331 331 330 332
321 321 321 321 322 323 324 324 324 324 327 334 341 340 341 342 344 346 344 344 343 342 343 341 340 340 341 341 340 339 338 337 337 336 336 335 333 333 331 330 330 331 330
320 320 319 320 319 320 320 321 321 322 323 323 327 337 341 340 342 342 344 344 343 342 342 341 339 339 341 340 340 339 338 337 336 336 336 334 333 333 332 331 329 330 330
318 318 317 316 316 316 317 318 319 320 321 323 325 324 329 340 340 341 341 342 342 342 341 341 340 339 340 340 339 338 336 336 336 336 335 334 333 332 331 330 330 328 330
316 315 314 314 313 313 313 313 314 316 317 318 320 322 324 329 337 340 342 340 338 340 341 340 341 341 340 340 338 337 335 336 335 334 334 333 333 331 330 330 329 328 329
314 313 312 311 311 310 310 310 311 311 314 315 317 318 319 321 323 332 339 340 341 339 340 339 338 339 338 339 335 332 331 330 334 333 333 333 332 331 330 329 328 328 327
311 311 309 308 308 307 307 307 307 307 309 310 312 314 318 319 321 322 331 338 340 340 338 338 338 335 335 336 334 330 327 327 323 329 332 330 330 329 328 327 326 325 326
309 308 307 306 305 304 304 304 303 303 304 305 306 308 310 314 315 318 323 334 336 339 337 336 335 328 322 328 332 332 328 327 323 327 329 331 330 329 328 326 325 324 325
307 305 304 303 303 302 302 301 300 300 300 302 303 305 307 309 312 315 319 326 334 335 335 336 332 323 327 331 320 329 330 328 327 322 325 326 329 328 328 326 324 324 325
305 303 302 301 301 300 299 299 299 298 299 300 301 302 304 306 309 312 316 323 331 332 332 334 333 327 330 329 328 331 330 329 329 327 322 320 326 327 326 326 326 324 325

GFSSE_925_thetae_117.txt.gz
Theta_e
340 342 342 340 341 341 342 339 337 336 335 335 336 335 336 339 340 342 343 341 339 339 340 346 341 343 343 342 338 337 338 337 338 338 337 338 338 341 341 340 340 336 335
340 341 341 340 341 342 342 341 338 337 334 334 334 334 334 336 339 341 341 340 339 338 338 343 340 343 343 342 341 337 334 335 337 337 336 337 338 341 340 338 337 337 325
343 339 342 341 341 342 343 342 339 338 336 333 333 333 334 334 336 336 337 337 336 338 339 336 339 340 341 341 341 336 332 336 337 337 336 336 339 339 338 336 337 336 334
344 340 342 342 342 342 343 342 340 338 338 335 333 333 333 333 332 332 334 336 336 336 337 340 341 340 339 340 339 335 331 336 338 337 337 337 338 340 338 336 334 336 338
345 343 341 342 342 342 342 341 339 339 338 336 333 333 333 333 332 331 333 334 334 333 333 335 336 336 338 337 334 333 331 337 338 339 336 337 339 338 339 336 335 334 337
347 345 343 342 341 340 341 340 339 339 339 337 335 333 333 333 333 332 332 333 332 331 330 331 331 332 334 334 333 333 334 336 338 339 337 336 337 339 339 338 335 335 334
348 348 345 342 341 341 340 340 340 340 339 338 336 334 333 333 334 334 333 332 332 331 335 335 334 338 339 338 336 337 335 335 337 337 339 338 335 336 338 338 335 336 335
344 349 347 345 343 342 341 340 340 340 340 339 337 337 334 333 334 335 334 333 333 334 338 339 340 340 338 337 337 337 336 334 337 336 336 336 336 334 335 336 336 336 335
342 345 349 349 347 344 341 340 340 340 340 339 338 339 337 334 334 335 336 335 335 336 338 341 342 339 337 336 337 337 337 336 335 336 336 336 336 332 335 336 337 336 335
339 342 344 348 347 345 342 341 341 340 340 338 338 339 340 337 334 335 336 336 335 336 338 341 342 341 337 337 336 337 337 337 334 335 335 334 335 328 329 335 336 335 335
345 345 345 347 347 346 344 341 341 340 340 339 339 340 341 340 336 335 336 337 337 336 336 339 342 343 340 337 337 336 337 337 336 335 333 334 336 334 333 333 334 335 335
346 346 346 347 347 347 346 345 343 341 341 341 342 342 343 342 339 337 336 337 338 338 337 339 341 342 342 339 338 337 336 337 337 336 335 332 334 334 333 334 334 334 335
336 343 345 347 348 348 347 345 345 342 341 342 343 343 343 343 342 341 339 339 339 339 339 339 341 341 343 339 338 338 336 336 336 337 336 335 333 334 335 333 329 334 334
339 331 345 349 349 348 346 345 343 342 341 341 342 347 348 348 346 344 342 342 341 341 340 339 339 340 342 340 338 338 337 337 336 336 336 335 333 335 335 333 333 333 333
319 338 346 347 347 347 346 346 346 343 341 340 339 339 342 346 347 348 346 344 342 342 341 340 339 338 340 341 339 338 337 337 336 335 335 335 334 335 335 334 333 332 332
334 338 333 334 337 338 335 334 337 340 342 342 340 339 339 340 340 340 341 343 341 341 341 341 340 338 338 340 340 339 337 337 336 336 336 335 335 335 335 335 334 333 332
323 323 324 323 325 327 325 324 325 326 327 330 333 333 339 339 339 340 339 340 339 339 341 341 340 340 339 340 340 339 338 336 337 337 337 336 335 335 335 335 335 333 331
319 319 318 319 320 320 320 320 319 319 320 321 323 325 325 326 330 339 340 341 340 339 338 339 340 341 340 340 340 340 339 338 337 337 337 336 336 336 335 334 334 333 332
314 314 314 315 315 316 316 316 316 316 316 316 316 317 318 320 321 324 330 339 341 340 339 337 339 342 340 340 340 339 339 338 337 338 338 337 336 336 336 334 333 332 331
310 310 310 310 310 311 311 311 312 313 312 312 312 313 314 314 315 317 319 322 332 338 337 334 337 336 334 338 339 339 338 338 339 338 338 338 336 336 335 333 333 332 330
306 306 306 306 306 308 309 309 308 308 310 311 312 311 312 313 314 314 315 316 319 329 337 337 336 334 334 336 337 337 335 336 336 337 337 337 336 335 335 333 332 332 331
303 302 302 302 302 302 303 304 306 307 306 308 309 310 309 310 311 312 313 314 314 316 325 334 337 336 336 336 335 334 333 332 334 334 334 334 335 335 335 334 332 331 331
300 300 299 300 299 300 300 302 305 306 306 305 306 307 307 308 308 308 309 311 312 313 315 320 332 335 335 335 335 332 327 333 328 329 332 330 333 333 334 333 333 330 330
298 297 296 297 297 298 299 299 298 298 298 298 299 300 303 304 306 306 307 307 309 311 313 315 318 329 334 331 330 333 329 326 327 324 325 330 330 333 333 333 332 330 329
297 296 295 295 296 296 296 296 296 297 297 297 298 298 299 301 303 306 306 306 308 310 312 314 316 319 332 333 329 324 322 321 323 321 323 324 327 330 331 332 331 329 328
295 295 295 294 293 294 294 294 295 295 295 296 296 297 297 298 299 301 303 304 306 308 310 313 315 320 327 330 330 328 325 323 323 322 322 322 324 327 330 329 331 330 329

GFSSE_925_thetae_120.txt.gz
Theta_e
341 343 340 340 340 340 336 334 335 334 334 334 335 337 340 339 338 338 336 336 337 346 346 343 339 342 340 340 340 340 339 338 339 337 337 338 341 341 341 340 339 338 338
341 341 342 340 340 341 338 335 334 335 335 335 336 337 338 339 339 341 339 338 337 344 345 341 343 343 342 340 337 336 334 335 336 336 337 338 339 341 340 340 337 338 337
339 341 341 339 340 341 341 337 334 334 335 335 335 336 337 337 337 338 339 338 336 338 345 344 344 344 342 341 340 336 333 335 336 336 336 337 340 340 339 338 336 329 333
341 339 341 340 341 341 342 339 337 334 334 334 334 335 336 336 336 336 336 336 335 336 340 344 343 342 340 340 339 336 331 335 336 336 336 336 339 339 337 336 337 329 328
343 339 341 340 341 342 342 341 339 337 334 334 334 334 335 335 335 333 334 335 335 336 337 340 343 341 337 337 336 333 331 336 337 337 336 336 337 337 336 335 335 337 333
344 342 341 341 341 342 342 342 339 338 337 334 333 333 334 334 334 333 333 334 333 332 334 337 338 337 337 336 331 330 331 336 337 338 336 336 338 338 338 335 334 336 337
345 344 342 342 342 341 341 341 339 338 338 336 333 333 333 333 333 333 333 333 333 332 331 332 333 333 333 333 331 331 333 335 336 338 337 336 336 338 337 337 335 334 335
345 346 344 342 341 341 340 340 339 339 339 338 336 333 333 333 333 333 334 334 333 331 331 332 333 333 336 336 334 335 335 335 335 336 337 338 337 336 335 335 336 335 334
340 344 346 345 343 342 341 340 340 340 340 339 338 336 333 333 333 334 334 334 333 332 335 337 336 339 339 338 336 335 335 335 334 336 335 335 336 335 334 333 336 335 335
344 343 344 346 346 345 343 341 340 340 340 340 339 338 337 334 334 335 335 335 334 333 336 338 340 340 339 336 336 335 335 336 335 334 334 335 335 335 333 332 336 335 334
341 342 345 346 346 345 344 342 341 341 340 340 340 339 339 338 336 337 337 337 336 335 336 338 340 341 339 337 337 336 335 335 336 334 333 333 334 334 330 330 334 335 335
338 339 343 345 346 345 345 343 341 341 341 341 340 340 341 342 340 337 337 338 338 337 337 338 340 342 342 339 338 337 335 334 336 335 334 332 334 335 333 333 330 333 334
317 336 343 345 346 346 345 346 345 344 342 342 342 342 343 347 348 342 339 338 339 339 338 338 340 342 342 342 339 338 336 335 334 335 335 335 333 334 335 334 331 333 333
315 321 341 345 346 346 346 346 344 344 343 342 343 345 344 341 341 341 343 341 339 339 339 339 339 340 340 341 341 338 338 336 334 333 335 336 335 333 333 334 333 331 331
313 315 335 344 346 347 346 345 344 344 342 341 342 342 344 341 341 340 341 341 342 344 340 340 339 339 340 339 341 340 338 337 336 335 334 335 335 334 333 335 335 332 332
315 319 330 341 345 346 343 344 343 342 343 341 340 339 340 340 338 337 339 340 340 340 344 341 340 340 340 341 341 341 339 337 336 336 335 334 334 334 334 334 334 334 333
323 323 329 334 337 338 336 335 333 335 336 336 336 334 337 339 339 338 339 339 340 340 341 338 341 341 340 341 342 341 340 339 337 336 336 335 335 335 334 334 334 334 333
317 316 316 316 318 321 321 321 322 322 323 323 323 325 327 327 329 333 334 336 339 339 340 338 338 339 339 338 338 340 340 339 338 337 336 336 336 336 335 334 335 335 334
311 311 310 311 311 312 315 316 316 315 316 315 315 316 316 317 318 320 325 328 329 333 339 339 338 338 338 338 339 338 337 339 338 338 338 336 336 336 336 335 335 334 334
305 306 306 306 307 308 309 311 312 311 311 311 312 312 312 312 313 314 314 316 318 322 332 334 337 337 335 337 337 333 334 336 336 336 336 336 336 336 335 335 335 335 334
302 302 301 302 303 304 306 307 308 309 309 310 310 310 310 311 311 311 312 313 313 314 317 328 335 334 332 332 334 332 333 332 331 335 335 334 335 335 334 334 334 334 333
297 297 297 298 298 300 300 301 303 305 305 306 306 306 307 308 309 310 310 310 311 312 313 316 326 335 333 332 332 328 327 326 326 332 331 329 333 332 332 332 333 334 333
296 296 295 295 296 296 298 300 303 302 302 301 303 304 304 305 305 306 307 308 309 310 311 313 315 320 333 334 334 332 330 333 328 328 326 327 332 332 331 332 331 332 333
296 296 295 294 296 293 294 295 297 297 298 298 298 299 300 301 303 303 305 306 306 307 309 311 313 314 319 330 332 333 332 328 329 327 327 331 330 332 331 328 326 330 332
294 294 294 294 293 293 293 293 294 295 296 296 296 296 297 298 299 300 302 303 305 306 308 309 311 312 315 319 328 328 327 327 325 324 325 323 328 330 329 325 326 330 332
294 293 293 292 292 293 292 292 292 293 294 295 295 295 295 296 297 298 299 300 301 303 305 307 310 312 313 315 320 327 326 326 322 322 320 321 325 327 327 327 326 328 331

GFSSE_925_thetae_123.txt.gz
Theta_e
342 338 337 339 341 336 337 338 338 338 338 339 341 341 338 334 333 332 332 335 339 337 340 341 336 341 340 340 339 339 339 337 338 337 338 339 340 341 341 338 339 340 337
341 339 339 339 340 338 334 336 336 336 338 339 340 340 338 336 336 335 334 335 340 340 336 334 339 340 340 339 339 337 334 335 336 336 338 340 341 341 340 339 340 340 337
343 339 340 339 340 340 336 334 336 336 338 338 338 339 336 336 337 337 336 335 340 345 342 339 341 341 340 339 339 336 334 335 336 336 337 343 344 340 340 338 337 337 336
339 339 341 340 339 340 339 335 335 336 337 338 337 337 337 337 337 337 337 336 337 345 344 338 340 340 340 339 339 336 332 334 336 336 341 342 343 340 339 336 333 334 335
339 341 341 340 339 340 341 338 335 334 336 337 338 337 337 337 337 336 336 336 335 338 340 336 337 340 340 339 338 336 332 334 336 338 342 342 342 341 336 336 334 327 334
342 340 341 340 340 340 341 341 338 336 334 335 336 337 338 337 337 336 334 334 334 334 337 338 341 339 336 335 335 333 331 334 336 341 341 340 342 339 336 335 338 335 332
343 342 340 341 340 341 341 342 340 338 337 334 334 335 337 338 337 335 334 334 333 334 336 339 343 339 335 334 333 332 331 335 339 340 340 340 342 338 337 335 334 336 334
344 344 343 341 341 341 341 342 341 339 338 336 334 334 335 336 336 335 335 335 334 333 334 338 339 336 333 332 332 331 333 335 336 341 340 339 338 338 337 337 335 334 336
343 345 344 343 341 341 341 341 341 340 339 338 337 334 333 334 334 335 335 336 335 333 333 334 335 333 332 334 333 333 335 335 338 339 338 339 337 335 336 335 336 335 334
336 342 345 345 343 342 341 341 341 340 340 339 339 337 335 334 334 335 336 337 337 335 333 334 335 334 337 338 335 334 335 335 337 338 338 337 335 336 334 334 334 336 335
330 336 342 344 344 343 343 342 341 341 341 341 341 340 338 338 340 340 338 338 338 336 336 339 338 339 340 339 335 335 335 339 339 338 337 334 334 335 335 332 333 336 335
315 320 333 342 344 345 344 344 342 341 341 341 341 341 341 340 339 341 341 338 338 338 338 341 341 342 342 342 340 336 338 339 339 339 337 333 334 334 334 330 331 334 335
315 316 318 332 342 345 345 344 343 342 341 341 342 342 342 342 342 342 341 340 341 341 342 342 342 342 343 343 342 340 339 339 338 338 338 334 334 333 335 333 332 331 332
314 315 315 318 342 344 345 344 344 344 344 343 343 344 342 342 341 340 341 343 341 340 342 342 342 341 342 342 342 340 337 338 338 338 337 335 335 334 333 335 335 333 331
312 314 317 331 340 344 345 345 345 344 343 342 343 343 342 340 340 340 339 340 341 340 340 341 341 341 343 342 341 341 341 339 338 338 335 333 334 335 335 334 333 334 332
320 321 324 332 339 343 343 343 343 342 342 340 342 340 342 340 338 338 339 338 339 340 340 340 341 341 342 341 344 341 341 340 339 336 336 335 334 334 335 335 334 333 333
313 313 316 322 330 334 335 339 339 340 339 339 339 338 338 338 339 338 338 337 338 338 337 337 337 340 342 341 340 339 341 339 339 338 336 334 335 335 334 334 334 334 333
307 307 308 310 315 317 319 322 323 326 328 329 330 330 330 330 331 330 331 333 336 338 339 338 338 336 337 338 339 340 339 339 338 337 337 337 335 335 335 335 335 334 334
303 303 303 304 306 309 312 312 314 314 315 315 315 316 317 319 320 321 323 325 327 329 333 338 339 338 339 339 339 339 338 338 338 337 335 336 336 336 335 335 335 334 334
299 299 299 300 301 304 306 307 308 308 309 309 308 310 311 312 313 313 314 316 317 318 323 329 332 335 338 338 338 338 338 337 336 335 331 333 334 335 335 335 335 335 334
298 298 297 297 298 299 300 302 305 305 306 304 304 305 307 308 310 311 311 312 313 314 316 318 325 331 335 337 337 334 328 332 329 331 330 331 332 333 334 335 334 334 334
298 297 297 296 296 297 298 299 300 301 303 303 301 302 302 303 305 306 308 308 308 310 313 315 317 322 332 333 333 333 332 331 328 330 332 332 329 331 332 331 329 332 334
296 295 295 295 294 294 296 298 299 299 300 301 300 301 301 301 302 303 305 307 307 307 309 312 314 318 323 331 332 331 330 331 332 328 327 330 331 332 329 326 331 330 332
295 295 295 294 293 294 294 295 297 296 296 297 298 298 299 299 300 301 302 303 303 305 307 308 310 312 316 321 327 332 332 330 334 334 329 330 331 331 330 327 332 328 330
295 295 293 294 293 293 293 294 294 294 294 295 296 297 297 298 298 298 298 299 300 301 303 306 308 310 311 314 319 326 331 331 331 329 333 331 330 330 331 331 331 331 332
294 293 294 293 292 292 293 292 292 292 293 293 293 294 294 295 295 295 295 296 297 298 299 301 303 306 310 312 314 317 321 329 329 329 328 330 330 331 330 331 330 330 331

GFSSE_925_thetae_126.txt.gz
Theta_e
345 347 340 339 338 337 339 340 341 341 338 340 337 335 332 332 331 331 334 335 336 343 341 338 337 341 341 341 341 339 339 336 338 337 337 338 340 341 340 339 340 340 338
347 349 337 338 339 335 338 339 340 341 341 341 340 336 333 333 332 331 332 334 336 341 344 340 337 340 339 339 339 339 334 334 336 336 339 339 342 341 338 339 341 339 338
348 349 340 338 340 335 336 337 338 339 340 341 341 338 335 334 334 332 333 336 337 337 336 334 338 340 340 339 337 336 334 334 336 336 340 344 344 341 339 340 341 337 336
350 348 349 339 340 338 334 336 335 335 339 340 341 339 335 335 335 334 335 336 338 338 335 334 338 339 339 339 338 336 332 334 336 336 343 342 343 340 339 338 338 336 335
348 348 350 340 340 340 336 334 335 335 336 339 339 339 336 336 336 336 336 337 341 343 340 338 339 340 339 339 338 336 332 334 336 339 342 342 342 340 338 335 336 335 335
349 349 348 340 340 340 340 337 335 335 336 338 339 339 338 337 337 337 337 337 338 344 345 340 340 338 339 339 338 335 332 333 335 342 342 342 342 339 337 336 335 334 337
348 349 348 340 340 340 341 341 338 336 335 335 337 338 339 338 338 338 338 338 338 339 345 342 338 338 338 338 337 335 331 332 338 341 341 342 342 338 336 335 338 333 334
349 350 350 343 341 341 341 342 341 339 336 334 335 336 338 339 339 339 338 338 337 337 338 338 338 336 338 337 336 333 332 332 338 340 340 341 342 337 337 335 335 335 333
346 350 351 351 347 341 342 342 343 341 339 337 335 335 336 338 340 339 338 338 338 337 337 337 340 339 337 336 335 333 332 334 339 339 340 340 340 337 337 337 336 334 335
334 345 350 351 351 351 350 343 342 342 341 339 338 336 335 336 338 338 337 338 338 338 338 338 339 338 335 333 334 335 335 335 338 339 339 338 339 336 336 336 336 336 334
321 323 336 347 350 351 351 350 343 341 341 340 341 340 338 341 342 342 341 342 339 338 338 337 337 336 335 334 337 337 337 338 338 338 338 339 336 335 336 335 335 335 336
320 320 321 331 343 349 348 349 349 348 347 346 346 346 345 345 345 344 343 341 342 340 340 338 337 338 337 341 341 339 339 338 339 338 337 338 335 334 335 335 334 334 335
318 318 319 321 335 346 346 348 348 347 347 348 348 348 347 347 346 345 343 344 342 341 342 341 342 343 343 342 340 340 339 339 339 338 337 338 334 333 333 334 332 332 334
317 319 324 327 330 341 345 347 348 347 347 347 347 346 346 345 345 345 344 343 343 343 342 342 342 342 343 343 343 341 341 340 338 337 338 338 335 334 333 334 334 332 332
321 322 324 327 332 339 344 346 348 348 346 346 346 346 343 343 345 344 342 341 341 342 342 342 342 341 342 343 343 343 343 341 340 338 337 338 335 335 335 334 333 334 334
317 318 318 318 321 331 341 344 345 345 345 344 342 342 342 341 341 341 342 340 340 340 340 341 341 342 340 341 342 343 342 342 341 340 339 339 337 333 334 335 335 334 333
314 313 311 311 312 317 324 328 332 333 334 335 335 336 336 337 340 341 342 342 341 341 339 339 340 341 340 340 340 341 343 342 341 341 341 339 338 336 334 333 334 335 334
309 308 307 306 307 309 312 315 318 320 323 325 324 323 324 326 330 332 334 336 338 337 338 340 339 340 339 339 339 339 340 342 342 341 341 340 339 338 337 334 333 333 334
305 303 303 304 303 305 309 311 313 314 315 315 316 316 315 317 317 320 325 328 328 331 333 336 338 339 339 339 338 338 338 340 341 340 341 341 340 340 338 338 336 334 334
305 303 301 300 301 303 305 308 310 312 312 311 312 311 311 312 314 315 318 320 320 323 327 330 330 333 336 339 338 338 338 338 339 338 338 338 339 339 339 338 337 337 334
304 303 301 300 298 299 302 304 306 307 311 310 308 308 308 309 310 312 314 316 317 318 321 323 325 329 334 335 336 337 337 337 334 336 331 328 329 334 337 338 335 338 336
302 301 300 299 298 298 298 299 303 306 307 307 306 306 306 306 307 308 308 309 310 312 314 317 320 323 326 332 335 335 335 333 332 333 327 326 327 331 333 336 337 337 337
302 302 301 299 298 297 298 299 301 303 304 304 304 304 303 304 303 303 303 304 306 307 310 311 312 314 320 323 331 335 335 336 333 329 327 329 330 331 332 334 336 336 336
300 300 300 299 299 298 298 298 300 303 303 301 302 301 301 301 300 300 300 301 303 303 305 306 309 311 313 316 321 327 333 332 333 334 333 332 332 333 334 333 333 333 333
297 296 296 298 297 297 297 296 298 298 299 300 299 299 298 298 298 298 298 298 299 300 301 302 303 305 308 312 315 319 323 329 332 335 334 334 333 333 333 333 333 333 332
298 298 297 297 296 296 294 295 295 295 296 296 296 296 296 296 296 296 295 296 297 298 299 299 300 302 304 307 310 314 317 321 328 330 333 332 331 331 333 333 334 334 333

GFSSE_925_thetae_132.txt.gz
Theta_e
348 342 340 339 338 338 339 339 340 337 335 333 332 331 331 330 330 332 335 338 342 341 337 336 338 339 337 334 337 337 333 334 335 335 336 338 339 338 337 339 341 338 336
349 342 341 338 337 338 339 339 340 339 338 334 334 332 332 332 332 332 334 337 338 337 336 336 337 341 340 339 339 338 332 334 335 335 336 338 339 338 339 340 341 337 337
350 346 340 339 337 337 338 339 339 340 338 337 336 334 333 333 333 333 333 334 335 335 337 336 340 341 341 341 339 337 333 333 334 336 341 341 338 337 339 341 341 335 337
353 351 347 339 337 337 338 339 339 340 339 339 338 336 333 333 333 333 333 333 333 336 337 338 339 341 340 339 338 335 333 331 333 336 343 343 343 338 340 339 334 334 336
348 350 350 339 338 336 337 338 339 339 339 340 340 338 335 333 334 333 334 334 335 339 341 341 338 341 340 338 337 335 332 330 331 334 342 342 342 338 337 340 337 332 335
350 352 349 340 340 337 336 336 336 337 338 339 340 340 337 334 334 334 334 335 336 337 339 338 338 340 338 338 338 337 334 330 329 333 341 343 344 338 336 337 338 333 337
348 354 349 341 340 340 337 335 336 336 337 339 341 341 340 337 335 335 335 336 338 339 339 337 338 340 340 339 338 337 335 331 329 333 341 342 342 341 334 334 338 337 336
347 352 354 352 344 340 340 340 337 336 335 336 338 340 340 340 338 337 336 337 338 340 342 343 342 342 342 341 340 338 335 331 329 335 339 341 340 339 337 333 336 335 335
331 341 349 352 352 352 342 340 341 340 337 336 336 337 339 339 340 339 338 338 338 338 340 343 344 343 343 341 340 338 335 332 329 332 339 339 341 339 337 334 335 332 332
325 324 326 334 340 350 354 353 344 341 342 341 338 336 336 337 339 341 341 340 339 339 339 340 341 342 342 341 340 339 335 333 331 330 338 340 341 340 336 333 334 335 334
323 325 329 331 331 333 344 349 350 350 344 342 342 340 338 337 338 340 340 341 341 340 339 338 338 338 338 341 340 339 336 334 333 333 332 339 338 340 337 333 334 335 334
324 327 327 327 331 337 339 344 345 350 348 345 343 344 345 343 341 343 344 343 341 339 340 339 338 338 338 340 340 337 335 333 336 338 338 338 339 338 337 335 334 335 335
323 323 322 322 323 329 336 341 344 347 347 348 348 345 347 349 348 347 345 344 343 342 341 341 339 339 338 337 337 341 338 334 335 337 339 338 337 337 337 334 334 335 335
320 319 317 319 319 323 326 333 338 341 344 347 346 342 343 344 345 345 345 345 342 342 342 342 343 340 339 339 340 340 341 341 340 337 337 338 336 337 336 334 333 335 335
317 316 315 315 316 321 323 327 331 334 337 338 339 341 342 343 343 343 343 343 342 340 341 341 341 342 343 342 341 342 342 344 342 339 338 337 336 336 336 335 332 333 333
314 314 313 313 313 316 319 320 323 325 329 332 332 333 335 336 337 340 338 342 341 341 341 340 339 339 341 342 342 342 342 342 343 343 339 339 336 337 336 335 332 332 332
313 312 311 311 311 312 315 317 317 320 320 320 321 325 326 327 328 329 332 333 333 335 337 338 337 338 338 338 339 339 340 341 342 342 343 341 339 337 337 336 333 332 333
313 311 310 309 308 311 313 314 315 314 316 315 316 316 316 318 318 322 323 325 326 327 328 330 331 332 332 333 336 335 337 338 339 340 341 340 342 339 337 337 335 331 332
311 309 308 308 307 307 310 313 313 313 313 312 312 314 313 314 315 317 319 320 321 322 324 326 327 329 331 332 332 332 333 334 330 329 337 338 338 340 339 337 336 334 333
309 309 308 307 307 307 307 308 311 312 311 310 311 310 310 311 311 312 314 314 315 316 316 318 318 320 322 325 328 332 332 332 334 332 328 332 338 339 329 331 332 336 336
309 308 307 307 306 307 307 307 308 309 310 308 307 308 308 308 307 306 307 308 308 309 311 312 312 313 315 318 321 325 329 329 329 334 333 334 333 332 330 332 329 327 333
307 307 307 306 305 305 305 306 308 308 309 308 307 306 305 305 305 304 303 304 304 306 307 307 308 309 311 313 316 320 327 328 330 332 333 333 335 334 331 329 325 325 330
306 305 305 304 304 303 303 304 305 307 307 307 307 306 305 304 303 302 301 302 302 303 303 304 305 305 307 308 311 315 322 325 321 324 327 331 332 332 332 327 327 329 330
305 304 304 304 303 302 301 301 302 302 303 302 303 302 303 303 301 300 299 299 300 300 301 301 302 302 303 305 307 311 310 313 321 322 323 323 327 332 332 331 328 328 328
304 304 304 303 302 301 300 299 299 299 299 299 298 298 298 298 298 296 296 297 297 298 298 298 299 300 301 303 305 307 308 311 312 317 320 321 321 324 327 331 331 330 329
303 302 301 302 300 299 298 298 297 297 297 297 296 296 294 295 294 294 293 294 295 295 296 296 297 298 299 301 303 305 306 309 311 313 314 314 316 317 319 321 327 330 331

GFSSE_925_thetae_135.txt.gz
Theta_e
341 340 339 338 337 338 339 339 338 335 332 333 331 329 329 329 330 332 336 338 340 341 337 334 334 336 337 335 338 337 332 333 334 335 337 339 338 338 339 341 338 336 338
341 340 339 337 337 338 339 339 338 337 334 335 333 331 330 329 329 331 335 339 341 337 335 336 338 339 336 336 337 336 331 332 334 336 337 338 336 338 339 341 339 335 337
342 340 339 337 336 338 339 339 339 338 336 336 335 333 331 331 330 330 332 336 337 336 336 335 338 340 339 339 337 336 332 332 334 337 339 338 337 339 339 340 338 336 337
352 340 339 338 337 337 339 339 339 339 338 336 337 335 332 332 332 331 332 333 335 335 336 336 338 340 340 339 338 335 332 331 334 339 344 343 337 338 341 341 334 336 336
347 347 344 338 337 336 337 339 339 339 339 338 339 337 335 332 332 333 333 334 334 336 337 338 338 338 339 339 337 335 332 329 333 335 341 340 340 336 339 336 333 335 336
350 346 343 339 338 336 336 336 336 337 337 338 339 340 338 335 333 333 334 334 334 337 343 341 339 337 339 338 337 336 335 331 330 333 338 341 341 335 336 339 335 333 335
352 352 343 339 339 339 336 335 335 335 335 336 337 339 340 338 335 334 334 334 334 335 337 340 338 337 338 338 338 337 335 332 329 330 336 341 342 337 334 335 336 332 336
351 352 351 351 348 340 339 339 337 336 335 336 337 339 340 340 338 335 335 335 335 337 337 340 340 340 340 340 339 338 336 332 330 328 334 338 338 340 336 333 335 333 337
329 333 343 347 348 351 352 343 340 340 338 336 336 338 340 340 340 339 337 336 336 336 337 338 341 342 341 341 340 338 336 332 330 328 329 340 339 339 337 333 332 334 334
329 327 327 329 334 337 341 352 351 345 341 341 339 337 336 337 338 340 341 339 338 338 337 337 338 341 342 341 340 338 338 334 330 328 329 334 340 338 338 333 332 332 331
324 323 325 325 328 333 339 346 349 349 348 345 342 341 340 338 336 336 337 337 339 339 339 338 338 338 339 340 340 338 338 337 333 329 329 330 337 341 338 333 333 333 331
319 319 319 319 319 326 331 336 341 345 348 347 343 341 341 340 340 338 339 341 343 341 338 339 339 338 338 340 339 338 340 337 334 330 330 331 336 341 337 335 332 333 334
316 317 315 315 317 321 323 327 333 336 340 344 347 345 344 346 347 345 346 346 345 344 343 342 341 340 339 339 340 339 338 336 334 331 331 331 338 340 338 336 334 332 333
315 314 313 314 317 320 321 322 327 331 333 336 339 341 343 342 344 345 344 344 343 343 342 341 341 342 341 338 337 339 338 337 339 336 332 333 338 339 338 337 335 332 332
313 312 312 312 314 316 319 318 321 322 325 329 333 335 337 338 339 340 340 340 339 341 340 340 340 340 340 340 339 339 338 338 339 340 339 337 337 338 337 337 335 332 331
312 311 310 310 312 313 317 317 315 317 318 319 321 325 327 328 331 333 333 333 334 334 335 336 337 337 338 338 338 338 337 338 338 338 338 338 338 338 337 336 336 334 331
311 310 309 308 310 312 314 314 314 313 313 313 315 316 317 319 322 327 327 325 324 324 328 329 329 331 332 332 332 333 334 335 335 336 335 331 337 337 337 337 336 335 331
309 308 308 307 307 310 311 313 312 312 312 312 311 312 313 315 317 319 319 319 321 322 323 325 324 325 326 326 327 327 329 330 332 333 331 328 330 336 337 337 337 336 333
308 307 307 307 307 307 308 310 311 311 310 310 309 309 309 309 311 313 313 312 315 317 318 316 318 317 319 320 321 324 325 328 329 331 333 331 330 331 335 336 336 337 335
308 307 306 306 306 306 307 308 308 310 308 307 306 306 306 306 306 306 306 307 308 309 309 310 310 311 312 313 315 319 323 324 328 326 331 331 329 330 329 332 331 326 328
307 306 305 304 304 304 305 306 307 308 308 307 306 305 304 304 303 302 303 303 303 305 305 306 306 307 309 310 315 314 315 317 324 327 330 332 332 333 332 330 331 325 324
305 305 304 304 303 302 303 304 304 306 305 305 304 304 303 302 301 301 300 301 301 302 303 302 303 304 306 307 310 312 317 320 323 321 322 329 329 326 330 332 333 330 326
305 304 304 303 301 301 300 301 303 304 303 302 301 301 300 299 299 298 298 298 299 299 300 300 301 301 303 304 305 309 315 316 313 316 317 321 319 321 327 330 331 330 328
304 304 303 302 300 299 299 299 298 299 298 298 297 297 297 297 296 296 295 296 296 297 297 297 298 299 300 302 304 306 306 308 314 314 315 315 318 317 319 320 328 330 329
303 303 302 300 299 298 297 297 296 296 296 296 295 294 294 294 293 293 292 293 294 295 295 295 296 297 298 300 302 303 305 306 308 312 314 312 311 312 313 314 315 318 328
302 301 301 299 297 297 296 295 295 295 295 294 293 293 292 292 292 291 292 292 292 293 293 294 295 296 297 298 298 300 302 304 306 307 309 307 309 309 311 312 316 316 319